<?xml version="1.0" encoding="utf-8"?>
<gpx xmlns:xsi="http://www.w3.org/2001/XMLSchema-instance" xmlns:xsd="http://www.w3.org/2001/XMLSchema" version="1.1" creator="Shapelink.com" xmlns="http://www.topografix.com/GPX/1/1" xmlns:gpxtpx="http://www.garmin.com/xmlschemas/TrackPointExtension/v1">
  <metadata>
    <name>Cykling - CX 12.07 km, 2018-11-10</name>
    <desc></desc>
    <author><name>Alexander Engvall</name></author> 
    <time>2018-11-10T11:49:09Z</time>
  </metadata>
  <trk>
    <name>Cykling - CX 12.07 km, 2018-11-10</name>
    <trkseg>
      <trkpt lat="59.311063" lon="18.023302">
        <ele>12.6</ele>
        <time>2018-11-10T11:49:09Z</time>
      </trkpt>
      <trkpt lat="59.311098" lon="18.023261">
        <ele>12.6</ele>
        <time>2018-11-10T11:49:10Z</time>
      </trkpt>
      <trkpt lat="59.311053" lon="18.023315">
        <ele>12.6</ele>
        <time>2018-11-10T11:49:12Z</time>
      </trkpt>
      <trkpt lat="59.311033" lon="18.023378">
        <ele>12.6</ele>
        <time>2018-11-10T11:49:14Z</time>
      </trkpt>
      <trkpt lat="59.311039" lon="18.023434">
        <ele>12.6</ele>
        <time>2018-11-10T11:50:02Z</time>
      </trkpt>
      <trkpt lat="59.311023" lon="18.023326">
        <ele>12.5</ele>
        <time>2018-11-10T11:50:05Z</time>
      </trkpt>
      <trkpt lat="59.311001" lon="18.023243">
        <ele>12.5</ele>
        <time>2018-11-10T11:50:06Z</time>
      </trkpt>
      <trkpt lat="59.31097" lon="18.023176">
        <ele>12.4</ele>
        <time>2018-11-10T11:50:07Z</time>
      </trkpt>
      <trkpt lat="59.310944" lon="18.023103">
        <ele>12.3</ele>
        <time>2018-11-10T11:50:08Z</time>
      </trkpt>
      <trkpt lat="59.310923" lon="18.023013">
        <ele>12.1</ele>
        <time>2018-11-10T11:50:09Z</time>
      </trkpt>
      <trkpt lat="59.310908" lon="18.022921">
        <ele>12</ele>
        <time>2018-11-10T11:50:10Z</time>
      </trkpt>
      <trkpt lat="59.310886" lon="18.022813">
        <ele>11.8</ele>
        <time>2018-11-10T11:50:11Z</time>
      </trkpt>
      <trkpt lat="59.310852" lon="18.022717">
        <ele>11.7</ele>
        <time>2018-11-10T11:50:12Z</time>
      </trkpt>
      <trkpt lat="59.310819" lon="18.022616">
        <ele>11.6</ele>
        <time>2018-11-10T11:50:13Z</time>
      </trkpt>
      <trkpt lat="59.310786" lon="18.022512">
        <ele>11.5</ele>
        <time>2018-11-10T11:50:14Z</time>
      </trkpt>
      <trkpt lat="59.310764" lon="18.022406">
        <ele>11.4</ele>
        <time>2018-11-10T11:50:15Z</time>
      </trkpt>
      <trkpt lat="59.310736" lon="18.022305">
        <ele>11.3</ele>
        <time>2018-11-10T11:50:16Z</time>
      </trkpt>
      <trkpt lat="59.310713" lon="18.022164">
        <ele>11.3</ele>
        <time>2018-11-10T11:50:17Z</time>
      </trkpt>
      <trkpt lat="59.310696" lon="18.022066">
        <ele>11.3</ele>
        <time>2018-11-10T11:50:18Z</time>
      </trkpt>
      <trkpt lat="59.310692" lon="18.021989">
        <ele>11.2</ele>
        <time>2018-11-10T11:50:19Z</time>
      </trkpt>
      <trkpt lat="59.3107" lon="18.021899">
        <ele>11.2</ele>
        <time>2018-11-10T11:50:20Z</time>
      </trkpt>
      <trkpt lat="59.310726" lon="18.021837">
        <ele>10.4</ele>
        <time>2018-11-10T11:50:21Z</time>
      </trkpt>
      <trkpt lat="59.310746" lon="18.02179">
        <ele>10.3</ele>
        <time>2018-11-10T11:50:22Z</time>
      </trkpt>
      <trkpt lat="59.310748" lon="18.021706">
        <ele>10.2</ele>
        <time>2018-11-10T11:50:23Z</time>
      </trkpt>
      <trkpt lat="59.310754" lon="18.021601">
        <ele>10.4</ele>
        <time>2018-11-10T11:50:24Z</time>
      </trkpt>
      <trkpt lat="59.310766" lon="18.021502">
        <ele>10.2</ele>
        <time>2018-11-10T11:50:25Z</time>
      </trkpt>
      <trkpt lat="59.310788" lon="18.021397">
        <ele>10.1</ele>
        <time>2018-11-10T11:50:26Z</time>
      </trkpt>
      <trkpt lat="59.310825" lon="18.021319">
        <ele>9.9</ele>
        <time>2018-11-10T11:50:27Z</time>
      </trkpt>
      <trkpt lat="59.31086" lon="18.021261">
        <ele>9.8</ele>
        <time>2018-11-10T11:50:28Z</time>
      </trkpt>
      <trkpt lat="59.310902" lon="18.021197">
        <ele>9.7</ele>
        <time>2018-11-10T11:50:29Z</time>
      </trkpt>
      <trkpt lat="59.31095" lon="18.021141">
        <ele>9.5</ele>
        <time>2018-11-10T11:50:30Z</time>
      </trkpt>
      <trkpt lat="59.310986" lon="18.021092">
        <ele>9.4</ele>
        <time>2018-11-10T11:50:31Z</time>
      </trkpt>
      <trkpt lat="59.311004" lon="18.021038">
        <ele>9.1</ele>
        <time>2018-11-10T11:50:32Z</time>
      </trkpt>
      <trkpt lat="59.311013" lon="18.020981">
        <ele>9.1</ele>
        <time>2018-11-10T11:50:33Z</time>
      </trkpt>
      <trkpt lat="59.310996" lon="18.020924">
        <ele>9.1</ele>
        <time>2018-11-10T11:50:34Z</time>
      </trkpt>
      <trkpt lat="59.310965" lon="18.020866">
        <ele>9.1</ele>
        <time>2018-11-10T11:50:35Z</time>
      </trkpt>
      <trkpt lat="59.310925" lon="18.020808">
        <ele>9.2</ele>
        <time>2018-11-10T11:50:36Z</time>
      </trkpt>
      <trkpt lat="59.310885" lon="18.02074">
        <ele>9.2</ele>
        <time>2018-11-10T11:50:37Z</time>
      </trkpt>
      <trkpt lat="59.31084" lon="18.020659">
        <ele>9.2</ele>
        <time>2018-11-10T11:50:38Z</time>
      </trkpt>
      <trkpt lat="59.310799" lon="18.020576">
        <ele>9.2</ele>
        <time>2018-11-10T11:50:39Z</time>
      </trkpt>
      <trkpt lat="59.310752" lon="18.020481">
        <ele>9.2</ele>
        <time>2018-11-10T11:50:40Z</time>
      </trkpt>
      <trkpt lat="59.31071" lon="18.020404">
        <ele>9.2</ele>
        <time>2018-11-10T11:50:41Z</time>
      </trkpt>
      <trkpt lat="59.310667" lon="18.020327">
        <ele>9.7</ele>
        <time>2018-11-10T11:50:42Z</time>
      </trkpt>
      <trkpt lat="59.310627" lon="18.020229">
        <ele>10</ele>
        <time>2018-11-10T11:50:43Z</time>
      </trkpt>
      <trkpt lat="59.310584" lon="18.02014">
        <ele>10.3</ele>
        <time>2018-11-10T11:50:44Z</time>
      </trkpt>
      <trkpt lat="59.310541" lon="18.020056">
        <ele>10</ele>
        <time>2018-11-10T11:50:45Z</time>
      </trkpt>
      <trkpt lat="59.310513" lon="18.019956">
        <ele>9.7</ele>
        <time>2018-11-10T11:50:46Z</time>
      </trkpt>
      <trkpt lat="59.310507" lon="18.019854">
        <ele>9.2</ele>
        <time>2018-11-10T11:50:47Z</time>
      </trkpt>
      <trkpt lat="59.310513" lon="18.019752">
        <ele>9</ele>
        <time>2018-11-10T11:50:48Z</time>
      </trkpt>
      <trkpt lat="59.310535" lon="18.019666">
        <ele>8.9</ele>
        <time>2018-11-10T11:50:49Z</time>
      </trkpt>
      <trkpt lat="59.31056" lon="18.019591">
        <ele>8.8</ele>
        <time>2018-11-10T11:50:50Z</time>
      </trkpt>
      <trkpt lat="59.31058" lon="18.019496">
        <ele>8.7</ele>
        <time>2018-11-10T11:50:51Z</time>
      </trkpt>
      <trkpt lat="59.310598" lon="18.019398">
        <ele>8.7</ele>
        <time>2018-11-10T11:50:52Z</time>
      </trkpt>
      <trkpt lat="59.310616" lon="18.01931">
        <ele>8.7</ele>
        <time>2018-11-10T11:50:53Z</time>
      </trkpt>
      <trkpt lat="59.310624" lon="18.019223">
        <ele>8.7</ele>
        <time>2018-11-10T11:50:54Z</time>
      </trkpt>
      <trkpt lat="59.310641" lon="18.019129">
        <ele>8.7</ele>
        <time>2018-11-10T11:50:55Z</time>
      </trkpt>
      <trkpt lat="59.310656" lon="18.019036">
        <ele>8.7</ele>
        <time>2018-11-10T11:50:56Z</time>
      </trkpt>
      <trkpt lat="59.310661" lon="18.018956">
        <ele>8.8</ele>
        <time>2018-11-10T11:50:57Z</time>
      </trkpt>
      <trkpt lat="59.310667" lon="18.018884">
        <ele>8.8</ele>
        <time>2018-11-10T11:50:58Z</time>
      </trkpt>
      <trkpt lat="59.310676" lon="18.018813">
        <ele>8.8</ele>
        <time>2018-11-10T11:50:59Z</time>
      </trkpt>
      <trkpt lat="59.310682" lon="18.018749">
        <ele>8.8</ele>
        <time>2018-11-10T11:51:00Z</time>
      </trkpt>
      <trkpt lat="59.310686" lon="18.018669">
        <ele>8.8</ele>
        <time>2018-11-10T11:51:01Z</time>
      </trkpt>
      <trkpt lat="59.310684" lon="18.018607">
        <ele>8.8</ele>
        <time>2018-11-10T11:51:02Z</time>
      </trkpt>
      <trkpt lat="59.310685" lon="18.018541">
        <ele>8.8</ele>
        <time>2018-11-10T11:51:03Z</time>
      </trkpt>
      <trkpt lat="59.31067" lon="18.018106">
        <ele>8.7</ele>
        <time>2018-11-10T11:51:11Z</time>
      </trkpt>
      <trkpt lat="59.310666" lon="18.018013">
        <ele>8.6</ele>
        <time>2018-11-10T11:51:13Z</time>
      </trkpt>
      <trkpt lat="59.310665" lon="18.017917">
        <ele>8.6</ele>
        <time>2018-11-10T11:51:15Z</time>
      </trkpt>
      <trkpt lat="59.310676" lon="18.017857">
        <ele>8.5</ele>
        <time>2018-11-10T11:51:16Z</time>
      </trkpt>
      <trkpt lat="59.310696" lon="18.017791">
        <ele>8.5</ele>
        <time>2018-11-10T11:51:17Z</time>
      </trkpt>
      <trkpt lat="59.310718" lon="18.017724">
        <ele>8.4</ele>
        <time>2018-11-10T11:51:18Z</time>
      </trkpt>
      <trkpt lat="59.310735" lon="18.017649">
        <ele>8.4</ele>
        <time>2018-11-10T11:51:19Z</time>
      </trkpt>
      <trkpt lat="59.310752" lon="18.017574">
        <ele>8.4</ele>
        <time>2018-11-10T11:51:20Z</time>
      </trkpt>
      <trkpt lat="59.310779" lon="18.017488">
        <ele>8.4</ele>
        <time>2018-11-10T11:51:21Z</time>
      </trkpt>
      <trkpt lat="59.310806" lon="18.017421">
        <ele>8.4</ele>
        <time>2018-11-10T11:51:22Z</time>
      </trkpt>
      <trkpt lat="59.310832" lon="18.01735">
        <ele>8.5</ele>
        <time>2018-11-10T11:51:23Z</time>
      </trkpt>
      <trkpt lat="59.310854" lon="18.017301">
        <ele>8.6</ele>
        <time>2018-11-10T11:51:24Z</time>
      </trkpt>
      <trkpt lat="59.310873" lon="18.017223">
        <ele>8.6</ele>
        <time>2018-11-10T11:51:25Z</time>
      </trkpt>
      <trkpt lat="59.310907" lon="18.017097">
        <ele>8.8</ele>
        <time>2018-11-10T11:51:27Z</time>
      </trkpt>
      <trkpt lat="59.310922" lon="18.017027">
        <ele>8.8</ele>
        <time>2018-11-10T11:51:28Z</time>
      </trkpt>
      <trkpt lat="59.31094" lon="18.016922">
        <ele>8.9</ele>
        <time>2018-11-10T11:51:30Z</time>
      </trkpt>
      <trkpt lat="59.310958" lon="18.016843">
        <ele>8.9</ele>
        <time>2018-11-10T11:51:31Z</time>
      </trkpt>
      <trkpt lat="59.310967" lon="18.016765">
        <ele>9</ele>
        <time>2018-11-10T11:51:32Z</time>
      </trkpt>
      <trkpt lat="59.310968" lon="18.016679">
        <ele>9</ele>
        <time>2018-11-10T11:51:33Z</time>
      </trkpt>
      <trkpt lat="59.310967" lon="18.016581">
        <ele>9</ele>
        <time>2018-11-10T11:51:34Z</time>
      </trkpt>
      <trkpt lat="59.310968" lon="18.016486">
        <ele>9</ele>
        <time>2018-11-10T11:51:35Z</time>
      </trkpt>
      <trkpt lat="59.310964" lon="18.016381">
        <ele>9.1</ele>
        <time>2018-11-10T11:51:36Z</time>
      </trkpt>
      <trkpt lat="59.310962" lon="18.016286">
        <ele>9.1</ele>
        <time>2018-11-10T11:51:37Z</time>
      </trkpt>
      <trkpt lat="59.310963" lon="18.016188">
        <ele>9.1</ele>
        <time>2018-11-10T11:51:38Z</time>
      </trkpt>
      <trkpt lat="59.310969" lon="18.016082">
        <ele>9.1</ele>
        <time>2018-11-10T11:51:39Z</time>
      </trkpt>
      <trkpt lat="59.310963" lon="18.01599">
        <ele>9.2</ele>
        <time>2018-11-10T11:51:40Z</time>
      </trkpt>
      <trkpt lat="59.310954" lon="18.015893">
        <ele>9.2</ele>
        <time>2018-11-10T11:51:41Z</time>
      </trkpt>
      <trkpt lat="59.310942" lon="18.015793">
        <ele>9.2</ele>
        <time>2018-11-10T11:51:42Z</time>
      </trkpt>
      <trkpt lat="59.31093" lon="18.015697">
        <ele>9.2</ele>
        <time>2018-11-10T11:51:43Z</time>
      </trkpt>
      <trkpt lat="59.310912" lon="18.015607">
        <ele>9.2</ele>
        <time>2018-11-10T11:51:44Z</time>
      </trkpt>
      <trkpt lat="59.310896" lon="18.015526">
        <ele>9.2</ele>
        <time>2018-11-10T11:51:45Z</time>
      </trkpt>
      <trkpt lat="59.310872" lon="18.015456">
        <ele>9.2</ele>
        <time>2018-11-10T11:51:46Z</time>
      </trkpt>
      <trkpt lat="59.310857" lon="18.015379">
        <ele>9.1</ele>
        <time>2018-11-10T11:51:47Z</time>
      </trkpt>
      <trkpt lat="59.310845" lon="18.015285">
        <ele>9.1</ele>
        <time>2018-11-10T11:51:48Z</time>
      </trkpt>
      <trkpt lat="59.310829" lon="18.01521">
        <ele>9.1</ele>
        <time>2018-11-10T11:51:49Z</time>
      </trkpt>
      <trkpt lat="59.310838" lon="18.015144">
        <ele>9.1</ele>
        <time>2018-11-10T11:51:50Z</time>
      </trkpt>
      <trkpt lat="59.310824" lon="18.015099">
        <ele>9.1</ele>
        <time>2018-11-10T11:51:51Z</time>
      </trkpt>
      <trkpt lat="59.310803" lon="18.015036">
        <ele>9.2</ele>
        <time>2018-11-10T11:51:52Z</time>
      </trkpt>
      <trkpt lat="59.310787" lon="18.014972">
        <ele>9.2</ele>
        <time>2018-11-10T11:51:53Z</time>
      </trkpt>
      <trkpt lat="59.310786" lon="18.014871">
        <ele>9.3</ele>
        <time>2018-11-10T11:51:55Z</time>
      </trkpt>
      <trkpt lat="59.310782" lon="18.014801">
        <ele>9.4</ele>
        <time>2018-11-10T11:51:56Z</time>
      </trkpt>
      <trkpt lat="59.31078" lon="18.01472">
        <ele>9.5</ele>
        <time>2018-11-10T11:51:57Z</time>
      </trkpt>
      <trkpt lat="59.310775" lon="18.014629">
        <ele>9.6</ele>
        <time>2018-11-10T11:51:58Z</time>
      </trkpt>
      <trkpt lat="59.310766" lon="18.01451">
        <ele>9.7</ele>
        <time>2018-11-10T11:51:59Z</time>
      </trkpt>
      <trkpt lat="59.310772" lon="18.014423">
        <ele>9.7</ele>
        <time>2018-11-10T11:52:00Z</time>
      </trkpt>
      <trkpt lat="59.31078" lon="18.014333">
        <ele>9.7</ele>
        <time>2018-11-10T11:52:01Z</time>
      </trkpt>
      <trkpt lat="59.310795" lon="18.01424">
        <ele>9.7</ele>
        <time>2018-11-10T11:52:02Z</time>
      </trkpt>
      <trkpt lat="59.310801" lon="18.014145">
        <ele>9.6</ele>
        <time>2018-11-10T11:52:03Z</time>
      </trkpt>
      <trkpt lat="59.310811" lon="18.014042">
        <ele>9.5</ele>
        <time>2018-11-10T11:52:04Z</time>
      </trkpt>
      <trkpt lat="59.31082" lon="18.013947">
        <ele>9.4</ele>
        <time>2018-11-10T11:52:05Z</time>
      </trkpt>
      <trkpt lat="59.310825" lon="18.013863">
        <ele>9.3</ele>
        <time>2018-11-10T11:52:06Z</time>
      </trkpt>
      <trkpt lat="59.310816" lon="18.013776">
        <ele>9.2</ele>
        <time>2018-11-10T11:52:07Z</time>
      </trkpt>
      <trkpt lat="59.310818" lon="18.013708">
        <ele>9.2</ele>
        <time>2018-11-10T11:52:08Z</time>
      </trkpt>
      <trkpt lat="59.310818" lon="18.013616">
        <ele>9.1</ele>
        <time>2018-11-10T11:52:09Z</time>
      </trkpt>
      <trkpt lat="59.310814" lon="18.013521">
        <ele>9.1</ele>
        <time>2018-11-10T11:52:10Z</time>
      </trkpt>
      <trkpt lat="59.310809" lon="18.013421">
        <ele>9</ele>
        <time>2018-11-10T11:52:11Z</time>
      </trkpt>
      <trkpt lat="59.310782" lon="18.013326">
        <ele>9</ele>
        <time>2018-11-10T11:52:12Z</time>
      </trkpt>
      <trkpt lat="59.31077" lon="18.013235">
        <ele>8.9</ele>
        <time>2018-11-10T11:52:13Z</time>
      </trkpt>
      <trkpt lat="59.310753" lon="18.01314">
        <ele>8.7</ele>
        <time>2018-11-10T11:52:14Z</time>
      </trkpt>
      <trkpt lat="59.310734" lon="18.013054">
        <ele>8.6</ele>
        <time>2018-11-10T11:52:15Z</time>
      </trkpt>
      <trkpt lat="59.310737" lon="18.012964">
        <ele>8.6</ele>
        <time>2018-11-10T11:52:16Z</time>
      </trkpt>
      <trkpt lat="59.310732" lon="18.012874">
        <ele>8.6</ele>
        <time>2018-11-10T11:52:17Z</time>
      </trkpt>
      <trkpt lat="59.310736" lon="18.012772">
        <ele>8.7</ele>
        <time>2018-11-10T11:52:18Z</time>
      </trkpt>
      <trkpt lat="59.310742" lon="18.012682">
        <ele>8.8</ele>
        <time>2018-11-10T11:52:19Z</time>
      </trkpt>
      <trkpt lat="59.310773" lon="18.01254">
        <ele>9</ele>
        <time>2018-11-10T11:52:20Z</time>
      </trkpt>
      <trkpt lat="59.310774" lon="18.012427">
        <ele>9.1</ele>
        <time>2018-11-10T11:52:21Z</time>
      </trkpt>
      <trkpt lat="59.310771" lon="18.012304">
        <ele>9.2</ele>
        <time>2018-11-10T11:52:22Z</time>
      </trkpt>
      <trkpt lat="59.310766" lon="18.012178">
        <ele>9.2</ele>
        <time>2018-11-10T11:52:23Z</time>
      </trkpt>
      <trkpt lat="59.310778" lon="18.012069">
        <ele>9.2</ele>
        <time>2018-11-10T11:52:24Z</time>
      </trkpt>
      <trkpt lat="59.310787" lon="18.011962">
        <ele>9.1</ele>
        <time>2018-11-10T11:52:25Z</time>
      </trkpt>
      <trkpt lat="59.310798" lon="18.01189">
        <ele>9</ele>
        <time>2018-11-10T11:52:26Z</time>
      </trkpt>
      <trkpt lat="59.310807" lon="18.011789">
        <ele>8.9</ele>
        <time>2018-11-10T11:52:27Z</time>
      </trkpt>
      <trkpt lat="59.310803" lon="18.011675">
        <ele>8.9</ele>
        <time>2018-11-10T11:52:28Z</time>
      </trkpt>
      <trkpt lat="59.310801" lon="18.011586">
        <ele>9</ele>
        <time>2018-11-10T11:52:29Z</time>
      </trkpt>
      <trkpt lat="59.310806" lon="18.011505">
        <ele>9</ele>
        <time>2018-11-10T11:52:30Z</time>
      </trkpt>
      <trkpt lat="59.310813" lon="18.011419">
        <ele>8.9</ele>
        <time>2018-11-10T11:52:31Z</time>
      </trkpt>
      <trkpt lat="59.310823" lon="18.011351">
        <ele>8.9</ele>
        <time>2018-11-10T11:52:32Z</time>
      </trkpt>
      <trkpt lat="59.310829" lon="18.011257">
        <ele>8.9</ele>
        <time>2018-11-10T11:52:33Z</time>
      </trkpt>
      <trkpt lat="59.310828" lon="18.01116">
        <ele>8.9</ele>
        <time>2018-11-10T11:52:34Z</time>
      </trkpt>
      <trkpt lat="59.310845" lon="18.011022">
        <ele>8.8</ele>
        <time>2018-11-10T11:52:35Z</time>
      </trkpt>
      <trkpt lat="59.310848" lon="18.010948">
        <ele>8.9</ele>
        <time>2018-11-10T11:52:36Z</time>
      </trkpt>
      <trkpt lat="59.310855" lon="18.010879">
        <ele>8.9</ele>
        <time>2018-11-10T11:52:37Z</time>
      </trkpt>
      <trkpt lat="59.310866" lon="18.010829">
        <ele>8.9</ele>
        <time>2018-11-10T11:52:38Z</time>
      </trkpt>
      <trkpt lat="59.310863" lon="18.010766">
        <ele>8.9</ele>
        <time>2018-11-10T11:52:39Z</time>
      </trkpt>
      <trkpt lat="59.310854" lon="18.010701">
        <ele>8.9</ele>
        <time>2018-11-10T11:52:40Z</time>
      </trkpt>
      <trkpt lat="59.31084" lon="18.010636">
        <ele>8.9</ele>
        <time>2018-11-10T11:52:41Z</time>
      </trkpt>
      <trkpt lat="59.310825" lon="18.010567">
        <ele>9</ele>
        <time>2018-11-10T11:52:42Z</time>
      </trkpt>
      <trkpt lat="59.310807" lon="18.010504">
        <ele>9</ele>
        <time>2018-11-10T11:52:43Z</time>
      </trkpt>
      <trkpt lat="59.310788" lon="18.010447">
        <ele>9.5</ele>
        <time>2018-11-10T11:52:44Z</time>
      </trkpt>
      <trkpt lat="59.310771" lon="18.010383">
        <ele>9.9</ele>
        <time>2018-11-10T11:52:45Z</time>
      </trkpt>
      <trkpt lat="59.31076" lon="18.010306">
        <ele>10.4</ele>
        <time>2018-11-10T11:52:46Z</time>
      </trkpt>
      <trkpt lat="59.310768" lon="18.010219">
        <ele>10.8</ele>
        <time>2018-11-10T11:52:47Z</time>
      </trkpt>
      <trkpt lat="59.310775" lon="18.010136">
        <ele>11.3</ele>
        <time>2018-11-10T11:52:48Z</time>
      </trkpt>
      <trkpt lat="59.310787" lon="18.010053">
        <ele>11.7</ele>
        <time>2018-11-10T11:52:49Z</time>
      </trkpt>
      <trkpt lat="59.310792" lon="18.009963">
        <ele>12.2</ele>
        <time>2018-11-10T11:52:50Z</time>
      </trkpt>
      <trkpt lat="59.3108" lon="18.009871">
        <ele>12.7</ele>
        <time>2018-11-10T11:52:51Z</time>
      </trkpt>
      <trkpt lat="59.310808" lon="18.009785">
        <ele>12.7</ele>
        <time>2018-11-10T11:52:52Z</time>
      </trkpt>
      <trkpt lat="59.310822" lon="18.009697">
        <ele>12.7</ele>
        <time>2018-11-10T11:52:53Z</time>
      </trkpt>
      <trkpt lat="59.310837" lon="18.009608">
        <ele>12.7</ele>
        <time>2018-11-10T11:52:54Z</time>
      </trkpt>
      <trkpt lat="59.310864" lon="18.009529">
        <ele>12.6</ele>
        <time>2018-11-10T11:52:55Z</time>
      </trkpt>
      <trkpt lat="59.310912" lon="18.009452">
        <ele>12.6</ele>
        <time>2018-11-10T11:52:56Z</time>
      </trkpt>
      <trkpt lat="59.310955" lon="18.00938">
        <ele>12.5</ele>
        <time>2018-11-10T11:52:57Z</time>
      </trkpt>
      <trkpt lat="59.311001" lon="18.00931">
        <ele>12.5</ele>
        <time>2018-11-10T11:52:58Z</time>
      </trkpt>
      <trkpt lat="59.311047" lon="18.009245">
        <ele>12.4</ele>
        <time>2018-11-10T11:52:59Z</time>
      </trkpt>
      <trkpt lat="59.311101" lon="18.009189">
        <ele>12.4</ele>
        <time>2018-11-10T11:53:00Z</time>
      </trkpt>
      <trkpt lat="59.311154" lon="18.009145">
        <ele>12.5</ele>
        <time>2018-11-10T11:53:01Z</time>
      </trkpt>
      <trkpt lat="59.311215" lon="18.009089">
        <ele>12.7</ele>
        <time>2018-11-10T11:53:02Z</time>
      </trkpt>
      <trkpt lat="59.311265" lon="18.009058">
        <ele>13</ele>
        <time>2018-11-10T11:53:03Z</time>
      </trkpt>
      <trkpt lat="59.311317" lon="18.009038">
        <ele>13.5</ele>
        <time>2018-11-10T11:53:04Z</time>
      </trkpt>
      <trkpt lat="59.311362" lon="18.009023">
        <ele>14</ele>
        <time>2018-11-10T11:53:05Z</time>
      </trkpt>
      <trkpt lat="59.311401" lon="18.009001">
        <ele>14.5</ele>
        <time>2018-11-10T11:53:06Z</time>
      </trkpt>
      <trkpt lat="59.311428" lon="18.008959">
        <ele>14.9</ele>
        <time>2018-11-10T11:53:07Z</time>
      </trkpt>
      <trkpt lat="59.311452" lon="18.008871">
        <ele>16.2</ele>
        <time>2018-11-10T11:53:09Z</time>
      </trkpt>
      <trkpt lat="59.311458" lon="18.008814">
        <ele>16.2</ele>
        <time>2018-11-10T11:53:10Z</time>
      </trkpt>
      <trkpt lat="59.311461" lon="18.008741">
        <ele>16.1</ele>
        <time>2018-11-10T11:53:11Z</time>
      </trkpt>
      <trkpt lat="59.311462" lon="18.008668">
        <ele>16.1</ele>
        <time>2018-11-10T11:53:12Z</time>
      </trkpt>
      <trkpt lat="59.31145" lon="18.008588">
        <ele>16.5</ele>
        <time>2018-11-10T11:53:13Z</time>
      </trkpt>
      <trkpt lat="59.311439" lon="18.008485">
        <ele>16.7</ele>
        <time>2018-11-10T11:53:14Z</time>
      </trkpt>
      <trkpt lat="59.311427" lon="18.00839">
        <ele>17.2</ele>
        <time>2018-11-10T11:53:15Z</time>
      </trkpt>
      <trkpt lat="59.311417" lon="18.008295">
        <ele>17.6</ele>
        <time>2018-11-10T11:53:16Z</time>
      </trkpt>
      <trkpt lat="59.311405" lon="18.008191">
        <ele>18.1</ele>
        <time>2018-11-10T11:53:17Z</time>
      </trkpt>
      <trkpt lat="59.311384" lon="18.008078">
        <ele>18.6</ele>
        <time>2018-11-10T11:53:18Z</time>
      </trkpt>
      <trkpt lat="59.311376" lon="18.007983">
        <ele>19</ele>
        <time>2018-11-10T11:53:19Z</time>
      </trkpt>
      <trkpt lat="59.31137" lon="18.007875">
        <ele>19.4</ele>
        <time>2018-11-10T11:53:20Z</time>
      </trkpt>
      <trkpt lat="59.311359" lon="18.007774">
        <ele>19.9</ele>
        <time>2018-11-10T11:53:21Z</time>
      </trkpt>
      <trkpt lat="59.311338" lon="18.00767">
        <ele>20.4</ele>
        <time>2018-11-10T11:53:22Z</time>
      </trkpt>
      <trkpt lat="59.311312" lon="18.007563">
        <ele>20.9</ele>
        <time>2018-11-10T11:53:23Z</time>
      </trkpt>
      <trkpt lat="59.311288" lon="18.007462">
        <ele>21.3</ele>
        <time>2018-11-10T11:53:24Z</time>
      </trkpt>
      <trkpt lat="59.311268" lon="18.00735">
        <ele>21.8</ele>
        <time>2018-11-10T11:53:25Z</time>
      </trkpt>
      <trkpt lat="59.311265" lon="18.007225">
        <ele>21.8</ele>
        <time>2018-11-10T11:53:26Z</time>
      </trkpt>
      <trkpt lat="59.311265" lon="18.007109">
        <ele>21.7</ele>
        <time>2018-11-10T11:53:27Z</time>
      </trkpt>
      <trkpt lat="59.311264" lon="18.006992">
        <ele>21.7</ele>
        <time>2018-11-10T11:53:28Z</time>
      </trkpt>
      <trkpt lat="59.311292" lon="18.006881">
        <ele>21.7</ele>
        <time>2018-11-10T11:53:29Z</time>
      </trkpt>
      <trkpt lat="59.311319" lon="18.006771">
        <ele>21.7</ele>
        <time>2018-11-10T11:53:30Z</time>
      </trkpt>
      <trkpt lat="59.311349" lon="18.006636">
        <ele>21.6</ele>
        <time>2018-11-10T11:53:31Z</time>
      </trkpt>
      <trkpt lat="59.311376" lon="18.006498">
        <ele>21.5</ele>
        <time>2018-11-10T11:53:32Z</time>
      </trkpt>
      <trkpt lat="59.311413" lon="18.006333">
        <ele>21.4</ele>
        <time>2018-11-10T11:53:33Z</time>
      </trkpt>
      <trkpt lat="59.311448" lon="18.006191">
        <ele>21.3</ele>
        <time>2018-11-10T11:53:34Z</time>
      </trkpt>
      <trkpt lat="59.311487" lon="18.006045">
        <ele>21.1</ele>
        <time>2018-11-10T11:53:35Z</time>
      </trkpt>
      <trkpt lat="59.311524" lon="18.005921">
        <ele>21</ele>
        <time>2018-11-10T11:53:36Z</time>
      </trkpt>
      <trkpt lat="59.311564" lon="18.005808">
        <ele>20.8</ele>
        <time>2018-11-10T11:53:37Z</time>
      </trkpt>
      <trkpt lat="59.311614" lon="18.005688">
        <ele>20.6</ele>
        <time>2018-11-10T11:53:38Z</time>
      </trkpt>
      <trkpt lat="59.311643" lon="18.005563">
        <ele>20.4</ele>
        <time>2018-11-10T11:53:39Z</time>
      </trkpt>
      <trkpt lat="59.311656" lon="18.005424">
        <ele>20.3</ele>
        <time>2018-11-10T11:53:40Z</time>
      </trkpt>
      <trkpt lat="59.311664" lon="18.005277">
        <ele>20</ele>
        <time>2018-11-10T11:53:41Z</time>
      </trkpt>
      <trkpt lat="59.311667" lon="18.005136">
        <ele>19.9</ele>
        <time>2018-11-10T11:53:42Z</time>
      </trkpt>
      <trkpt lat="59.311669" lon="18.004995">
        <ele>19.8</ele>
        <time>2018-11-10T11:53:43Z</time>
      </trkpt>
      <trkpt lat="59.311667" lon="18.004853">
        <ele>19.7</ele>
        <time>2018-11-10T11:53:44Z</time>
      </trkpt>
      <trkpt lat="59.31167" lon="18.004707">
        <ele>19.6</ele>
        <time>2018-11-10T11:53:45Z</time>
      </trkpt>
      <trkpt lat="59.311673" lon="18.00457">
        <ele>19.4</ele>
        <time>2018-11-10T11:53:46Z</time>
      </trkpt>
      <trkpt lat="59.311677" lon="18.004431">
        <ele>19.3</ele>
        <time>2018-11-10T11:53:47Z</time>
      </trkpt>
      <trkpt lat="59.311686" lon="18.004293">
        <ele>19.2</ele>
        <time>2018-11-10T11:53:48Z</time>
      </trkpt>
      <trkpt lat="59.31169" lon="18.004151">
        <ele>19.5</ele>
        <time>2018-11-10T11:53:49Z</time>
      </trkpt>
      <trkpt lat="59.311693" lon="18.004007">
        <ele>19.6</ele>
        <time>2018-11-10T11:53:50Z</time>
      </trkpt>
      <trkpt lat="59.311708" lon="18.00386">
        <ele>19.6</ele>
        <time>2018-11-10T11:53:51Z</time>
      </trkpt>
      <trkpt lat="59.311723" lon="18.003722">
        <ele>19.7</ele>
        <time>2018-11-10T11:53:52Z</time>
      </trkpt>
      <trkpt lat="59.311733" lon="18.003569">
        <ele>19.8</ele>
        <time>2018-11-10T11:53:53Z</time>
      </trkpt>
      <trkpt lat="59.311741" lon="18.003424">
        <ele>20</ele>
        <time>2018-11-10T11:53:54Z</time>
      </trkpt>
      <trkpt lat="59.311739" lon="18.003304">
        <ele>20.1</ele>
        <time>2018-11-10T11:53:55Z</time>
      </trkpt>
      <trkpt lat="59.311745" lon="18.003175">
        <ele>20.3</ele>
        <time>2018-11-10T11:53:56Z</time>
      </trkpt>
      <trkpt lat="59.311737" lon="18.003068">
        <ele>20.4</ele>
        <time>2018-11-10T11:53:57Z</time>
      </trkpt>
      <trkpt lat="59.311731" lon="18.002965">
        <ele>20.6</ele>
        <time>2018-11-10T11:53:58Z</time>
      </trkpt>
      <trkpt lat="59.311719" lon="18.002872">
        <ele>20.7</ele>
        <time>2018-11-10T11:53:59Z</time>
      </trkpt>
      <trkpt lat="59.311723" lon="18.002765">
        <ele>21</ele>
        <time>2018-11-10T11:54:00Z</time>
      </trkpt>
      <trkpt lat="59.311721" lon="18.002663">
        <ele>21.1</ele>
        <time>2018-11-10T11:54:01Z</time>
      </trkpt>
      <trkpt lat="59.311717" lon="18.00256">
        <ele>21.2</ele>
        <time>2018-11-10T11:54:02Z</time>
      </trkpt>
      <trkpt lat="59.311714" lon="18.002462">
        <ele>21.4</ele>
        <time>2018-11-10T11:54:03Z</time>
      </trkpt>
      <trkpt lat="59.311709" lon="18.002359">
        <ele>21.5</ele>
        <time>2018-11-10T11:54:04Z</time>
      </trkpt>
      <trkpt lat="59.311709" lon="18.002227">
        <ele>21.7</ele>
        <time>2018-11-10T11:54:05Z</time>
      </trkpt>
      <trkpt lat="59.31171" lon="18.002125">
        <ele>21.7</ele>
        <time>2018-11-10T11:54:06Z</time>
      </trkpt>
      <trkpt lat="59.311712" lon="18.00202">
        <ele>21.8</ele>
        <time>2018-11-10T11:54:07Z</time>
      </trkpt>
      <trkpt lat="59.311718" lon="18.001917">
        <ele>21.9</ele>
        <time>2018-11-10T11:54:08Z</time>
      </trkpt>
      <trkpt lat="59.311728" lon="18.001815">
        <ele>21.9</ele>
        <time>2018-11-10T11:54:09Z</time>
      </trkpt>
      <trkpt lat="59.311739" lon="18.001713">
        <ele>21.9</ele>
        <time>2018-11-10T11:54:10Z</time>
      </trkpt>
      <trkpt lat="59.311751" lon="18.001613">
        <ele>21.9</ele>
        <time>2018-11-10T11:54:11Z</time>
      </trkpt>
      <trkpt lat="59.311769" lon="18.001516">
        <ele>21.9</ele>
        <time>2018-11-10T11:54:12Z</time>
      </trkpt>
      <trkpt lat="59.31178" lon="18.001403">
        <ele>21.8</ele>
        <time>2018-11-10T11:54:13Z</time>
      </trkpt>
      <trkpt lat="59.311799" lon="18.001299">
        <ele>21.7</ele>
        <time>2018-11-10T11:54:14Z</time>
      </trkpt>
      <trkpt lat="59.311819" lon="18.001192">
        <ele>21.7</ele>
        <time>2018-11-10T11:54:15Z</time>
      </trkpt>
      <trkpt lat="59.31184" lon="18.001078">
        <ele>21.5</ele>
        <time>2018-11-10T11:54:16Z</time>
      </trkpt>
      <trkpt lat="59.311855" lon="18.000961">
        <ele>21.4</ele>
        <time>2018-11-10T11:54:17Z</time>
      </trkpt>
      <trkpt lat="59.311868" lon="18.000832">
        <ele>21.2</ele>
        <time>2018-11-10T11:54:18Z</time>
      </trkpt>
      <trkpt lat="59.31187" lon="18.000706">
        <ele>21</ele>
        <time>2018-11-10T11:54:19Z</time>
      </trkpt>
      <trkpt lat="59.311874" lon="18.000583">
        <ele>20.8</ele>
        <time>2018-11-10T11:54:20Z</time>
      </trkpt>
      <trkpt lat="59.311868" lon="18.000466">
        <ele>20.7</ele>
        <time>2018-11-10T11:54:21Z</time>
      </trkpt>
      <trkpt lat="59.311865" lon="18.000358">
        <ele>20.5</ele>
        <time>2018-11-10T11:54:22Z</time>
      </trkpt>
      <trkpt lat="59.31186" lon="18.000234">
        <ele>20.3</ele>
        <time>2018-11-10T11:54:23Z</time>
      </trkpt>
      <trkpt lat="59.311849" lon="18.000118">
        <ele>20</ele>
        <time>2018-11-10T11:54:24Z</time>
      </trkpt>
      <trkpt lat="59.311845" lon="18.000002">
        <ele>20.1</ele>
        <time>2018-11-10T11:54:25Z</time>
      </trkpt>
      <trkpt lat="59.311834" lon="17.999871">
        <ele>20.1</ele>
        <time>2018-11-10T11:54:26Z</time>
      </trkpt>
      <trkpt lat="59.311819" lon="17.999759">
        <ele>20.1</ele>
        <time>2018-11-10T11:54:27Z</time>
      </trkpt>
      <trkpt lat="59.311804" lon="17.999625">
        <ele>20</ele>
        <time>2018-11-10T11:54:28Z</time>
      </trkpt>
      <trkpt lat="59.311789" lon="17.999506">
        <ele>19.9</ele>
        <time>2018-11-10T11:54:29Z</time>
      </trkpt>
      <trkpt lat="59.311768" lon="17.999384">
        <ele>19.7</ele>
        <time>2018-11-10T11:54:30Z</time>
      </trkpt>
      <trkpt lat="59.311739" lon="17.999279">
        <ele>19.5</ele>
        <time>2018-11-10T11:54:31Z</time>
      </trkpt>
      <trkpt lat="59.311705" lon="17.999146">
        <ele>19.2</ele>
        <time>2018-11-10T11:54:32Z</time>
      </trkpt>
      <trkpt lat="59.311678" lon="17.99901">
        <ele>18.9</ele>
        <time>2018-11-10T11:54:33Z</time>
      </trkpt>
      <trkpt lat="59.311648" lon="17.998905">
        <ele>18.6</ele>
        <time>2018-11-10T11:54:34Z</time>
      </trkpt>
      <trkpt lat="59.311611" lon="17.998803">
        <ele>18.3</ele>
        <time>2018-11-10T11:54:35Z</time>
      </trkpt>
      <trkpt lat="59.31158" lon="17.9987">
        <ele>18</ele>
        <time>2018-11-10T11:54:36Z</time>
      </trkpt>
      <trkpt lat="59.311546" lon="17.998592">
        <ele>17.6</ele>
        <time>2018-11-10T11:54:37Z</time>
      </trkpt>
      <trkpt lat="59.311522" lon="17.998481">
        <ele>17.3</ele>
        <time>2018-11-10T11:54:38Z</time>
      </trkpt>
      <trkpt lat="59.311501" lon="17.998351">
        <ele>17</ele>
        <time>2018-11-10T11:54:39Z</time>
      </trkpt>
      <trkpt lat="59.311485" lon="17.998222">
        <ele>16.9</ele>
        <time>2018-11-10T11:54:40Z</time>
      </trkpt>
      <trkpt lat="59.311469" lon="17.998095">
        <ele>16.9</ele>
        <time>2018-11-10T11:54:41Z</time>
      </trkpt>
      <trkpt lat="59.311453" lon="17.997964">
        <ele>17.2</ele>
        <time>2018-11-10T11:54:42Z</time>
      </trkpt>
      <trkpt lat="59.311437" lon="17.997842">
        <ele>17.5</ele>
        <time>2018-11-10T11:54:43Z</time>
      </trkpt>
      <trkpt lat="59.311428" lon="17.997711">
        <ele>17.7</ele>
        <time>2018-11-10T11:54:44Z</time>
      </trkpt>
      <trkpt lat="59.311437" lon="17.997585">
        <ele>17.9</ele>
        <time>2018-11-10T11:54:45Z</time>
      </trkpt>
      <trkpt lat="59.311457" lon="17.997452">
        <ele>18</ele>
        <time>2018-11-10T11:54:46Z</time>
      </trkpt>
      <trkpt lat="59.311479" lon="17.997328">
        <ele>18.1</ele>
        <time>2018-11-10T11:54:47Z</time>
      </trkpt>
      <trkpt lat="59.311494" lon="17.997191">
        <ele>18.3</ele>
        <time>2018-11-10T11:54:48Z</time>
      </trkpt>
      <trkpt lat="59.311502" lon="17.997065">
        <ele>18.5</ele>
        <time>2018-11-10T11:54:49Z</time>
      </trkpt>
      <trkpt lat="59.311509" lon="17.996942">
        <ele>18.7</ele>
        <time>2018-11-10T11:54:50Z</time>
      </trkpt>
      <trkpt lat="59.311507" lon="17.996807">
        <ele>18.9</ele>
        <time>2018-11-10T11:54:51Z</time>
      </trkpt>
      <trkpt lat="59.311507" lon="17.996676">
        <ele>19.1</ele>
        <time>2018-11-10T11:54:52Z</time>
      </trkpt>
      <trkpt lat="59.31151" lon="17.996555">
        <ele>19.2</ele>
        <time>2018-11-10T11:54:53Z</time>
      </trkpt>
      <trkpt lat="59.311498" lon="17.996425">
        <ele>19.4</ele>
        <time>2018-11-10T11:54:54Z</time>
      </trkpt>
      <trkpt lat="59.311492" lon="17.996302">
        <ele>19.6</ele>
        <time>2018-11-10T11:54:55Z</time>
      </trkpt>
      <trkpt lat="59.311488" lon="17.996184">
        <ele>19.9</ele>
        <time>2018-11-10T11:54:56Z</time>
      </trkpt>
      <trkpt lat="59.311483" lon="17.996072">
        <ele>20.1</ele>
        <time>2018-11-10T11:54:57Z</time>
      </trkpt>
      <trkpt lat="59.311484" lon="17.995945">
        <ele>20.2</ele>
        <time>2018-11-10T11:54:58Z</time>
      </trkpt>
      <trkpt lat="59.311486" lon="17.99583">
        <ele>20.3</ele>
        <time>2018-11-10T11:54:59Z</time>
      </trkpt>
      <trkpt lat="59.311494" lon="17.995716">
        <ele>20.2</ele>
        <time>2018-11-10T11:55:00Z</time>
      </trkpt>
      <trkpt lat="59.311498" lon="17.995599">
        <ele>20.3</ele>
        <time>2018-11-10T11:55:01Z</time>
      </trkpt>
      <trkpt lat="59.311502" lon="17.995481">
        <ele>20.4</ele>
        <time>2018-11-10T11:55:02Z</time>
      </trkpt>
      <trkpt lat="59.311508" lon="17.99537">
        <ele>20.5</ele>
        <time>2018-11-10T11:55:03Z</time>
      </trkpt>
      <trkpt lat="59.311501" lon="17.995259">
        <ele>20.5</ele>
        <time>2018-11-10T11:55:04Z</time>
      </trkpt>
      <trkpt lat="59.311503" lon="17.995142">
        <ele>20.5</ele>
        <time>2018-11-10T11:55:05Z</time>
      </trkpt>
      <trkpt lat="59.311497" lon="17.994313">
        <ele>17.9</ele>
        <time>2018-11-10T11:55:12Z</time>
      </trkpt>
      <trkpt lat="59.311498" lon="17.994192">
        <ele>17.5</ele>
        <time>2018-11-10T11:55:13Z</time>
      </trkpt>
      <trkpt lat="59.311497" lon="17.994058">
        <ele>17.2</ele>
        <time>2018-11-10T11:55:14Z</time>
      </trkpt>
      <trkpt lat="59.311505" lon="17.993914">
        <ele>16.7</ele>
        <time>2018-11-10T11:55:15Z</time>
      </trkpt>
      <trkpt lat="59.311501" lon="17.993793">
        <ele>16.4</ele>
        <time>2018-11-10T11:55:16Z</time>
      </trkpt>
      <trkpt lat="59.311498" lon="17.993673">
        <ele>16.1</ele>
        <time>2018-11-10T11:55:17Z</time>
      </trkpt>
      <trkpt lat="59.311491" lon="17.99355">
        <ele>15.7</ele>
        <time>2018-11-10T11:55:18Z</time>
      </trkpt>
      <trkpt lat="59.311488" lon="17.993436">
        <ele>15.5</ele>
        <time>2018-11-10T11:55:19Z</time>
      </trkpt>
      <trkpt lat="59.311492" lon="17.993328">
        <ele>15.3</ele>
        <time>2018-11-10T11:55:20Z</time>
      </trkpt>
      <trkpt lat="59.3115" lon="17.993214">
        <ele>15</ele>
        <time>2018-11-10T11:55:21Z</time>
      </trkpt>
      <trkpt lat="59.311499" lon="17.993098">
        <ele>14.8</ele>
        <time>2018-11-10T11:55:22Z</time>
      </trkpt>
      <trkpt lat="59.311497" lon="17.992961">
        <ele>14.6</ele>
        <time>2018-11-10T11:55:23Z</time>
      </trkpt>
      <trkpt lat="59.311496" lon="17.992833">
        <ele>14.5</ele>
        <time>2018-11-10T11:55:24Z</time>
      </trkpt>
      <trkpt lat="59.311507" lon="17.992721">
        <ele>14.4</ele>
        <time>2018-11-10T11:55:25Z</time>
      </trkpt>
      <trkpt lat="59.311524" lon="17.992623">
        <ele>14.4</ele>
        <time>2018-11-10T11:55:26Z</time>
      </trkpt>
      <trkpt lat="59.311541" lon="17.992514">
        <ele>14.4</ele>
        <time>2018-11-10T11:55:27Z</time>
      </trkpt>
      <trkpt lat="59.311555" lon="17.99241">
        <ele>14.4</ele>
        <time>2018-11-10T11:55:28Z</time>
      </trkpt>
      <trkpt lat="59.31155" lon="17.9923">
        <ele>14.4</ele>
        <time>2018-11-10T11:55:29Z</time>
      </trkpt>
      <trkpt lat="59.311558" lon="17.992194">
        <ele>14.4</ele>
        <time>2018-11-10T11:55:30Z</time>
      </trkpt>
      <trkpt lat="59.311565" lon="17.992079">
        <ele>14.4</ele>
        <time>2018-11-10T11:55:31Z</time>
      </trkpt>
      <trkpt lat="59.311574" lon="17.991965">
        <ele>14.4</ele>
        <time>2018-11-10T11:55:32Z</time>
      </trkpt>
      <trkpt lat="59.311576" lon="17.99186">
        <ele>14.3</ele>
        <time>2018-11-10T11:55:33Z</time>
      </trkpt>
      <trkpt lat="59.311594" lon="17.991731">
        <ele>14.2</ele>
        <time>2018-11-10T11:55:34Z</time>
      </trkpt>
      <trkpt lat="59.311605" lon="17.991613">
        <ele>14.2</ele>
        <time>2018-11-10T11:55:35Z</time>
      </trkpt>
      <trkpt lat="59.311624" lon="17.991386">
        <ele>14.2</ele>
        <time>2018-11-10T11:55:37Z</time>
      </trkpt>
      <trkpt lat="59.311629" lon="17.991252">
        <ele>14.1</ele>
        <time>2018-11-10T11:55:38Z</time>
      </trkpt>
      <trkpt lat="59.311633" lon="17.991135">
        <ele>14.1</ele>
        <time>2018-11-10T11:55:39Z</time>
      </trkpt>
      <trkpt lat="59.31163" lon="17.99101">
        <ele>14.1</ele>
        <time>2018-11-10T11:55:40Z</time>
      </trkpt>
      <trkpt lat="59.311627" lon="17.990874">
        <ele>14.1</ele>
        <time>2018-11-10T11:55:41Z</time>
      </trkpt>
      <trkpt lat="59.311622" lon="17.990737">
        <ele>13.9</ele>
        <time>2018-11-10T11:55:42Z</time>
      </trkpt>
      <trkpt lat="59.311621" lon="17.990613">
        <ele>14</ele>
        <time>2018-11-10T11:55:43Z</time>
      </trkpt>
      <trkpt lat="59.311624" lon="17.990462">
        <ele>14.2</ele>
        <time>2018-11-10T11:55:44Z</time>
      </trkpt>
      <trkpt lat="59.311619" lon="17.990338">
        <ele>14.1</ele>
        <time>2018-11-10T11:55:45Z</time>
      </trkpt>
      <trkpt lat="59.311618" lon="17.990215">
        <ele>14</ele>
        <time>2018-11-10T11:55:46Z</time>
      </trkpt>
      <trkpt lat="59.311615" lon="17.990089">
        <ele>14</ele>
        <time>2018-11-10T11:55:47Z</time>
      </trkpt>
      <trkpt lat="59.31161" lon="17.989951">
        <ele>14</ele>
        <time>2018-11-10T11:55:48Z</time>
      </trkpt>
      <trkpt lat="59.311596" lon="17.98983">
        <ele>13.9</ele>
        <time>2018-11-10T11:55:49Z</time>
      </trkpt>
      <trkpt lat="59.311592" lon="17.989707">
        <ele>13.9</ele>
        <time>2018-11-10T11:55:50Z</time>
      </trkpt>
      <trkpt lat="59.311582" lon="17.989589">
        <ele>13.8</ele>
        <time>2018-11-10T11:55:51Z</time>
      </trkpt>
      <trkpt lat="59.311577" lon="17.989472">
        <ele>13.8</ele>
        <time>2018-11-10T11:55:52Z</time>
      </trkpt>
      <trkpt lat="59.311565" lon="17.989333">
        <ele>13.7</ele>
        <time>2018-11-10T11:55:53Z</time>
      </trkpt>
      <trkpt lat="59.311555" lon="17.989217">
        <ele>13.7</ele>
        <time>2018-11-10T11:55:54Z</time>
      </trkpt>
      <trkpt lat="59.311546" lon="17.989109">
        <ele>13.6</ele>
        <time>2018-11-10T11:55:55Z</time>
      </trkpt>
      <trkpt lat="59.311534" lon="17.989005">
        <ele>13.6</ele>
        <time>2018-11-10T11:55:56Z</time>
      </trkpt>
      <trkpt lat="59.31151" lon="17.988902">
        <ele>13.4</ele>
        <time>2018-11-10T11:55:57Z</time>
      </trkpt>
      <trkpt lat="59.311474" lon="17.988804">
        <ele>13.4</ele>
        <time>2018-11-10T11:55:58Z</time>
      </trkpt>
      <trkpt lat="59.31143" lon="17.988713">
        <ele>13.4</ele>
        <time>2018-11-10T11:55:59Z</time>
      </trkpt>
      <trkpt lat="59.311381" lon="17.988621">
        <ele>13.3</ele>
        <time>2018-11-10T11:56:00Z</time>
      </trkpt>
      <trkpt lat="59.311337" lon="17.988529">
        <ele>13.2</ele>
        <time>2018-11-10T11:56:01Z</time>
      </trkpt>
      <trkpt lat="59.311294" lon="17.988427">
        <ele>13.1</ele>
        <time>2018-11-10T11:56:02Z</time>
      </trkpt>
      <trkpt lat="59.311246" lon="17.988344">
        <ele>13</ele>
        <time>2018-11-10T11:56:03Z</time>
      </trkpt>
      <trkpt lat="59.311203" lon="17.988247">
        <ele>12.9</ele>
        <time>2018-11-10T11:56:04Z</time>
      </trkpt>
      <trkpt lat="59.311161" lon="17.988154">
        <ele>12.7</ele>
        <time>2018-11-10T11:56:05Z</time>
      </trkpt>
      <trkpt lat="59.311121" lon="17.98806">
        <ele>12.6</ele>
        <time>2018-11-10T11:56:06Z</time>
      </trkpt>
      <trkpt lat="59.311081" lon="17.987962">
        <ele>12.6</ele>
        <time>2018-11-10T11:56:07Z</time>
      </trkpt>
      <trkpt lat="59.311038" lon="17.987861">
        <ele>12.6</ele>
        <time>2018-11-10T11:56:08Z</time>
      </trkpt>
      <trkpt lat="59.310994" lon="17.987757">
        <ele>12.7</ele>
        <time>2018-11-10T11:56:09Z</time>
      </trkpt>
      <trkpt lat="59.310962" lon="17.987675">
        <ele>12.7</ele>
        <time>2018-11-10T11:56:10Z</time>
      </trkpt>
      <trkpt lat="59.310924" lon="17.987594">
        <ele>12.8</ele>
        <time>2018-11-10T11:56:11Z</time>
      </trkpt>
      <trkpt lat="59.31089" lon="17.98753">
        <ele>12.8</ele>
        <time>2018-11-10T11:56:12Z</time>
      </trkpt>
      <trkpt lat="59.310863" lon="17.987455">
        <ele>12.9</ele>
        <time>2018-11-10T11:56:13Z</time>
      </trkpt>
      <trkpt lat="59.310829" lon="17.987393">
        <ele>12.9</ele>
        <time>2018-11-10T11:56:14Z</time>
      </trkpt>
      <trkpt lat="59.310797" lon="17.987338">
        <ele>12.9</ele>
        <time>2018-11-10T11:56:15Z</time>
      </trkpt>
      <trkpt lat="59.310762" lon="17.987279">
        <ele>12.9</ele>
        <time>2018-11-10T11:56:16Z</time>
      </trkpt>
      <trkpt lat="59.310731" lon="17.9872">
        <ele>12.9</ele>
        <time>2018-11-10T11:56:17Z</time>
      </trkpt>
      <trkpt lat="59.310711" lon="17.987114">
        <ele>12.9</ele>
        <time>2018-11-10T11:56:18Z</time>
      </trkpt>
      <trkpt lat="59.310691" lon="17.987017">
        <ele>12.9</ele>
        <time>2018-11-10T11:56:19Z</time>
      </trkpt>
      <trkpt lat="59.310658" lon="17.986908">
        <ele>12.9</ele>
        <time>2018-11-10T11:56:20Z</time>
      </trkpt>
      <trkpt lat="59.310637" lon="17.986799">
        <ele>12.9</ele>
        <time>2018-11-10T11:56:21Z</time>
      </trkpt>
      <trkpt lat="59.310619" lon="17.986692">
        <ele>12.9</ele>
        <time>2018-11-10T11:56:22Z</time>
      </trkpt>
      <trkpt lat="59.31061" lon="17.986559">
        <ele>12.9</ele>
        <time>2018-11-10T11:56:23Z</time>
      </trkpt>
      <trkpt lat="59.310611" lon="17.986459">
        <ele>13</ele>
        <time>2018-11-10T11:56:24Z</time>
      </trkpt>
      <trkpt lat="59.310612" lon="17.986342">
        <ele>13</ele>
        <time>2018-11-10T11:56:25Z</time>
      </trkpt>
      <trkpt lat="59.310615" lon="17.986215">
        <ele>13</ele>
        <time>2018-11-10T11:56:26Z</time>
      </trkpt>
      <trkpt lat="59.310623" lon="17.986103">
        <ele>13</ele>
        <time>2018-11-10T11:56:27Z</time>
      </trkpt>
      <trkpt lat="59.310633" lon="17.985985">
        <ele>13.1</ele>
        <time>2018-11-10T11:56:28Z</time>
      </trkpt>
      <trkpt lat="59.310651" lon="17.985872">
        <ele>13.1</ele>
        <time>2018-11-10T11:56:29Z</time>
      </trkpt>
      <trkpt lat="59.310662" lon="17.985762">
        <ele>13.1</ele>
        <time>2018-11-10T11:56:30Z</time>
      </trkpt>
      <trkpt lat="59.310675" lon="17.985649">
        <ele>13.1</ele>
        <time>2018-11-10T11:56:31Z</time>
      </trkpt>
      <trkpt lat="59.310688" lon="17.985532">
        <ele>13.2</ele>
        <time>2018-11-10T11:56:32Z</time>
      </trkpt>
      <trkpt lat="59.310701" lon="17.985414">
        <ele>13.2</ele>
        <time>2018-11-10T11:56:33Z</time>
      </trkpt>
      <trkpt lat="59.310728" lon="17.985297">
        <ele>13.2</ele>
        <time>2018-11-10T11:56:34Z</time>
      </trkpt>
      <trkpt lat="59.310743" lon="17.985194">
        <ele>13.2</ele>
        <time>2018-11-10T11:56:35Z</time>
      </trkpt>
      <trkpt lat="59.310754" lon="17.98509">
        <ele>13.2</ele>
        <time>2018-11-10T11:56:36Z</time>
      </trkpt>
      <trkpt lat="59.310763" lon="17.984981">
        <ele>13.3</ele>
        <time>2018-11-10T11:56:37Z</time>
      </trkpt>
      <trkpt lat="59.310765" lon="17.984872">
        <ele>13.2</ele>
        <time>2018-11-10T11:56:38Z</time>
      </trkpt>
      <trkpt lat="59.310773" lon="17.984781">
        <ele>13.2</ele>
        <time>2018-11-10T11:56:39Z</time>
      </trkpt>
      <trkpt lat="59.310762" lon="17.984678">
        <ele>13.2</ele>
        <time>2018-11-10T11:56:40Z</time>
      </trkpt>
      <trkpt lat="59.310755" lon="17.984554">
        <ele>13.1</ele>
        <time>2018-11-10T11:56:41Z</time>
      </trkpt>
      <trkpt lat="59.310747" lon="17.984436">
        <ele>13</ele>
        <time>2018-11-10T11:56:42Z</time>
      </trkpt>
      <trkpt lat="59.310728" lon="17.984331">
        <ele>12.9</ele>
        <time>2018-11-10T11:56:43Z</time>
      </trkpt>
      <trkpt lat="59.310699" lon="17.984243">
        <ele>12.8</ele>
        <time>2018-11-10T11:56:44Z</time>
      </trkpt>
      <trkpt lat="59.310662" lon="17.98415">
        <ele>12.7</ele>
        <time>2018-11-10T11:56:45Z</time>
      </trkpt>
      <trkpt lat="59.310627" lon="17.984078">
        <ele>12.7</ele>
        <time>2018-11-10T11:56:46Z</time>
      </trkpt>
      <trkpt lat="59.310587" lon="17.984016">
        <ele>12.7</ele>
        <time>2018-11-10T11:56:47Z</time>
      </trkpt>
      <trkpt lat="59.310547" lon="17.983939">
        <ele>12.7</ele>
        <time>2018-11-10T11:56:48Z</time>
      </trkpt>
      <trkpt lat="59.310496" lon="17.983867">
        <ele>12.7</ele>
        <time>2018-11-10T11:56:49Z</time>
      </trkpt>
      <trkpt lat="59.310465" lon="17.983778">
        <ele>12.7</ele>
        <time>2018-11-10T11:56:50Z</time>
      </trkpt>
      <trkpt lat="59.310431" lon="17.983705">
        <ele>12.7</ele>
        <time>2018-11-10T11:56:51Z</time>
      </trkpt>
      <trkpt lat="59.310394" lon="17.983632">
        <ele>12.7</ele>
        <time>2018-11-10T11:56:52Z</time>
      </trkpt>
      <trkpt lat="59.31036" lon="17.98356">
        <ele>12.7</ele>
        <time>2018-11-10T11:56:53Z</time>
      </trkpt>
      <trkpt lat="59.310325" lon="17.983492">
        <ele>12.7</ele>
        <time>2018-11-10T11:56:54Z</time>
      </trkpt>
      <trkpt lat="59.310288" lon="17.983438">
        <ele>12.7</ele>
        <time>2018-11-10T11:56:55Z</time>
      </trkpt>
      <trkpt lat="59.310254" lon="17.983379">
        <ele>12.7</ele>
        <time>2018-11-10T11:56:56Z</time>
      </trkpt>
      <trkpt lat="59.310212" lon="17.983337">
        <ele>12.8</ele>
        <time>2018-11-10T11:56:57Z</time>
      </trkpt>
      <trkpt lat="59.310178" lon="17.983302">
        <ele>12.8</ele>
        <time>2018-11-10T11:56:58Z</time>
      </trkpt>
      <trkpt lat="59.310144" lon="17.983255">
        <ele>12.8</ele>
        <time>2018-11-10T11:56:59Z</time>
      </trkpt>
      <trkpt lat="59.310101" lon="17.983222">
        <ele>12.8</ele>
        <time>2018-11-10T11:57:00Z</time>
      </trkpt>
      <trkpt lat="59.310067" lon="17.983184">
        <ele>12.8</ele>
        <time>2018-11-10T11:57:01Z</time>
      </trkpt>
      <trkpt lat="59.310024" lon="17.983155">
        <ele>12.8</ele>
        <time>2018-11-10T11:57:02Z</time>
      </trkpt>
      <trkpt lat="59.309982" lon="17.983138">
        <ele>12.8</ele>
        <time>2018-11-10T11:57:03Z</time>
      </trkpt>
      <trkpt lat="59.309946" lon="17.983107">
        <ele>12.4</ele>
        <time>2018-11-10T11:57:04Z</time>
      </trkpt>
      <trkpt lat="59.309917" lon="17.98305">
        <ele>12.1</ele>
        <time>2018-11-10T11:57:05Z</time>
      </trkpt>
      <trkpt lat="59.3099" lon="17.982977">
        <ele>11.9</ele>
        <time>2018-11-10T11:57:06Z</time>
      </trkpt>
      <trkpt lat="59.30989" lon="17.982901">
        <ele>11.7</ele>
        <time>2018-11-10T11:57:07Z</time>
      </trkpt>
      <trkpt lat="59.309892" lon="17.982837">
        <ele>11.6</ele>
        <time>2018-11-10T11:57:08Z</time>
      </trkpt>
      <trkpt lat="59.309891" lon="17.982774">
        <ele>11.5</ele>
        <time>2018-11-10T11:57:09Z</time>
      </trkpt>
      <trkpt lat="59.309887" lon="17.98271">
        <ele>11.3</ele>
        <time>2018-11-10T11:57:10Z</time>
      </trkpt>
      <trkpt lat="59.309878" lon="17.982652">
        <ele>11.2</ele>
        <time>2018-11-10T11:57:11Z</time>
      </trkpt>
      <trkpt lat="59.309865" lon="17.982602">
        <ele>11.1</ele>
        <time>2018-11-10T11:57:12Z</time>
      </trkpt>
      <trkpt lat="59.309832" lon="17.982522">
        <ele>10.8</ele>
        <time>2018-11-10T11:57:14Z</time>
      </trkpt>
      <trkpt lat="59.309799" lon="17.982457">
        <ele>10.6</ele>
        <time>2018-11-10T11:57:16Z</time>
      </trkpt>
      <trkpt lat="59.309755" lon="17.982425">
        <ele>10.5</ele>
        <time>2018-11-10T11:57:18Z</time>
      </trkpt>
      <trkpt lat="59.309729" lon="17.98244">
        <ele>10.5</ele>
        <time>2018-11-10T11:57:19Z</time>
      </trkpt>
      <trkpt lat="59.309703" lon="17.982475">
        <ele>10.5</ele>
        <time>2018-11-10T11:57:20Z</time>
      </trkpt>
      <trkpt lat="59.309681" lon="17.982524">
        <ele>10.5</ele>
        <time>2018-11-10T11:57:21Z</time>
      </trkpt>
      <trkpt lat="59.309658" lon="17.982573">
        <ele>10.4</ele>
        <time>2018-11-10T11:57:22Z</time>
      </trkpt>
      <trkpt lat="59.309635" lon="17.98261">
        <ele>10.4</ele>
        <time>2018-11-10T11:57:23Z</time>
      </trkpt>
      <trkpt lat="59.30959" lon="17.982636">
        <ele>10.4</ele>
        <time>2018-11-10T11:57:25Z</time>
      </trkpt>
      <trkpt lat="59.309539" lon="17.982599">
        <ele>10.3</ele>
        <time>2018-11-10T11:57:27Z</time>
      </trkpt>
      <trkpt lat="59.309513" lon="17.982574">
        <ele>10.3</ele>
        <time>2018-11-10T11:57:28Z</time>
      </trkpt>
      <trkpt lat="59.309463" lon="17.982564">
        <ele>10.2</ele>
        <time>2018-11-10T11:57:30Z</time>
      </trkpt>
      <trkpt lat="59.309413" lon="17.982602">
        <ele>10.2</ele>
        <time>2018-11-10T11:57:32Z</time>
      </trkpt>
      <trkpt lat="59.309388" lon="17.982627">
        <ele>10.2</ele>
        <time>2018-11-10T11:57:33Z</time>
      </trkpt>
      <trkpt lat="59.309361" lon="17.982656">
        <ele>10.2</ele>
        <time>2018-11-10T11:57:34Z</time>
      </trkpt>
      <trkpt lat="59.309331" lon="17.982682">
        <ele>10.1</ele>
        <time>2018-11-10T11:57:35Z</time>
      </trkpt>
      <trkpt lat="59.3093" lon="17.982706">
        <ele>10.1</ele>
        <time>2018-11-10T11:57:36Z</time>
      </trkpt>
      <trkpt lat="59.309269" lon="17.98273">
        <ele>10.1</ele>
        <time>2018-11-10T11:57:37Z</time>
      </trkpt>
      <trkpt lat="59.309239" lon="17.982754">
        <ele>10.1</ele>
        <time>2018-11-10T11:57:38Z</time>
      </trkpt>
      <trkpt lat="59.309212" lon="17.982777">
        <ele>10</ele>
        <time>2018-11-10T11:57:39Z</time>
      </trkpt>
      <trkpt lat="59.309185" lon="17.982792">
        <ele>10</ele>
        <time>2018-11-10T11:57:40Z</time>
      </trkpt>
      <trkpt lat="59.309136" lon="17.982815">
        <ele>10</ele>
        <time>2018-11-10T11:57:42Z</time>
      </trkpt>
      <trkpt lat="59.309087" lon="17.982861">
        <ele>10</ele>
        <time>2018-11-10T11:57:44Z</time>
      </trkpt>
      <trkpt lat="59.30906" lon="17.982881">
        <ele>10</ele>
        <time>2018-11-10T11:57:45Z</time>
      </trkpt>
      <trkpt lat="59.309014" lon="17.982884">
        <ele>10</ele>
        <time>2018-11-10T11:57:47Z</time>
      </trkpt>
      <trkpt lat="59.308968" lon="17.98285">
        <ele>10</ele>
        <time>2018-11-10T11:57:49Z</time>
      </trkpt>
      <trkpt lat="59.308916" lon="17.982831">
        <ele>10</ele>
        <time>2018-11-10T11:57:51Z</time>
      </trkpt>
      <trkpt lat="59.308887" lon="17.982829">
        <ele>10</ele>
        <time>2018-11-10T11:57:52Z</time>
      </trkpt>
      <trkpt lat="59.308856" lon="17.982828">
        <ele>10</ele>
        <time>2018-11-10T11:57:53Z</time>
      </trkpt>
      <trkpt lat="59.308825" lon="17.982825">
        <ele>10.1</ele>
        <time>2018-11-10T11:57:54Z</time>
      </trkpt>
      <trkpt lat="59.308776" lon="17.982822">
        <ele>10.1</ele>
        <time>2018-11-10T11:57:56Z</time>
      </trkpt>
      <trkpt lat="59.308745" lon="17.982826">
        <ele>10.1</ele>
        <time>2018-11-10T11:57:58Z</time>
      </trkpt>
      <trkpt lat="59.308719" lon="17.982845">
        <ele>10.1</ele>
        <time>2018-11-10T11:58:00Z</time>
      </trkpt>
      <trkpt lat="59.308675" lon="17.982813">
        <ele>10.2</ele>
        <time>2018-11-10T11:58:02Z</time>
      </trkpt>
      <trkpt lat="59.30865" lon="17.982779">
        <ele>10.1</ele>
        <time>2018-11-10T11:58:03Z</time>
      </trkpt>
      <trkpt lat="59.30862" lon="17.982731">
        <ele>10.1</ele>
        <time>2018-11-10T11:58:04Z</time>
      </trkpt>
      <trkpt lat="59.308587" lon="17.982676">
        <ele>10</ele>
        <time>2018-11-10T11:58:05Z</time>
      </trkpt>
      <trkpt lat="59.30855" lon="17.98258">
        <ele>9.8</ele>
        <time>2018-11-10T11:58:06Z</time>
      </trkpt>
      <trkpt lat="59.308517" lon="17.982505">
        <ele>9.7</ele>
        <time>2018-11-10T11:58:07Z</time>
      </trkpt>
      <trkpt lat="59.30848" lon="17.982449">
        <ele>9.6</ele>
        <time>2018-11-10T11:58:08Z</time>
      </trkpt>
      <trkpt lat="59.308445" lon="17.982367">
        <ele>9.4</ele>
        <time>2018-11-10T11:58:09Z</time>
      </trkpt>
      <trkpt lat="59.308423" lon="17.982273">
        <ele>9.2</ele>
        <time>2018-11-10T11:58:10Z</time>
      </trkpt>
      <trkpt lat="59.308408" lon="17.982181">
        <ele>8.9</ele>
        <time>2018-11-10T11:58:11Z</time>
      </trkpt>
      <trkpt lat="59.308394" lon="17.982088">
        <ele>8.7</ele>
        <time>2018-11-10T11:58:12Z</time>
      </trkpt>
      <trkpt lat="59.308392" lon="17.981989">
        <ele>8.4</ele>
        <time>2018-11-10T11:58:13Z</time>
      </trkpt>
      <trkpt lat="59.308408" lon="17.981896">
        <ele>8.1</ele>
        <time>2018-11-10T11:58:14Z</time>
      </trkpt>
      <trkpt lat="59.308444" lon="17.981825">
        <ele>7.8</ele>
        <time>2018-11-10T11:58:15Z</time>
      </trkpt>
      <trkpt lat="59.308479" lon="17.981747">
        <ele>7.6</ele>
        <time>2018-11-10T11:58:16Z</time>
      </trkpt>
      <trkpt lat="59.308515" lon="17.981661">
        <ele>7.4</ele>
        <time>2018-11-10T11:58:17Z</time>
      </trkpt>
      <trkpt lat="59.308555" lon="17.981571">
        <ele>7.7</ele>
        <time>2018-11-10T11:58:18Z</time>
      </trkpt>
      <trkpt lat="59.308589" lon="17.981476">
        <ele>7.8</ele>
        <time>2018-11-10T11:58:19Z</time>
      </trkpt>
      <trkpt lat="59.308625" lon="17.981374">
        <ele>7.9</ele>
        <time>2018-11-10T11:58:20Z</time>
      </trkpt>
      <trkpt lat="59.308652" lon="17.981272">
        <ele>8</ele>
        <time>2018-11-10T11:58:21Z</time>
      </trkpt>
      <trkpt lat="59.308677" lon="17.981163">
        <ele>8.1</ele>
        <time>2018-11-10T11:58:22Z</time>
      </trkpt>
      <trkpt lat="59.308689" lon="17.981067">
        <ele>8</ele>
        <time>2018-11-10T11:58:23Z</time>
      </trkpt>
      <trkpt lat="59.308698" lon="17.980963">
        <ele>8</ele>
        <time>2018-11-10T11:58:24Z</time>
      </trkpt>
      <trkpt lat="59.308718" lon="17.980833">
        <ele>7.8</ele>
        <time>2018-11-10T11:58:25Z</time>
      </trkpt>
      <trkpt lat="59.308733" lon="17.980724">
        <ele>7.7</ele>
        <time>2018-11-10T11:58:26Z</time>
      </trkpt>
      <trkpt lat="59.308747" lon="17.980621">
        <ele>7.7</ele>
        <time>2018-11-10T11:58:27Z</time>
      </trkpt>
      <trkpt lat="59.308758" lon="17.980517">
        <ele>7.7</ele>
        <time>2018-11-10T11:58:28Z</time>
      </trkpt>
      <trkpt lat="59.308772" lon="17.980413">
        <ele>7.7</ele>
        <time>2018-11-10T11:58:29Z</time>
      </trkpt>
      <trkpt lat="59.308784" lon="17.980313">
        <ele>7.7</ele>
        <time>2018-11-10T11:58:30Z</time>
      </trkpt>
      <trkpt lat="59.308787" lon="17.980217">
        <ele>7.8</ele>
        <time>2018-11-10T11:58:31Z</time>
      </trkpt>
      <trkpt lat="59.308798" lon="17.98011">
        <ele>7.8</ele>
        <time>2018-11-10T11:58:32Z</time>
      </trkpt>
      <trkpt lat="59.308802" lon="17.979996">
        <ele>7.7</ele>
        <time>2018-11-10T11:58:33Z</time>
      </trkpt>
      <trkpt lat="59.308809" lon="17.979891">
        <ele>7.7</ele>
        <time>2018-11-10T11:58:34Z</time>
      </trkpt>
      <trkpt lat="59.308811" lon="17.979762">
        <ele>7.6</ele>
        <time>2018-11-10T11:58:35Z</time>
      </trkpt>
      <trkpt lat="59.308812" lon="17.979655">
        <ele>7.6</ele>
        <time>2018-11-10T11:58:36Z</time>
      </trkpt>
      <trkpt lat="59.30881" lon="17.979535">
        <ele>7.4</ele>
        <time>2018-11-10T11:58:37Z</time>
      </trkpt>
      <trkpt lat="59.308798" lon="17.979425">
        <ele>7.3</ele>
        <time>2018-11-10T11:58:38Z</time>
      </trkpt>
      <trkpt lat="59.308761" lon="17.97933">
        <ele>7.2</ele>
        <time>2018-11-10T11:58:39Z</time>
      </trkpt>
      <trkpt lat="59.308715" lon="17.979234">
        <ele>7</ele>
        <time>2018-11-10T11:58:40Z</time>
      </trkpt>
      <trkpt lat="59.308668" lon="17.979147">
        <ele>6.8</ele>
        <time>2018-11-10T11:58:41Z</time>
      </trkpt>
      <trkpt lat="59.308631" lon="17.979047">
        <ele>6.6</ele>
        <time>2018-11-10T11:58:42Z</time>
      </trkpt>
      <trkpt lat="59.308584" lon="17.978965">
        <ele>6.5</ele>
        <time>2018-11-10T11:58:43Z</time>
      </trkpt>
      <trkpt lat="59.308535" lon="17.978875">
        <ele>6.4</ele>
        <time>2018-11-10T11:58:44Z</time>
      </trkpt>
      <trkpt lat="59.308486" lon="17.978783">
        <ele>6.3</ele>
        <time>2018-11-10T11:58:45Z</time>
      </trkpt>
      <trkpt lat="59.308437" lon="17.978703">
        <ele>6.3</ele>
        <time>2018-11-10T11:58:46Z</time>
      </trkpt>
      <trkpt lat="59.308393" lon="17.97861">
        <ele>6.3</ele>
        <time>2018-11-10T11:58:47Z</time>
      </trkpt>
      <trkpt lat="59.30834" lon="17.978525">
        <ele>6.3</ele>
        <time>2018-11-10T11:58:48Z</time>
      </trkpt>
      <trkpt lat="59.3083" lon="17.978439">
        <ele>6.3</ele>
        <time>2018-11-10T11:58:49Z</time>
      </trkpt>
      <trkpt lat="59.308252" lon="17.978369">
        <ele>6.2</ele>
        <time>2018-11-10T11:58:50Z</time>
      </trkpt>
      <trkpt lat="59.308203" lon="17.978286">
        <ele>6.2</ele>
        <time>2018-11-10T11:58:51Z</time>
      </trkpt>
      <trkpt lat="59.308156" lon="17.978214">
        <ele>6.1</ele>
        <time>2018-11-10T11:58:52Z</time>
      </trkpt>
      <trkpt lat="59.308106" lon="17.978129">
        <ele>6</ele>
        <time>2018-11-10T11:58:53Z</time>
      </trkpt>
      <trkpt lat="59.30806" lon="17.97804">
        <ele>5.9</ele>
        <time>2018-11-10T11:58:54Z</time>
      </trkpt>
      <trkpt lat="59.308011" lon="17.977946">
        <ele>5.8</ele>
        <time>2018-11-10T11:58:55Z</time>
      </trkpt>
      <trkpt lat="59.307967" lon="17.977867">
        <ele>5.8</ele>
        <time>2018-11-10T11:58:56Z</time>
      </trkpt>
      <trkpt lat="59.307913" lon="17.977779">
        <ele>5.9</ele>
        <time>2018-11-10T11:58:57Z</time>
      </trkpt>
      <trkpt lat="59.307867" lon="17.977708">
        <ele>5.9</ele>
        <time>2018-11-10T11:58:58Z</time>
      </trkpt>
      <trkpt lat="59.307812" lon="17.97763">
        <ele>6</ele>
        <time>2018-11-10T11:58:59Z</time>
      </trkpt>
      <trkpt lat="59.307766" lon="17.977551">
        <ele>6.1</ele>
        <time>2018-11-10T11:59:00Z</time>
      </trkpt>
      <trkpt lat="59.307718" lon="17.97747">
        <ele>6.1</ele>
        <time>2018-11-10T11:59:01Z</time>
      </trkpt>
      <trkpt lat="59.307682" lon="17.977377">
        <ele>6.2</ele>
        <time>2018-11-10T11:59:02Z</time>
      </trkpt>
      <trkpt lat="59.307655" lon="17.977278">
        <ele>6.2</ele>
        <time>2018-11-10T11:59:03Z</time>
      </trkpt>
      <trkpt lat="59.307646" lon="17.977147">
        <ele>6.3</ele>
        <time>2018-11-10T11:59:04Z</time>
      </trkpt>
      <trkpt lat="59.307647" lon="17.97702">
        <ele>6.3</ele>
        <time>2018-11-10T11:59:05Z</time>
      </trkpt>
      <trkpt lat="59.307665" lon="17.976894">
        <ele>6.4</ele>
        <time>2018-11-10T11:59:06Z</time>
      </trkpt>
      <trkpt lat="59.307691" lon="17.976788">
        <ele>6.4</ele>
        <time>2018-11-10T11:59:07Z</time>
      </trkpt>
      <trkpt lat="59.307713" lon="17.976677">
        <ele>6.4</ele>
        <time>2018-11-10T11:59:08Z</time>
      </trkpt>
      <trkpt lat="59.307728" lon="17.976556">
        <ele>6.5</ele>
        <time>2018-11-10T11:59:09Z</time>
      </trkpt>
      <trkpt lat="59.307736" lon="17.976453">
        <ele>6.5</ele>
        <time>2018-11-10T11:59:10Z</time>
      </trkpt>
      <trkpt lat="59.307749" lon="17.976351">
        <ele>6.4</ele>
        <time>2018-11-10T11:59:11Z</time>
      </trkpt>
      <trkpt lat="59.30776" lon="17.976256">
        <ele>6.4</ele>
        <time>2018-11-10T11:59:12Z</time>
      </trkpt>
      <trkpt lat="59.307768" lon="17.976163">
        <ele>6.4</ele>
        <time>2018-11-10T11:59:13Z</time>
      </trkpt>
      <trkpt lat="59.30777" lon="17.976072">
        <ele>6.4</ele>
        <time>2018-11-10T11:59:14Z</time>
      </trkpt>
      <trkpt lat="59.307769" lon="17.975993">
        <ele>6.3</ele>
        <time>2018-11-10T11:59:15Z</time>
      </trkpt>
      <trkpt lat="59.307761" lon="17.975909">
        <ele>6.3</ele>
        <time>2018-11-10T11:59:16Z</time>
      </trkpt>
      <trkpt lat="59.307755" lon="17.975825">
        <ele>6.3</ele>
        <time>2018-11-10T11:59:17Z</time>
      </trkpt>
      <trkpt lat="59.307748" lon="17.975732">
        <ele>6.2</ele>
        <time>2018-11-10T11:59:18Z</time>
      </trkpt>
      <trkpt lat="59.307741" lon="17.975634">
        <ele>6.2</ele>
        <time>2018-11-10T11:59:19Z</time>
      </trkpt>
      <trkpt lat="59.307734" lon="17.975536">
        <ele>6.2</ele>
        <time>2018-11-10T11:59:20Z</time>
      </trkpt>
      <trkpt lat="59.307728" lon="17.975429">
        <ele>6.3</ele>
        <time>2018-11-10T11:59:21Z</time>
      </trkpt>
      <trkpt lat="59.307719" lon="17.975326">
        <ele>6.3</ele>
        <time>2018-11-10T11:59:22Z</time>
      </trkpt>
      <trkpt lat="59.307717" lon="17.975217">
        <ele>6.3</ele>
        <time>2018-11-10T11:59:23Z</time>
      </trkpt>
      <trkpt lat="59.307715" lon="17.975104">
        <ele>6.3</ele>
        <time>2018-11-10T11:59:24Z</time>
      </trkpt>
      <trkpt lat="59.307712" lon="17.97499">
        <ele>6.3</ele>
        <time>2018-11-10T11:59:25Z</time>
      </trkpt>
      <trkpt lat="59.307713" lon="17.974874">
        <ele>6.4</ele>
        <time>2018-11-10T11:59:26Z</time>
      </trkpt>
      <trkpt lat="59.307713" lon="17.974756">
        <ele>6.4</ele>
        <time>2018-11-10T11:59:27Z</time>
      </trkpt>
      <trkpt lat="59.307713" lon="17.974643">
        <ele>6.5</ele>
        <time>2018-11-10T11:59:28Z</time>
      </trkpt>
      <trkpt lat="59.307714" lon="17.974526">
        <ele>6.6</ele>
        <time>2018-11-10T11:59:29Z</time>
      </trkpt>
      <trkpt lat="59.30772" lon="17.974405">
        <ele>6.7</ele>
        <time>2018-11-10T11:59:30Z</time>
      </trkpt>
      <trkpt lat="59.307719" lon="17.97429">
        <ele>6.8</ele>
        <time>2018-11-10T11:59:31Z</time>
      </trkpt>
      <trkpt lat="59.307717" lon="17.974165">
        <ele>6.9</ele>
        <time>2018-11-10T11:59:32Z</time>
      </trkpt>
      <trkpt lat="59.307712" lon="17.97405">
        <ele>7.1</ele>
        <time>2018-11-10T11:59:33Z</time>
      </trkpt>
      <trkpt lat="59.307704" lon="17.973931">
        <ele>7.2</ele>
        <time>2018-11-10T11:59:34Z</time>
      </trkpt>
      <trkpt lat="59.307696" lon="17.973817">
        <ele>7.4</ele>
        <time>2018-11-10T11:59:35Z</time>
      </trkpt>
      <trkpt lat="59.307692" lon="17.973702">
        <ele>7.5</ele>
        <time>2018-11-10T11:59:36Z</time>
      </trkpt>
      <trkpt lat="59.307689" lon="17.97359">
        <ele>7.7</ele>
        <time>2018-11-10T11:59:37Z</time>
      </trkpt>
      <trkpt lat="59.30768" lon="17.97348">
        <ele>8</ele>
        <time>2018-11-10T11:59:38Z</time>
      </trkpt>
      <trkpt lat="59.30766" lon="17.973385">
        <ele>8.2</ele>
        <time>2018-11-10T11:59:39Z</time>
      </trkpt>
      <trkpt lat="59.307638" lon="17.973288">
        <ele>8.4</ele>
        <time>2018-11-10T11:59:40Z</time>
      </trkpt>
      <trkpt lat="59.307618" lon="17.973181">
        <ele>8.6</ele>
        <time>2018-11-10T11:59:41Z</time>
      </trkpt>
      <trkpt lat="59.307604" lon="17.973079">
        <ele>8.9</ele>
        <time>2018-11-10T11:59:42Z</time>
      </trkpt>
      <trkpt lat="59.30759" lon="17.97298">
        <ele>9.2</ele>
        <time>2018-11-10T11:59:43Z</time>
      </trkpt>
      <trkpt lat="59.307584" lon="17.972895">
        <ele>9.5</ele>
        <time>2018-11-10T11:59:44Z</time>
      </trkpt>
      <trkpt lat="59.307585" lon="17.972823">
        <ele>9.6</ele>
        <time>2018-11-10T11:59:45Z</time>
      </trkpt>
      <trkpt lat="59.307628" lon="17.972759">
        <ele>9.6</ele>
        <time>2018-11-10T11:59:47Z</time>
      </trkpt>
      <trkpt lat="59.307662" lon="17.972754">
        <ele>9.6</ele>
        <time>2018-11-10T11:59:48Z</time>
      </trkpt>
      <trkpt lat="59.307692" lon="17.972755">
        <ele>9.6</ele>
        <time>2018-11-10T11:59:49Z</time>
      </trkpt>
      <trkpt lat="59.307721" lon="17.97273">
        <ele>9.6</ele>
        <time>2018-11-10T11:59:50Z</time>
      </trkpt>
      <trkpt lat="59.307752" lon="17.972685">
        <ele>9.6</ele>
        <time>2018-11-10T11:59:51Z</time>
      </trkpt>
      <trkpt lat="59.307785" lon="17.972625">
        <ele>9.6</ele>
        <time>2018-11-10T11:59:52Z</time>
      </trkpt>
      <trkpt lat="59.307815" lon="17.972573">
        <ele>9.6</ele>
        <time>2018-11-10T11:59:53Z</time>
      </trkpt>
      <trkpt lat="59.307838" lon="17.972503">
        <ele>9.6</ele>
        <time>2018-11-10T11:59:54Z</time>
      </trkpt>
      <trkpt lat="59.307866" lon="17.972426">
        <ele>9.6</ele>
        <time>2018-11-10T11:59:55Z</time>
      </trkpt>
      <trkpt lat="59.307892" lon="17.972357">
        <ele>9.6</ele>
        <time>2018-11-10T11:59:56Z</time>
      </trkpt>
      <trkpt lat="59.30792" lon="17.972274">
        <ele>9.5</ele>
        <time>2018-11-10T11:59:57Z</time>
      </trkpt>
      <trkpt lat="59.307953" lon="17.972192">
        <ele>9.5</ele>
        <time>2018-11-10T11:59:58Z</time>
      </trkpt>
      <trkpt lat="59.307986" lon="17.972086">
        <ele>9.5</ele>
        <time>2018-11-10T11:59:59Z</time>
      </trkpt>
      <trkpt lat="59.308024" lon="17.972018">
        <ele>9.5</ele>
        <time>2018-11-10T12:00:00Z</time>
      </trkpt>
      <trkpt lat="59.308057" lon="17.971936">
        <ele>9.4</ele>
        <time>2018-11-10T12:00:01Z</time>
      </trkpt>
      <trkpt lat="59.308086" lon="17.971877">
        <ele>9.4</ele>
        <time>2018-11-10T12:00:02Z</time>
      </trkpt>
      <trkpt lat="59.308133" lon="17.971762">
        <ele>9.4</ele>
        <time>2018-11-10T12:00:03Z</time>
      </trkpt>
      <trkpt lat="59.308162" lon="17.971716">
        <ele>9.4</ele>
        <time>2018-11-10T12:00:04Z</time>
      </trkpt>
      <trkpt lat="59.30819" lon="17.971662">
        <ele>9.3</ele>
        <time>2018-11-10T12:00:05Z</time>
      </trkpt>
      <trkpt lat="59.308214" lon="17.971596">
        <ele>9.3</ele>
        <time>2018-11-10T12:00:06Z</time>
      </trkpt>
      <trkpt lat="59.308241" lon="17.971547">
        <ele>9.3</ele>
        <time>2018-11-10T12:00:07Z</time>
      </trkpt>
      <trkpt lat="59.308264" lon="17.97148">
        <ele>9.3</ele>
        <time>2018-11-10T12:00:08Z</time>
      </trkpt>
      <trkpt lat="59.308288" lon="17.971416">
        <ele>9.3</ele>
        <time>2018-11-10T12:00:09Z</time>
      </trkpt>
      <trkpt lat="59.308309" lon="17.971342">
        <ele>9.2</ele>
        <time>2018-11-10T12:00:10Z</time>
      </trkpt>
      <trkpt lat="59.308329" lon="17.971263">
        <ele>9.2</ele>
        <time>2018-11-10T12:00:11Z</time>
      </trkpt>
      <trkpt lat="59.308342" lon="17.971183">
        <ele>9.2</ele>
        <time>2018-11-10T12:00:12Z</time>
      </trkpt>
      <trkpt lat="59.308362" lon="17.971103">
        <ele>9.2</ele>
        <time>2018-11-10T12:00:13Z</time>
      </trkpt>
      <trkpt lat="59.308371" lon="17.971017">
        <ele>9.2</ele>
        <time>2018-11-10T12:00:14Z</time>
      </trkpt>
      <trkpt lat="59.308378" lon="17.970934">
        <ele>9.2</ele>
        <time>2018-11-10T12:00:15Z</time>
      </trkpt>
      <trkpt lat="59.308381" lon="17.970869">
        <ele>9.2</ele>
        <time>2018-11-10T12:00:16Z</time>
      </trkpt>
      <trkpt lat="59.308368" lon="17.970806">
        <ele>9.2</ele>
        <time>2018-11-10T12:00:17Z</time>
      </trkpt>
      <trkpt lat="59.308351" lon="17.970745">
        <ele>9.2</ele>
        <time>2018-11-10T12:00:18Z</time>
      </trkpt>
      <trkpt lat="59.308319" lon="17.970685">
        <ele>9.3</ele>
        <time>2018-11-10T12:00:19Z</time>
      </trkpt>
      <trkpt lat="59.308295" lon="17.970616">
        <ele>9.3</ele>
        <time>2018-11-10T12:00:20Z</time>
      </trkpt>
      <trkpt lat="59.308279" lon="17.97054">
        <ele>9.3</ele>
        <time>2018-11-10T12:00:21Z</time>
      </trkpt>
      <trkpt lat="59.30829" lon="17.970443">
        <ele>9.4</ele>
        <time>2018-11-10T12:00:22Z</time>
      </trkpt>
      <trkpt lat="59.308315" lon="17.970362">
        <ele>9.4</ele>
        <time>2018-11-10T12:00:23Z</time>
      </trkpt>
      <trkpt lat="59.308352" lon="17.970307">
        <ele>9.4</ele>
        <time>2018-11-10T12:00:24Z</time>
      </trkpt>
      <trkpt lat="59.308384" lon="17.970268">
        <ele>9.5</ele>
        <time>2018-11-10T12:00:25Z</time>
      </trkpt>
      <trkpt lat="59.308423" lon="17.970212">
        <ele>9.5</ele>
        <time>2018-11-10T12:00:26Z</time>
      </trkpt>
      <trkpt lat="59.308456" lon="17.970153">
        <ele>10.6</ele>
        <time>2018-11-10T12:00:27Z</time>
      </trkpt>
      <trkpt lat="59.308452" lon="17.97009">
        <ele>11.2</ele>
        <time>2018-11-10T12:00:28Z</time>
      </trkpt>
      <trkpt lat="59.308451" lon="17.970023">
        <ele>11.8</ele>
        <time>2018-11-10T12:00:29Z</time>
      </trkpt>
      <trkpt lat="59.308418" lon="17.969989">
        <ele>12.5</ele>
        <time>2018-11-10T12:00:30Z</time>
      </trkpt>
      <trkpt lat="59.308392" lon="17.969922">
        <ele>13.2</ele>
        <time>2018-11-10T12:00:32Z</time>
      </trkpt>
      <trkpt lat="59.308391" lon="17.969867">
        <ele>13.6</ele>
        <time>2018-11-10T12:00:33Z</time>
      </trkpt>
      <trkpt lat="59.308376" lon="17.969783">
        <ele>14.3</ele>
        <time>2018-11-10T12:00:35Z</time>
      </trkpt>
      <trkpt lat="59.308357" lon="17.969744">
        <ele>14.7</ele>
        <time>2018-11-10T12:00:36Z</time>
      </trkpt>
      <trkpt lat="59.308317" lon="17.969682">
        <ele>15.3</ele>
        <time>2018-11-10T12:00:38Z</time>
      </trkpt>
      <trkpt lat="59.308294" lon="17.969656">
        <ele>15.6</ele>
        <time>2018-11-10T12:00:39Z</time>
      </trkpt>
      <trkpt lat="59.30827" lon="17.969616">
        <ele>16</ele>
        <time>2018-11-10T12:00:40Z</time>
      </trkpt>
      <trkpt lat="59.308244" lon="17.969574">
        <ele>16.5</ele>
        <time>2018-11-10T12:00:41Z</time>
      </trkpt>
      <trkpt lat="59.308225" lon="17.969534">
        <ele>16.9</ele>
        <time>2018-11-10T12:00:42Z</time>
      </trkpt>
      <trkpt lat="59.308206" lon="17.969494">
        <ele>17.3</ele>
        <time>2018-11-10T12:00:43Z</time>
      </trkpt>
      <trkpt lat="59.308186" lon="17.969451">
        <ele>17.7</ele>
        <time>2018-11-10T12:00:44Z</time>
      </trkpt>
      <trkpt lat="59.308168" lon="17.969407">
        <ele>18</ele>
        <time>2018-11-10T12:00:45Z</time>
      </trkpt>
      <trkpt lat="59.308148" lon="17.969368">
        <ele>18.4</ele>
        <time>2018-11-10T12:00:46Z</time>
      </trkpt>
      <trkpt lat="59.308123" lon="17.969336">
        <ele>18.7</ele>
        <time>2018-11-10T12:00:47Z</time>
      </trkpt>
      <trkpt lat="59.308094" lon="17.969314">
        <ele>19</ele>
        <time>2018-11-10T12:00:48Z</time>
      </trkpt>
      <trkpt lat="59.308061" lon="17.969299">
        <ele>19.3</ele>
        <time>2018-11-10T12:00:49Z</time>
      </trkpt>
      <trkpt lat="59.30803" lon="17.969279">
        <ele>19.5</ele>
        <time>2018-11-10T12:00:50Z</time>
      </trkpt>
      <trkpt lat="59.307999" lon="17.969257">
        <ele>19.8</ele>
        <time>2018-11-10T12:00:51Z</time>
      </trkpt>
      <trkpt lat="59.307971" lon="17.969227">
        <ele>20</ele>
        <time>2018-11-10T12:00:52Z</time>
      </trkpt>
      <trkpt lat="59.307945" lon="17.969186">
        <ele>20.2</ele>
        <time>2018-11-10T12:00:53Z</time>
      </trkpt>
      <trkpt lat="59.307923" lon="17.969133">
        <ele>20.6</ele>
        <time>2018-11-10T12:00:54Z</time>
      </trkpt>
      <trkpt lat="59.307906" lon="17.969072">
        <ele>20.6</ele>
        <time>2018-11-10T12:00:55Z</time>
      </trkpt>
      <trkpt lat="59.307901" lon="17.969004">
        <ele>20.6</ele>
        <time>2018-11-10T12:00:56Z</time>
      </trkpt>
      <trkpt lat="59.307908" lon="17.968931">
        <ele>20.7</ele>
        <time>2018-11-10T12:00:57Z</time>
      </trkpt>
      <trkpt lat="59.307923" lon="17.968863">
        <ele>20.7</ele>
        <time>2018-11-10T12:00:58Z</time>
      </trkpt>
      <trkpt lat="59.307943" lon="17.968805">
        <ele>20.8</ele>
        <time>2018-11-10T12:00:59Z</time>
      </trkpt>
      <trkpt lat="59.307966" lon="17.968749">
        <ele>20.9</ele>
        <time>2018-11-10T12:01:00Z</time>
      </trkpt>
      <trkpt lat="59.307992" lon="17.968698">
        <ele>21.1</ele>
        <time>2018-11-10T12:01:01Z</time>
      </trkpt>
      <trkpt lat="59.308018" lon="17.968655">
        <ele>21.2</ele>
        <time>2018-11-10T12:01:02Z</time>
      </trkpt>
      <trkpt lat="59.308044" lon="17.968614">
        <ele>21.4</ele>
        <time>2018-11-10T12:01:03Z</time>
      </trkpt>
      <trkpt lat="59.308068" lon="17.968581">
        <ele>21.6</ele>
        <time>2018-11-10T12:01:04Z</time>
      </trkpt>
      <trkpt lat="59.308092" lon="17.968548">
        <ele>21.8</ele>
        <time>2018-11-10T12:01:05Z</time>
      </trkpt>
      <trkpt lat="59.308114" lon="17.968516">
        <ele>22</ele>
        <time>2018-11-10T12:01:06Z</time>
      </trkpt>
      <trkpt lat="59.308137" lon="17.968477">
        <ele>22.2</ele>
        <time>2018-11-10T12:01:07Z</time>
      </trkpt>
      <trkpt lat="59.30816" lon="17.968438">
        <ele>22.4</ele>
        <time>2018-11-10T12:01:08Z</time>
      </trkpt>
      <trkpt lat="59.30818" lon="17.968403">
        <ele>22.5</ele>
        <time>2018-11-10T12:01:09Z</time>
      </trkpt>
      <trkpt lat="59.308197" lon="17.968359">
        <ele>22.6</ele>
        <time>2018-11-10T12:01:10Z</time>
      </trkpt>
      <trkpt lat="59.308209" lon="17.968308">
        <ele>22.7</ele>
        <time>2018-11-10T12:01:11Z</time>
      </trkpt>
      <trkpt lat="59.30822" lon="17.968209">
        <ele>22.9</ele>
        <time>2018-11-10T12:01:13Z</time>
      </trkpt>
      <trkpt lat="59.30822" lon="17.968155">
        <ele>23</ele>
        <time>2018-11-10T12:01:14Z</time>
      </trkpt>
      <trkpt lat="59.30821" lon="17.96805">
        <ele>23.2</ele>
        <time>2018-11-10T12:01:16Z</time>
      </trkpt>
      <trkpt lat="59.308193" lon="17.968">
        <ele>23.3</ele>
        <time>2018-11-10T12:01:17Z</time>
      </trkpt>
      <trkpt lat="59.308174" lon="17.967948">
        <ele>23.4</ele>
        <time>2018-11-10T12:01:18Z</time>
      </trkpt>
      <trkpt lat="59.308152" lon="17.967897">
        <ele>23.4</ele>
        <time>2018-11-10T12:01:19Z</time>
      </trkpt>
      <trkpt lat="59.308129" lon="17.967843">
        <ele>23.4</ele>
        <time>2018-11-10T12:01:20Z</time>
      </trkpt>
      <trkpt lat="59.30811" lon="17.967778">
        <ele>23.4</ele>
        <time>2018-11-10T12:01:21Z</time>
      </trkpt>
      <trkpt lat="59.308099" lon="17.967701">
        <ele>23.4</ele>
        <time>2018-11-10T12:01:22Z</time>
      </trkpt>
      <trkpt lat="59.308098" lon="17.967619">
        <ele>23.4</ele>
        <time>2018-11-10T12:01:23Z</time>
      </trkpt>
      <trkpt lat="59.308106" lon="17.967535">
        <ele>23.4</ele>
        <time>2018-11-10T12:01:24Z</time>
      </trkpt>
      <trkpt lat="59.308118" lon="17.967451">
        <ele>23.4</ele>
        <time>2018-11-10T12:01:25Z</time>
      </trkpt>
      <trkpt lat="59.308128" lon="17.967368">
        <ele>23.3</ele>
        <time>2018-11-10T12:01:26Z</time>
      </trkpt>
      <trkpt lat="59.308138" lon="17.967289">
        <ele>23.2</ele>
        <time>2018-11-10T12:01:27Z</time>
      </trkpt>
      <trkpt lat="59.308149" lon="17.967214">
        <ele>23.2</ele>
        <time>2018-11-10T12:01:28Z</time>
      </trkpt>
      <trkpt lat="59.308162" lon="17.967141">
        <ele>23.1</ele>
        <time>2018-11-10T12:01:29Z</time>
      </trkpt>
      <trkpt lat="59.308177" lon="17.967065">
        <ele>23</ele>
        <time>2018-11-10T12:01:30Z</time>
      </trkpt>
      <trkpt lat="59.308189" lon="17.966987">
        <ele>22.9</ele>
        <time>2018-11-10T12:01:31Z</time>
      </trkpt>
      <trkpt lat="59.308195" lon="17.966913">
        <ele>22.9</ele>
        <time>2018-11-10T12:01:32Z</time>
      </trkpt>
      <trkpt lat="59.308197" lon="17.966834">
        <ele>22.8</ele>
        <time>2018-11-10T12:01:33Z</time>
      </trkpt>
      <trkpt lat="59.308192" lon="17.966756">
        <ele>22.8</ele>
        <time>2018-11-10T12:01:34Z</time>
      </trkpt>
      <trkpt lat="59.308181" lon="17.966678">
        <ele>22.7</ele>
        <time>2018-11-10T12:01:35Z</time>
      </trkpt>
      <trkpt lat="59.308164" lon="17.966595">
        <ele>22.6</ele>
        <time>2018-11-10T12:01:36Z</time>
      </trkpt>
      <trkpt lat="59.308131" lon="17.966503">
        <ele>22.5</ele>
        <time>2018-11-10T12:01:37Z</time>
      </trkpt>
      <trkpt lat="59.30813" lon="17.966401">
        <ele>22.4</ele>
        <time>2018-11-10T12:01:38Z</time>
      </trkpt>
      <trkpt lat="59.308133" lon="17.966276">
        <ele>22.3</ele>
        <time>2018-11-10T12:01:39Z</time>
      </trkpt>
      <trkpt lat="59.308128" lon="17.966157">
        <ele>22.2</ele>
        <time>2018-11-10T12:01:40Z</time>
      </trkpt>
      <trkpt lat="59.308111" lon="17.966045">
        <ele>22.1</ele>
        <time>2018-11-10T12:01:41Z</time>
      </trkpt>
      <trkpt lat="59.308093" lon="17.965929">
        <ele>22.1</ele>
        <time>2018-11-10T12:01:42Z</time>
      </trkpt>
      <trkpt lat="59.308065" lon="17.965818">
        <ele>22.1</ele>
        <time>2018-11-10T12:01:43Z</time>
      </trkpt>
      <trkpt lat="59.308044" lon="17.965707">
        <ele>22.1</ele>
        <time>2018-11-10T12:01:44Z</time>
      </trkpt>
      <trkpt lat="59.308018" lon="17.965603">
        <ele>22.1</ele>
        <time>2018-11-10T12:01:45Z</time>
      </trkpt>
      <trkpt lat="59.307987" lon="17.965502">
        <ele>22.1</ele>
        <time>2018-11-10T12:01:46Z</time>
      </trkpt>
      <trkpt lat="59.307952" lon="17.965426">
        <ele>22.1</ele>
        <time>2018-11-10T12:01:47Z</time>
      </trkpt>
      <trkpt lat="59.307934" lon="17.965331">
        <ele>22.1</ele>
        <time>2018-11-10T12:01:48Z</time>
      </trkpt>
      <trkpt lat="59.307915" lon="17.965234">
        <ele>22.1</ele>
        <time>2018-11-10T12:01:49Z</time>
      </trkpt>
      <trkpt lat="59.307894" lon="17.965125">
        <ele>22.1</ele>
        <time>2018-11-10T12:01:50Z</time>
      </trkpt>
      <trkpt lat="59.307872" lon="17.965024">
        <ele>22.1</ele>
        <time>2018-11-10T12:01:51Z</time>
      </trkpt>
      <trkpt lat="59.307845" lon="17.964942">
        <ele>22</ele>
        <time>2018-11-10T12:01:52Z</time>
      </trkpt>
      <trkpt lat="59.307813" lon="17.96489">
        <ele>22</ele>
        <time>2018-11-10T12:01:53Z</time>
      </trkpt>
      <trkpt lat="59.307767" lon="17.96481">
        <ele>21.8</ele>
        <time>2018-11-10T12:01:54Z</time>
      </trkpt>
      <trkpt lat="59.307735" lon="17.964753">
        <ele>21.8</ele>
        <time>2018-11-10T12:01:55Z</time>
      </trkpt>
      <trkpt lat="59.307703" lon="17.9647">
        <ele>21.7</ele>
        <time>2018-11-10T12:01:56Z</time>
      </trkpt>
      <trkpt lat="59.307681" lon="17.964625">
        <ele>21.5</ele>
        <time>2018-11-10T12:01:57Z</time>
      </trkpt>
      <trkpt lat="59.307646" lon="17.964552">
        <ele>21.4</ele>
        <time>2018-11-10T12:01:58Z</time>
      </trkpt>
      <trkpt lat="59.30762" lon="17.964493">
        <ele>21.2</ele>
        <time>2018-11-10T12:01:59Z</time>
      </trkpt>
      <trkpt lat="59.30759" lon="17.964419">
        <ele>20.9</ele>
        <time>2018-11-10T12:02:00Z</time>
      </trkpt>
      <trkpt lat="59.307566" lon="17.964351">
        <ele>20.7</ele>
        <time>2018-11-10T12:02:01Z</time>
      </trkpt>
      <trkpt lat="59.307538" lon="17.964247">
        <ele>20.5</ele>
        <time>2018-11-10T12:02:02Z</time>
      </trkpt>
      <trkpt lat="59.307512" lon="17.964143">
        <ele>20.3</ele>
        <time>2018-11-10T12:02:03Z</time>
      </trkpt>
      <trkpt lat="59.307498" lon="17.964031">
        <ele>20</ele>
        <time>2018-11-10T12:02:04Z</time>
      </trkpt>
      <trkpt lat="59.307488" lon="17.963918">
        <ele>19.6</ele>
        <time>2018-11-10T12:02:05Z</time>
      </trkpt>
      <trkpt lat="59.307476" lon="17.963791">
        <ele>19.4</ele>
        <time>2018-11-10T12:02:06Z</time>
      </trkpt>
      <trkpt lat="59.307462" lon="17.963669">
        <ele>18.8</ele>
        <time>2018-11-10T12:02:07Z</time>
      </trkpt>
      <trkpt lat="59.307443" lon="17.963556">
        <ele>18.7</ele>
        <time>2018-11-10T12:02:08Z</time>
      </trkpt>
      <trkpt lat="59.307441" lon="17.963424">
        <ele>18.2</ele>
        <time>2018-11-10T12:02:09Z</time>
      </trkpt>
      <trkpt lat="59.307447" lon="17.963284">
        <ele>17.4</ele>
        <time>2018-11-10T12:02:10Z</time>
      </trkpt>
      <trkpt lat="59.307455" lon="17.963141">
        <ele>16.9</ele>
        <time>2018-11-10T12:02:11Z</time>
      </trkpt>
      <trkpt lat="59.307472" lon="17.962994">
        <ele>16</ele>
        <time>2018-11-10T12:02:12Z</time>
      </trkpt>
      <trkpt lat="59.30749" lon="17.962869">
        <ele>15.5</ele>
        <time>2018-11-10T12:02:13Z</time>
      </trkpt>
      <trkpt lat="59.307505" lon="17.962752">
        <ele>15</ele>
        <time>2018-11-10T12:02:14Z</time>
      </trkpt>
      <trkpt lat="59.307503" lon="17.962649">
        <ele>14.5</ele>
        <time>2018-11-10T12:02:15Z</time>
      </trkpt>
      <trkpt lat="59.307494" lon="17.962537">
        <ele>13.9</ele>
        <time>2018-11-10T12:02:16Z</time>
      </trkpt>
      <trkpt lat="59.307473" lon="17.962395">
        <ele>13.2</ele>
        <time>2018-11-10T12:02:17Z</time>
      </trkpt>
      <trkpt lat="59.307453" lon="17.962261">
        <ele>12.7</ele>
        <time>2018-11-10T12:02:18Z</time>
      </trkpt>
      <trkpt lat="59.307422" lon="17.962119">
        <ele>12.1</ele>
        <time>2018-11-10T12:02:19Z</time>
      </trkpt>
      <trkpt lat="59.307401" lon="17.961946">
        <ele>11.5</ele>
        <time>2018-11-10T12:02:20Z</time>
      </trkpt>
      <trkpt lat="59.307368" lon="17.961779">
        <ele>11.1</ele>
        <time>2018-11-10T12:02:21Z</time>
      </trkpt>
      <trkpt lat="59.307325" lon="17.961615">
        <ele>10.8</ele>
        <time>2018-11-10T12:02:22Z</time>
      </trkpt>
      <trkpt lat="59.307296" lon="17.961465">
        <ele>10.6</ele>
        <time>2018-11-10T12:02:23Z</time>
      </trkpt>
      <trkpt lat="59.307272" lon="17.961326">
        <ele>10.6</ele>
        <time>2018-11-10T12:02:24Z</time>
      </trkpt>
      <trkpt lat="59.307251" lon="17.961198">
        <ele>10.7</ele>
        <time>2018-11-10T12:02:25Z</time>
      </trkpt>
      <trkpt lat="59.307238" lon="17.961068">
        <ele>10.8</ele>
        <time>2018-11-10T12:02:26Z</time>
      </trkpt>
      <trkpt lat="59.307217" lon="17.960978">
        <ele>10.9</ele>
        <time>2018-11-10T12:02:27Z</time>
      </trkpt>
      <trkpt lat="59.307187" lon="17.960905">
        <ele>11</ele>
        <time>2018-11-10T12:02:28Z</time>
      </trkpt>
      <trkpt lat="59.307151" lon="17.960863">
        <ele>11.1</ele>
        <time>2018-11-10T12:02:29Z</time>
      </trkpt>
      <trkpt lat="59.307104" lon="17.960874">
        <ele>11.4</ele>
        <time>2018-11-10T12:02:30Z</time>
      </trkpt>
      <trkpt lat="59.307056" lon="17.960911">
        <ele>11.8</ele>
        <time>2018-11-10T12:02:31Z</time>
      </trkpt>
      <trkpt lat="59.307003" lon="17.960957">
        <ele>12.2</ele>
        <time>2018-11-10T12:02:32Z</time>
      </trkpt>
      <trkpt lat="59.306943" lon="17.961009">
        <ele>12.7</ele>
        <time>2018-11-10T12:02:33Z</time>
      </trkpt>
      <trkpt lat="59.306875" lon="17.961035">
        <ele>13.3</ele>
        <time>2018-11-10T12:02:34Z</time>
      </trkpt>
      <trkpt lat="59.306812" lon="17.961059">
        <ele>13.8</ele>
        <time>2018-11-10T12:02:35Z</time>
      </trkpt>
      <trkpt lat="59.306748" lon="17.96103">
        <ele>14.3</ele>
        <time>2018-11-10T12:02:36Z</time>
      </trkpt>
      <trkpt lat="59.306698" lon="17.960973">
        <ele>14.9</ele>
        <time>2018-11-10T12:02:37Z</time>
      </trkpt>
      <trkpt lat="59.306653" lon="17.960893">
        <ele>15.3</ele>
        <time>2018-11-10T12:02:38Z</time>
      </trkpt>
      <trkpt lat="59.30661" lon="17.960803">
        <ele>15.7</ele>
        <time>2018-11-10T12:02:39Z</time>
      </trkpt>
      <trkpt lat="59.306591" lon="17.960695">
        <ele>15.1</ele>
        <time>2018-11-10T12:02:40Z</time>
      </trkpt>
      <trkpt lat="59.306574" lon="17.960597">
        <ele>14.9</ele>
        <time>2018-11-10T12:02:41Z</time>
      </trkpt>
      <trkpt lat="59.306558" lon="17.960467">
        <ele>14</ele>
        <time>2018-11-10T12:02:42Z</time>
      </trkpt>
      <trkpt lat="59.306548" lon="17.960331">
        <ele>13.5</ele>
        <time>2018-11-10T12:02:43Z</time>
      </trkpt>
      <trkpt lat="59.306541" lon="17.960168">
        <ele>12.9</ele>
        <time>2018-11-10T12:02:44Z</time>
      </trkpt>
      <trkpt lat="59.306534" lon="17.960001">
        <ele>12.3</ele>
        <time>2018-11-10T12:02:45Z</time>
      </trkpt>
      <trkpt lat="59.306534" lon="17.959835">
        <ele>11.7</ele>
        <time>2018-11-10T12:02:46Z</time>
      </trkpt>
      <trkpt lat="59.30654" lon="17.959663">
        <ele>11.5</ele>
        <time>2018-11-10T12:02:47Z</time>
      </trkpt>
      <trkpt lat="59.306546" lon="17.959503">
        <ele>11.3</ele>
        <time>2018-11-10T12:02:48Z</time>
      </trkpt>
      <trkpt lat="59.306544" lon="17.959344">
        <ele>11.2</ele>
        <time>2018-11-10T12:02:49Z</time>
      </trkpt>
      <trkpt lat="59.306545" lon="17.959176">
        <ele>11.2</ele>
        <time>2018-11-10T12:02:50Z</time>
      </trkpt>
      <trkpt lat="59.306543" lon="17.95902">
        <ele>11.2</ele>
        <time>2018-11-10T12:02:51Z</time>
      </trkpt>
      <trkpt lat="59.30653" lon="17.958873">
        <ele>11.3</ele>
        <time>2018-11-10T12:02:52Z</time>
      </trkpt>
      <trkpt lat="59.306526" lon="17.958721">
        <ele>11.4</ele>
        <time>2018-11-10T12:02:53Z</time>
      </trkpt>
      <trkpt lat="59.30652" lon="17.958548">
        <ele>11.5</ele>
        <time>2018-11-10T12:02:54Z</time>
      </trkpt>
      <trkpt lat="59.306521" lon="17.958409">
        <ele>11.6</ele>
        <time>2018-11-10T12:02:55Z</time>
      </trkpt>
      <trkpt lat="59.306521" lon="17.958262">
        <ele>11.7</ele>
        <time>2018-11-10T12:02:56Z</time>
      </trkpt>
      <trkpt lat="59.306515" lon="17.958118">
        <ele>11.8</ele>
        <time>2018-11-10T12:02:57Z</time>
      </trkpt>
      <trkpt lat="59.306495" lon="17.957983">
        <ele>11.9</ele>
        <time>2018-11-10T12:02:58Z</time>
      </trkpt>
      <trkpt lat="59.306464" lon="17.957856">
        <ele>12</ele>
        <time>2018-11-10T12:02:59Z</time>
      </trkpt>
      <trkpt lat="59.306422" lon="17.957723">
        <ele>12.2</ele>
        <time>2018-11-10T12:03:00Z</time>
      </trkpt>
      <trkpt lat="59.306376" lon="17.957622">
        <ele>12.4</ele>
        <time>2018-11-10T12:03:01Z</time>
      </trkpt>
      <trkpt lat="59.306331" lon="17.957543">
        <ele>12.6</ele>
        <time>2018-11-10T12:03:02Z</time>
      </trkpt>
      <trkpt lat="59.306268" lon="17.957423">
        <ele>12.9</ele>
        <time>2018-11-10T12:03:03Z</time>
      </trkpt>
      <trkpt lat="59.306203" lon="17.957325">
        <ele>13.2</ele>
        <time>2018-11-10T12:03:04Z</time>
      </trkpt>
      <trkpt lat="59.306152" lon="17.957236">
        <ele>13.5</ele>
        <time>2018-11-10T12:03:05Z</time>
      </trkpt>
      <trkpt lat="59.306103" lon="17.957142">
        <ele>13.9</ele>
        <time>2018-11-10T12:03:06Z</time>
      </trkpt>
      <trkpt lat="59.306052" lon="17.957065">
        <ele>14.1</ele>
        <time>2018-11-10T12:03:07Z</time>
      </trkpt>
      <trkpt lat="59.306001" lon="17.956986">
        <ele>14.2</ele>
        <time>2018-11-10T12:03:08Z</time>
      </trkpt>
      <trkpt lat="59.30595" lon="17.95691">
        <ele>14.4</ele>
        <time>2018-11-10T12:03:09Z</time>
      </trkpt>
      <trkpt lat="59.3059" lon="17.956839">
        <ele>14.6</ele>
        <time>2018-11-10T12:03:10Z</time>
      </trkpt>
      <trkpt lat="59.305851" lon="17.956776">
        <ele>14.8</ele>
        <time>2018-11-10T12:03:11Z</time>
      </trkpt>
      <trkpt lat="59.3058" lon="17.956738">
        <ele>14.9</ele>
        <time>2018-11-10T12:03:12Z</time>
      </trkpt>
      <trkpt lat="59.305746" lon="17.956697">
        <ele>15.1</ele>
        <time>2018-11-10T12:03:13Z</time>
      </trkpt>
      <trkpt lat="59.305699" lon="17.956641">
        <ele>15.3</ele>
        <time>2018-11-10T12:03:14Z</time>
      </trkpt>
      <trkpt lat="59.305651" lon="17.956629">
        <ele>15.5</ele>
        <time>2018-11-10T12:03:15Z</time>
      </trkpt>
      <trkpt lat="59.305609" lon="17.956595">
        <ele>15.6</ele>
        <time>2018-11-10T12:03:16Z</time>
      </trkpt>
      <trkpt lat="59.305565" lon="17.956549">
        <ele>15.8</ele>
        <time>2018-11-10T12:03:17Z</time>
      </trkpt>
      <trkpt lat="59.305528" lon="17.956506">
        <ele>15.9</ele>
        <time>2018-11-10T12:03:18Z</time>
      </trkpt>
      <trkpt lat="59.30549" lon="17.956464">
        <ele>16.1</ele>
        <time>2018-11-10T12:03:19Z</time>
      </trkpt>
      <trkpt lat="59.305458" lon="17.956431">
        <ele>16.2</ele>
        <time>2018-11-10T12:03:20Z</time>
      </trkpt>
      <trkpt lat="59.305408" lon="17.956391">
        <ele>16.4</ele>
        <time>2018-11-10T12:03:22Z</time>
      </trkpt>
      <trkpt lat="59.305358" lon="17.956297">
        <ele>16.7</ele>
        <time>2018-11-10T12:03:24Z</time>
      </trkpt>
      <trkpt lat="59.305312" lon="17.956282">
        <ele>17</ele>
        <time>2018-11-10T12:03:26Z</time>
      </trkpt>
      <trkpt lat="59.305281" lon="17.95623">
        <ele>17.2</ele>
        <time>2018-11-10T12:03:27Z</time>
      </trkpt>
      <trkpt lat="59.305254" lon="17.956201">
        <ele>17.4</ele>
        <time>2018-11-10T12:03:28Z</time>
      </trkpt>
      <trkpt lat="59.305216" lon="17.956159">
        <ele>17.5</ele>
        <time>2018-11-10T12:03:30Z</time>
      </trkpt>
      <trkpt lat="59.30519" lon="17.956138">
        <ele>17.6</ele>
        <time>2018-11-10T12:03:31Z</time>
      </trkpt>
      <trkpt lat="59.305164" lon="17.956118">
        <ele>17.8</ele>
        <time>2018-11-10T12:03:32Z</time>
      </trkpt>
      <trkpt lat="59.305135" lon="17.956089">
        <ele>17.9</ele>
        <time>2018-11-10T12:03:33Z</time>
      </trkpt>
      <trkpt lat="59.305112" lon="17.956055">
        <ele>18.1</ele>
        <time>2018-11-10T12:03:34Z</time>
      </trkpt>
      <trkpt lat="59.305079" lon="17.955978">
        <ele>18.1</ele>
        <time>2018-11-10T12:03:36Z</time>
      </trkpt>
      <trkpt lat="59.305061" lon="17.955925">
        <ele>18.1</ele>
        <time>2018-11-10T12:03:37Z</time>
      </trkpt>
      <trkpt lat="59.305041" lon="17.95587">
        <ele>18</ele>
        <time>2018-11-10T12:03:38Z</time>
      </trkpt>
      <trkpt lat="59.30502" lon="17.955818">
        <ele>18</ele>
        <time>2018-11-10T12:03:39Z</time>
      </trkpt>
      <trkpt lat="59.305002" lon="17.955762">
        <ele>18</ele>
        <time>2018-11-10T12:03:40Z</time>
      </trkpt>
      <trkpt lat="59.304982" lon="17.955701">
        <ele>17.9</ele>
        <time>2018-11-10T12:03:41Z</time>
      </trkpt>
      <trkpt lat="59.304958" lon="17.955614">
        <ele>17.9</ele>
        <time>2018-11-10T12:03:42Z</time>
      </trkpt>
      <trkpt lat="59.304933" lon="17.95551">
        <ele>17.7</ele>
        <time>2018-11-10T12:03:43Z</time>
      </trkpt>
      <trkpt lat="59.304922" lon="17.955417">
        <ele>17.6</ele>
        <time>2018-11-10T12:03:44Z</time>
      </trkpt>
      <trkpt lat="59.3049" lon="17.955334">
        <ele>17.4</ele>
        <time>2018-11-10T12:03:45Z</time>
      </trkpt>
      <trkpt lat="59.304856" lon="17.95528">
        <ele>17.1</ele>
        <time>2018-11-10T12:03:47Z</time>
      </trkpt>
      <trkpt lat="59.304813" lon="17.955278">
        <ele>16.9</ele>
        <time>2018-11-10T12:03:48Z</time>
      </trkpt>
      <trkpt lat="59.304785" lon="17.955239">
        <ele>16.7</ele>
        <time>2018-11-10T12:03:49Z</time>
      </trkpt>
      <trkpt lat="59.304762" lon="17.955192">
        <ele>16.6</ele>
        <time>2018-11-10T12:03:50Z</time>
      </trkpt>
      <trkpt lat="59.304732" lon="17.955133">
        <ele>16.4</ele>
        <time>2018-11-10T12:03:51Z</time>
      </trkpt>
      <trkpt lat="59.304702" lon="17.955066">
        <ele>16.2</ele>
        <time>2018-11-10T12:03:52Z</time>
      </trkpt>
      <trkpt lat="59.304675" lon="17.955006">
        <ele>16.1</ele>
        <time>2018-11-10T12:03:53Z</time>
      </trkpt>
      <trkpt lat="59.304659" lon="17.954937">
        <ele>16.1</ele>
        <time>2018-11-10T12:03:54Z</time>
      </trkpt>
      <trkpt lat="59.304649" lon="17.954865">
        <ele>15.8</ele>
        <time>2018-11-10T12:03:55Z</time>
      </trkpt>
      <trkpt lat="59.304647" lon="17.954788">
        <ele>15.7</ele>
        <time>2018-11-10T12:03:56Z</time>
      </trkpt>
      <trkpt lat="59.304646" lon="17.954712">
        <ele>15.5</ele>
        <time>2018-11-10T12:03:57Z</time>
      </trkpt>
      <trkpt lat="59.304642" lon="17.954637">
        <ele>15.4</ele>
        <time>2018-11-10T12:03:58Z</time>
      </trkpt>
      <trkpt lat="59.304636" lon="17.954563">
        <ele>15.4</ele>
        <time>2018-11-10T12:03:59Z</time>
      </trkpt>
      <trkpt lat="59.30463" lon="17.954489">
        <ele>15.3</ele>
        <time>2018-11-10T12:04:00Z</time>
      </trkpt>
      <trkpt lat="59.304622" lon="17.954411">
        <ele>15.2</ele>
        <time>2018-11-10T12:04:01Z</time>
      </trkpt>
      <trkpt lat="59.304611" lon="17.954326">
        <ele>15.1</ele>
        <time>2018-11-10T12:04:02Z</time>
      </trkpt>
      <trkpt lat="59.304596" lon="17.954236">
        <ele>14.9</ele>
        <time>2018-11-10T12:04:03Z</time>
      </trkpt>
      <trkpt lat="59.30458" lon="17.954118">
        <ele>14.7</ele>
        <time>2018-11-10T12:04:04Z</time>
      </trkpt>
      <trkpt lat="59.304576" lon="17.954">
        <ele>14.4</ele>
        <time>2018-11-10T12:04:05Z</time>
      </trkpt>
      <trkpt lat="59.304562" lon="17.953861">
        <ele>13.9</ele>
        <time>2018-11-10T12:04:06Z</time>
      </trkpt>
      <trkpt lat="59.304539" lon="17.953717">
        <ele>13.3</ele>
        <time>2018-11-10T12:04:07Z</time>
      </trkpt>
      <trkpt lat="59.30452" lon="17.953563">
        <ele>12.6</ele>
        <time>2018-11-10T12:04:08Z</time>
      </trkpt>
      <trkpt lat="59.304488" lon="17.953426">
        <ele>11.8</ele>
        <time>2018-11-10T12:04:09Z</time>
      </trkpt>
      <trkpt lat="59.304451" lon="17.953284">
        <ele>10.9</ele>
        <time>2018-11-10T12:04:10Z</time>
      </trkpt>
      <trkpt lat="59.304408" lon="17.95315">
        <ele>10.3</ele>
        <time>2018-11-10T12:04:11Z</time>
      </trkpt>
      <trkpt lat="59.304364" lon="17.953029">
        <ele>9.7</ele>
        <time>2018-11-10T12:04:12Z</time>
      </trkpt>
      <trkpt lat="59.304319" lon="17.952915">
        <ele>9.2</ele>
        <time>2018-11-10T12:04:13Z</time>
      </trkpt>
      <trkpt lat="59.304277" lon="17.952816">
        <ele>8.7</ele>
        <time>2018-11-10T12:04:14Z</time>
      </trkpt>
      <trkpt lat="59.304239" lon="17.952732">
        <ele>8.2</ele>
        <time>2018-11-10T12:04:15Z</time>
      </trkpt>
      <trkpt lat="59.304194" lon="17.952703">
        <ele>7.9</ele>
        <time>2018-11-10T12:04:16Z</time>
      </trkpt>
      <trkpt lat="59.304157" lon="17.952696">
        <ele>7.6</ele>
        <time>2018-11-10T12:04:17Z</time>
      </trkpt>
      <trkpt lat="59.304119" lon="17.95272">
        <ele>8.9</ele>
        <time>2018-11-10T12:04:18Z</time>
      </trkpt>
      <trkpt lat="59.304089" lon="17.952751">
        <ele>9.6</ele>
        <time>2018-11-10T12:04:19Z</time>
      </trkpt>
      <trkpt lat="59.304049" lon="17.952795">
        <ele>10.6</ele>
        <time>2018-11-10T12:04:21Z</time>
      </trkpt>
      <trkpt lat="59.304003" lon="17.952829">
        <ele>11.6</ele>
        <time>2018-11-10T12:04:23Z</time>
      </trkpt>
      <trkpt lat="59.303959" lon="17.952853">
        <ele>12.5</ele>
        <time>2018-11-10T12:04:25Z</time>
      </trkpt>
      <trkpt lat="59.303925" lon="17.952883">
        <ele>13.2</ele>
        <time>2018-11-10T12:04:27Z</time>
      </trkpt>
      <trkpt lat="59.303891" lon="17.952924">
        <ele>14</ele>
        <time>2018-11-10T12:04:29Z</time>
      </trkpt>
      <trkpt lat="59.303855" lon="17.952959">
        <ele>14.9</ele>
        <time>2018-11-10T12:04:31Z</time>
      </trkpt>
      <trkpt lat="59.303822" lon="17.95299">
        <ele>15.8</ele>
        <time>2018-11-10T12:04:33Z</time>
      </trkpt>
      <trkpt lat="59.303791" lon="17.952998">
        <ele>16.7</ele>
        <time>2018-11-10T12:04:38Z</time>
      </trkpt>
      <trkpt lat="59.303761" lon="17.952961">
        <ele>17.7</ele>
        <time>2018-11-10T12:04:40Z</time>
      </trkpt>
      <trkpt lat="59.303737" lon="17.952851">
        <ele>17.2</ele>
        <time>2018-11-10T12:04:42Z</time>
      </trkpt>
      <trkpt lat="59.303731" lon="17.952774">
        <ele>16.8</ele>
        <time>2018-11-10T12:04:43Z</time>
      </trkpt>
      <trkpt lat="59.303728" lon="17.952693">
        <ele>16.4</ele>
        <time>2018-11-10T12:04:44Z</time>
      </trkpt>
      <trkpt lat="59.303737" lon="17.9526">
        <ele>16</ele>
        <time>2018-11-10T12:04:45Z</time>
      </trkpt>
      <trkpt lat="59.303729" lon="17.95248">
        <ele>15.7</ele>
        <time>2018-11-10T12:04:46Z</time>
      </trkpt>
      <trkpt lat="59.303716" lon="17.952391">
        <ele>15.5</ele>
        <time>2018-11-10T12:04:47Z</time>
      </trkpt>
      <trkpt lat="59.303701" lon="17.952299">
        <ele>15.3</ele>
        <time>2018-11-10T12:04:48Z</time>
      </trkpt>
      <trkpt lat="59.303696" lon="17.9522">
        <ele>15.2</ele>
        <time>2018-11-10T12:04:49Z</time>
      </trkpt>
      <trkpt lat="59.303683" lon="17.952097">
        <ele>14.9</ele>
        <time>2018-11-10T12:04:50Z</time>
      </trkpt>
      <trkpt lat="59.30367" lon="17.951995">
        <ele>14.7</ele>
        <time>2018-11-10T12:04:51Z</time>
      </trkpt>
      <trkpt lat="59.303656" lon="17.951889">
        <ele>14.6</ele>
        <time>2018-11-10T12:04:52Z</time>
      </trkpt>
      <trkpt lat="59.303641" lon="17.951788">
        <ele>14.3</ele>
        <time>2018-11-10T12:04:53Z</time>
      </trkpt>
      <trkpt lat="59.303632" lon="17.95167">
        <ele>14.1</ele>
        <time>2018-11-10T12:04:54Z</time>
      </trkpt>
      <trkpt lat="59.303615" lon="17.951548">
        <ele>13.8</ele>
        <time>2018-11-10T12:04:55Z</time>
      </trkpt>
      <trkpt lat="59.303596" lon="17.951405">
        <ele>13.6</ele>
        <time>2018-11-10T12:04:56Z</time>
      </trkpt>
      <trkpt lat="59.303581" lon="17.951283">
        <ele>13.4</ele>
        <time>2018-11-10T12:04:57Z</time>
      </trkpt>
      <trkpt lat="59.303555" lon="17.951152">
        <ele>13.2</ele>
        <time>2018-11-10T12:04:58Z</time>
      </trkpt>
      <trkpt lat="59.303501" lon="17.951011">
        <ele>13.1</ele>
        <time>2018-11-10T12:04:59Z</time>
      </trkpt>
      <trkpt lat="59.30345" lon="17.9509">
        <ele>13.3</ele>
        <time>2018-11-10T12:05:00Z</time>
      </trkpt>
      <trkpt lat="59.303402" lon="17.95078">
        <ele>13.7</ele>
        <time>2018-11-10T12:05:01Z</time>
      </trkpt>
      <trkpt lat="59.303349" lon="17.950641">
        <ele>13.9</ele>
        <time>2018-11-10T12:05:02Z</time>
      </trkpt>
      <trkpt lat="59.303311" lon="17.950511">
        <ele>13.8</ele>
        <time>2018-11-10T12:05:03Z</time>
      </trkpt>
      <trkpt lat="59.303287" lon="17.95037">
        <ele>13.7</ele>
        <time>2018-11-10T12:05:04Z</time>
      </trkpt>
      <trkpt lat="59.303261" lon="17.950237">
        <ele>13.6</ele>
        <time>2018-11-10T12:05:05Z</time>
      </trkpt>
      <trkpt lat="59.30324" lon="17.950106">
        <ele>13.5</ele>
        <time>2018-11-10T12:05:06Z</time>
      </trkpt>
      <trkpt lat="59.303217" lon="17.949982">
        <ele>13.5</ele>
        <time>2018-11-10T12:05:07Z</time>
      </trkpt>
      <trkpt lat="59.303197" lon="17.949844">
        <ele>13.4</ele>
        <time>2018-11-10T12:05:08Z</time>
      </trkpt>
      <trkpt lat="59.303179" lon="17.949706">
        <ele>13.4</ele>
        <time>2018-11-10T12:05:09Z</time>
      </trkpt>
      <trkpt lat="59.303165" lon="17.949558">
        <ele>13.3</ele>
        <time>2018-11-10T12:05:10Z</time>
      </trkpt>
      <trkpt lat="59.303152" lon="17.949438">
        <ele>13.3</ele>
        <time>2018-11-10T12:05:11Z</time>
      </trkpt>
      <trkpt lat="59.303137" lon="17.94931">
        <ele>13.3</ele>
        <time>2018-11-10T12:05:12Z</time>
      </trkpt>
      <trkpt lat="59.303126" lon="17.949173">
        <ele>13.2</ele>
        <time>2018-11-10T12:05:13Z</time>
      </trkpt>
      <trkpt lat="59.30312" lon="17.949035">
        <ele>13.2</ele>
        <time>2018-11-10T12:05:14Z</time>
      </trkpt>
      <trkpt lat="59.303113" lon="17.948887">
        <ele>13.2</ele>
        <time>2018-11-10T12:05:15Z</time>
      </trkpt>
      <trkpt lat="59.303109" lon="17.948736">
        <ele>13.2</ele>
        <time>2018-11-10T12:05:16Z</time>
      </trkpt>
      <trkpt lat="59.303096" lon="17.948582">
        <ele>13.3</ele>
        <time>2018-11-10T12:05:17Z</time>
      </trkpt>
      <trkpt lat="59.303099" lon="17.948439">
        <ele>13.7</ele>
        <time>2018-11-10T12:05:18Z</time>
      </trkpt>
      <trkpt lat="59.3031" lon="17.948305">
        <ele>14.2</ele>
        <time>2018-11-10T12:05:19Z</time>
      </trkpt>
      <trkpt lat="59.3031" lon="17.948174">
        <ele>14.8</ele>
        <time>2018-11-10T12:05:20Z</time>
      </trkpt>
      <trkpt lat="59.30309" lon="17.948053">
        <ele>15.6</ele>
        <time>2018-11-10T12:05:21Z</time>
      </trkpt>
      <trkpt lat="59.303076" lon="17.947933">
        <ele>16.4</ele>
        <time>2018-11-10T12:05:22Z</time>
      </trkpt>
      <trkpt lat="59.303057" lon="17.947836">
        <ele>17.1</ele>
        <time>2018-11-10T12:05:23Z</time>
      </trkpt>
      <trkpt lat="59.303031" lon="17.947764">
        <ele>17.7</ele>
        <time>2018-11-10T12:05:24Z</time>
      </trkpt>
      <trkpt lat="59.303007" lon="17.947695">
        <ele>18.4</ele>
        <time>2018-11-10T12:05:25Z</time>
      </trkpt>
      <trkpt lat="59.302986" lon="17.947637">
        <ele>18.9</ele>
        <time>2018-11-10T12:05:26Z</time>
      </trkpt>
      <trkpt lat="59.302972" lon="17.947591">
        <ele>19.2</ele>
        <time>2018-11-10T12:05:27Z</time>
      </trkpt>
      <trkpt lat="59.302959" lon="17.947541">
        <ele>19.6</ele>
        <time>2018-11-10T12:05:28Z</time>
      </trkpt>
      <trkpt lat="59.302947" lon="17.947456">
        <ele>20.2</ele>
        <time>2018-11-10T12:05:30Z</time>
      </trkpt>
      <trkpt lat="59.302942" lon="17.947401">
        <ele>20.6</ele>
        <time>2018-11-10T12:05:31Z</time>
      </trkpt>
      <trkpt lat="59.302932" lon="17.947343">
        <ele>20.9</ele>
        <time>2018-11-10T12:05:32Z</time>
      </trkpt>
      <trkpt lat="59.302926" lon="17.947283">
        <ele>21.2</ele>
        <time>2018-11-10T12:05:33Z</time>
      </trkpt>
      <trkpt lat="59.302915" lon="17.947187">
        <ele>21.7</ele>
        <time>2018-11-10T12:05:35Z</time>
      </trkpt>
      <trkpt lat="59.302894" lon="17.947099">
        <ele>22.1</ele>
        <time>2018-11-10T12:05:37Z</time>
      </trkpt>
      <trkpt lat="59.302868" lon="17.94702">
        <ele>22.4</ele>
        <time>2018-11-10T12:05:39Z</time>
      </trkpt>
      <trkpt lat="59.302848" lon="17.946942">
        <ele>22.7</ele>
        <time>2018-11-10T12:05:41Z</time>
      </trkpt>
      <trkpt lat="59.30283" lon="17.946872">
        <ele>22.9</ele>
        <time>2018-11-10T12:05:43Z</time>
      </trkpt>
      <trkpt lat="59.302816" lon="17.946767">
        <ele>23.1</ele>
        <time>2018-11-10T12:05:45Z</time>
      </trkpt>
      <trkpt lat="59.30281" lon="17.946699">
        <ele>23.3</ele>
        <time>2018-11-10T12:05:46Z</time>
      </trkpt>
      <trkpt lat="59.302805" lon="17.946631">
        <ele>23.3</ele>
        <time>2018-11-10T12:05:47Z</time>
      </trkpt>
      <trkpt lat="59.302799" lon="17.946561">
        <ele>23.4</ele>
        <time>2018-11-10T12:05:48Z</time>
      </trkpt>
      <trkpt lat="59.302791" lon="17.94649">
        <ele>23.5</ele>
        <time>2018-11-10T12:05:49Z</time>
      </trkpt>
      <trkpt lat="59.302781" lon="17.946421">
        <ele>23.5</ele>
        <time>2018-11-10T12:05:50Z</time>
      </trkpt>
      <trkpt lat="59.302773" lon="17.946349">
        <ele>23.6</ele>
        <time>2018-11-10T12:05:51Z</time>
      </trkpt>
      <trkpt lat="59.302767" lon="17.946275">
        <ele>23.6</ele>
        <time>2018-11-10T12:05:52Z</time>
      </trkpt>
      <trkpt lat="59.302764" lon="17.946195">
        <ele>23.7</ele>
        <time>2018-11-10T12:05:53Z</time>
      </trkpt>
      <trkpt lat="59.302763" lon="17.946111">
        <ele>23.7</ele>
        <time>2018-11-10T12:05:54Z</time>
      </trkpt>
      <trkpt lat="59.302762" lon="17.946026">
        <ele>23.8</ele>
        <time>2018-11-10T12:05:55Z</time>
      </trkpt>
      <trkpt lat="59.302765" lon="17.945927">
        <ele>23.8</ele>
        <time>2018-11-10T12:05:56Z</time>
      </trkpt>
      <trkpt lat="59.302761" lon="17.94584">
        <ele>23.9</ele>
        <time>2018-11-10T12:05:57Z</time>
      </trkpt>
      <trkpt lat="59.302759" lon="17.945735">
        <ele>24</ele>
        <time>2018-11-10T12:05:58Z</time>
      </trkpt>
      <trkpt lat="59.302751" lon="17.945626">
        <ele>24</ele>
        <time>2018-11-10T12:05:59Z</time>
      </trkpt>
      <trkpt lat="59.302751" lon="17.945537">
        <ele>24.1</ele>
        <time>2018-11-10T12:06:00Z</time>
      </trkpt>
      <trkpt lat="59.302749" lon="17.945434">
        <ele>24.2</ele>
        <time>2018-11-10T12:06:01Z</time>
      </trkpt>
      <trkpt lat="59.302746" lon="17.945318">
        <ele>24.3</ele>
        <time>2018-11-10T12:06:02Z</time>
      </trkpt>
      <trkpt lat="59.30274" lon="17.945215">
        <ele>24.3</ele>
        <time>2018-11-10T12:06:03Z</time>
      </trkpt>
      <trkpt lat="59.302741" lon="17.945114">
        <ele>24.4</ele>
        <time>2018-11-10T12:06:04Z</time>
      </trkpt>
      <trkpt lat="59.302731" lon="17.94501">
        <ele>24.5</ele>
        <time>2018-11-10T12:06:05Z</time>
      </trkpt>
      <trkpt lat="59.302722" lon="17.944919">
        <ele>24.6</ele>
        <time>2018-11-10T12:06:06Z</time>
      </trkpt>
      <trkpt lat="59.302711" lon="17.944821">
        <ele>24.7</ele>
        <time>2018-11-10T12:06:07Z</time>
      </trkpt>
      <trkpt lat="59.302704" lon="17.944709">
        <ele>24.8</ele>
        <time>2018-11-10T12:06:08Z</time>
      </trkpt>
      <trkpt lat="59.302693" lon="17.944615">
        <ele>24.9</ele>
        <time>2018-11-10T12:06:09Z</time>
      </trkpt>
      <trkpt lat="59.30268" lon="17.944509">
        <ele>25</ele>
        <time>2018-11-10T12:06:10Z</time>
      </trkpt>
      <trkpt lat="59.302677" lon="17.944411">
        <ele>25.2</ele>
        <time>2018-11-10T12:06:11Z</time>
      </trkpt>
      <trkpt lat="59.30268" lon="17.944311">
        <ele>25.4</ele>
        <time>2018-11-10T12:06:12Z</time>
      </trkpt>
      <trkpt lat="59.30268" lon="17.944224">
        <ele>25.6</ele>
        <time>2018-11-10T12:06:13Z</time>
      </trkpt>
      <trkpt lat="59.302678" lon="17.94414">
        <ele>25.7</ele>
        <time>2018-11-10T12:06:14Z</time>
      </trkpt>
      <trkpt lat="59.302666" lon="17.944055">
        <ele>25.8</ele>
        <time>2018-11-10T12:06:15Z</time>
      </trkpt>
      <trkpt lat="59.302658" lon="17.943984">
        <ele>25.9</ele>
        <time>2018-11-10T12:06:16Z</time>
      </trkpt>
      <trkpt lat="59.302653" lon="17.94391">
        <ele>25.9</ele>
        <time>2018-11-10T12:06:17Z</time>
      </trkpt>
      <trkpt lat="59.302648" lon="17.943829">
        <ele>25.9</ele>
        <time>2018-11-10T12:06:18Z</time>
      </trkpt>
      <trkpt lat="59.302645" lon="17.943753">
        <ele>25.9</ele>
        <time>2018-11-10T12:06:19Z</time>
      </trkpt>
      <trkpt lat="59.302648" lon="17.943683">
        <ele>25.9</ele>
        <time>2018-11-10T12:06:20Z</time>
      </trkpt>
      <trkpt lat="59.302647" lon="17.943599">
        <ele>25.8</ele>
        <time>2018-11-10T12:06:21Z</time>
      </trkpt>
      <trkpt lat="59.302648" lon="17.943527">
        <ele>25.7</ele>
        <time>2018-11-10T12:06:22Z</time>
      </trkpt>
      <trkpt lat="59.302646" lon="17.943452">
        <ele>25.7</ele>
        <time>2018-11-10T12:06:23Z</time>
      </trkpt>
      <trkpt lat="59.302645" lon="17.943375">
        <ele>25.6</ele>
        <time>2018-11-10T12:06:24Z</time>
      </trkpt>
      <trkpt lat="59.302644" lon="17.943294">
        <ele>25.5</ele>
        <time>2018-11-10T12:06:25Z</time>
      </trkpt>
      <trkpt lat="59.302641" lon="17.943216">
        <ele>25.4</ele>
        <time>2018-11-10T12:06:26Z</time>
      </trkpt>
      <trkpt lat="59.302636" lon="17.94314">
        <ele>25.5</ele>
        <time>2018-11-10T12:06:27Z</time>
      </trkpt>
      <trkpt lat="59.302626" lon="17.94306">
        <ele>25.5</ele>
        <time>2018-11-10T12:06:28Z</time>
      </trkpt>
      <trkpt lat="59.302627" lon="17.942953">
        <ele>25.4</ele>
        <time>2018-11-10T12:06:29Z</time>
      </trkpt>
      <trkpt lat="59.302617" lon="17.942857">
        <ele>25.4</ele>
        <time>2018-11-10T12:06:30Z</time>
      </trkpt>
      <trkpt lat="59.302611" lon="17.942758">
        <ele>25.3</ele>
        <time>2018-11-10T12:06:31Z</time>
      </trkpt>
      <trkpt lat="59.302615" lon="17.942651">
        <ele>25.1</ele>
        <time>2018-11-10T12:06:32Z</time>
      </trkpt>
      <trkpt lat="59.302603" lon="17.942553">
        <ele>24.9</ele>
        <time>2018-11-10T12:06:33Z</time>
      </trkpt>
      <trkpt lat="59.302593" lon="17.942432">
        <ele>24.7</ele>
        <time>2018-11-10T12:06:34Z</time>
      </trkpt>
      <trkpt lat="59.302568" lon="17.942305">
        <ele>24.4</ele>
        <time>2018-11-10T12:06:35Z</time>
      </trkpt>
      <trkpt lat="59.302539" lon="17.942183">
        <ele>24.2</ele>
        <time>2018-11-10T12:06:36Z</time>
      </trkpt>
      <trkpt lat="59.302501" lon="17.94206">
        <ele>23.9</ele>
        <time>2018-11-10T12:06:37Z</time>
      </trkpt>
      <trkpt lat="59.302469" lon="17.941919">
        <ele>23.5</ele>
        <time>2018-11-10T12:06:38Z</time>
      </trkpt>
      <trkpt lat="59.302444" lon="17.941784">
        <ele>23.2</ele>
        <time>2018-11-10T12:06:39Z</time>
      </trkpt>
      <trkpt lat="59.302416" lon="17.941643">
        <ele>22.7</ele>
        <time>2018-11-10T12:06:40Z</time>
      </trkpt>
      <trkpt lat="59.302394" lon="17.941491">
        <ele>21.4</ele>
        <time>2018-11-10T12:06:41Z</time>
      </trkpt>
      <trkpt lat="59.302385" lon="17.941312">
        <ele>20.7</ele>
        <time>2018-11-10T12:06:42Z</time>
      </trkpt>
      <trkpt lat="59.302377" lon="17.941151">
        <ele>20.1</ele>
        <time>2018-11-10T12:06:43Z</time>
      </trkpt>
      <trkpt lat="59.302369" lon="17.940998">
        <ele>19.6</ele>
        <time>2018-11-10T12:06:44Z</time>
      </trkpt>
      <trkpt lat="59.302366" lon="17.940845">
        <ele>19.1</ele>
        <time>2018-11-10T12:06:45Z</time>
      </trkpt>
      <trkpt lat="59.302367" lon="17.940681">
        <ele>18.6</ele>
        <time>2018-11-10T12:06:46Z</time>
      </trkpt>
      <trkpt lat="59.302356" lon="17.940523">
        <ele>18.1</ele>
        <time>2018-11-10T12:06:47Z</time>
      </trkpt>
      <trkpt lat="59.302347" lon="17.94037">
        <ele>17.5</ele>
        <time>2018-11-10T12:06:48Z</time>
      </trkpt>
      <trkpt lat="59.30233" lon="17.940227">
        <ele>17.2</ele>
        <time>2018-11-10T12:06:49Z</time>
      </trkpt>
      <trkpt lat="59.302308" lon="17.940121">
        <ele>16.9</ele>
        <time>2018-11-10T12:06:50Z</time>
      </trkpt>
      <trkpt lat="59.30229" lon="17.940036">
        <ele>16.8</ele>
        <time>2018-11-10T12:06:51Z</time>
      </trkpt>
      <trkpt lat="59.302267" lon="17.939975">
        <ele>16.3</ele>
        <time>2018-11-10T12:06:52Z</time>
      </trkpt>
      <trkpt lat="59.302255" lon="17.939889">
        <ele>16.1</ele>
        <time>2018-11-10T12:06:53Z</time>
      </trkpt>
      <trkpt lat="59.302235" lon="17.939795">
        <ele>15.8</ele>
        <time>2018-11-10T12:06:54Z</time>
      </trkpt>
      <trkpt lat="59.302218" lon="17.939678">
        <ele>15.6</ele>
        <time>2018-11-10T12:06:55Z</time>
      </trkpt>
      <trkpt lat="59.302201" lon="17.939563">
        <ele>15.5</ele>
        <time>2018-11-10T12:06:56Z</time>
      </trkpt>
      <trkpt lat="59.302178" lon="17.939445">
        <ele>15.5</ele>
        <time>2018-11-10T12:06:57Z</time>
      </trkpt>
      <trkpt lat="59.30216" lon="17.939328">
        <ele>15.7</ele>
        <time>2018-11-10T12:06:58Z</time>
      </trkpt>
      <trkpt lat="59.302135" lon="17.939223">
        <ele>16</ele>
        <time>2018-11-10T12:06:59Z</time>
      </trkpt>
      <trkpt lat="59.302111" lon="17.939115">
        <ele>16.3</ele>
        <time>2018-11-10T12:07:00Z</time>
      </trkpt>
      <trkpt lat="59.302085" lon="17.93904">
        <ele>16.7</ele>
        <time>2018-11-10T12:07:01Z</time>
      </trkpt>
      <trkpt lat="59.302055" lon="17.938948">
        <ele>17.2</ele>
        <time>2018-11-10T12:07:02Z</time>
      </trkpt>
      <trkpt lat="59.302031" lon="17.938856">
        <ele>17.7</ele>
        <time>2018-11-10T12:07:03Z</time>
      </trkpt>
      <trkpt lat="59.302006" lon="17.938794">
        <ele>18.1</ele>
        <time>2018-11-10T12:07:04Z</time>
      </trkpt>
      <trkpt lat="59.301982" lon="17.938755">
        <ele>18.4</ele>
        <time>2018-11-10T12:07:05Z</time>
      </trkpt>
      <trkpt lat="59.301932" lon="17.938717">
        <ele>19</ele>
        <time>2018-11-10T12:07:07Z</time>
      </trkpt>
      <trkpt lat="59.301906" lon="17.938684">
        <ele>19.3</ele>
        <time>2018-11-10T12:07:08Z</time>
      </trkpt>
      <trkpt lat="59.301863" lon="17.938616">
        <ele>20</ele>
        <time>2018-11-10T12:07:10Z</time>
      </trkpt>
      <trkpt lat="59.301836" lon="17.938579">
        <ele>20.4</ele>
        <time>2018-11-10T12:07:11Z</time>
      </trkpt>
      <trkpt lat="59.301809" lon="17.938562">
        <ele>20.7</ele>
        <time>2018-11-10T12:07:12Z</time>
      </trkpt>
      <trkpt lat="59.301786" lon="17.938534">
        <ele>21.1</ele>
        <time>2018-11-10T12:07:13Z</time>
      </trkpt>
      <trkpt lat="59.301748" lon="17.938484">
        <ele>21.7</ele>
        <time>2018-11-10T12:07:15Z</time>
      </trkpt>
      <trkpt lat="59.301712" lon="17.938414">
        <ele>22.4</ele>
        <time>2018-11-10T12:07:17Z</time>
      </trkpt>
      <trkpt lat="59.301682" lon="17.938367">
        <ele>22.9</ele>
        <time>2018-11-10T12:07:19Z</time>
      </trkpt>
      <trkpt lat="59.301647" lon="17.938343">
        <ele>23.4</ele>
        <time>2018-11-10T12:07:21Z</time>
      </trkpt>
      <trkpt lat="59.301616" lon="17.93831">
        <ele>23.8</ele>
        <time>2018-11-10T12:07:23Z</time>
      </trkpt>
      <trkpt lat="59.301587" lon="17.938276">
        <ele>24.1</ele>
        <time>2018-11-10T12:07:25Z</time>
      </trkpt>
      <trkpt lat="59.301563" lon="17.938239">
        <ele>24.5</ele>
        <time>2018-11-10T12:07:27Z</time>
      </trkpt>
      <trkpt lat="59.301535" lon="17.938195">
        <ele>24.9</ele>
        <time>2018-11-10T12:07:29Z</time>
      </trkpt>
      <trkpt lat="59.301509" lon="17.938148">
        <ele>25.3</ele>
        <time>2018-11-10T12:07:31Z</time>
      </trkpt>
      <trkpt lat="59.301483" lon="17.9381">
        <ele>25.7</ele>
        <time>2018-11-10T12:07:33Z</time>
      </trkpt>
      <trkpt lat="59.301453" lon="17.938044">
        <ele>26.1</ele>
        <time>2018-11-10T12:07:35Z</time>
      </trkpt>
      <trkpt lat="59.301425" lon="17.937987">
        <ele>26.6</ele>
        <time>2018-11-10T12:07:37Z</time>
      </trkpt>
      <trkpt lat="59.301404" lon="17.937925">
        <ele>27</ele>
        <time>2018-11-10T12:07:39Z</time>
      </trkpt>
      <trkpt lat="59.301386" lon="17.937843">
        <ele>27.6</ele>
        <time>2018-11-10T12:07:41Z</time>
      </trkpt>
      <trkpt lat="59.301367" lon="17.937762">
        <ele>29.3</ele>
        <time>2018-11-10T12:07:43Z</time>
      </trkpt>
      <trkpt lat="59.301387" lon="17.937672">
        <ele>29.2</ele>
        <time>2018-11-10T12:07:45Z</time>
      </trkpt>
      <trkpt lat="59.30142" lon="17.937632">
        <ele>29.1</ele>
        <time>2018-11-10T12:07:46Z</time>
      </trkpt>
      <trkpt lat="59.301461" lon="17.937601">
        <ele>29</ele>
        <time>2018-11-10T12:07:47Z</time>
      </trkpt>
      <trkpt lat="59.301526" lon="17.937591">
        <ele>28.9</ele>
        <time>2018-11-10T12:07:48Z</time>
      </trkpt>
      <trkpt lat="59.301572" lon="17.937545">
        <ele>28.8</ele>
        <time>2018-11-10T12:07:49Z</time>
      </trkpt>
      <trkpt lat="59.301623" lon="17.937493">
        <ele>28.6</ele>
        <time>2018-11-10T12:07:50Z</time>
      </trkpt>
      <trkpt lat="59.301673" lon="17.937401">
        <ele>28.4</ele>
        <time>2018-11-10T12:07:51Z</time>
      </trkpt>
      <trkpt lat="59.301713" lon="17.937292">
        <ele>28.2</ele>
        <time>2018-11-10T12:07:52Z</time>
      </trkpt>
      <trkpt lat="59.301748" lon="17.937178">
        <ele>28</ele>
        <time>2018-11-10T12:07:53Z</time>
      </trkpt>
      <trkpt lat="59.301773" lon="17.937039">
        <ele>27.6</ele>
        <time>2018-11-10T12:07:54Z</time>
      </trkpt>
      <trkpt lat="59.301793" lon="17.936899">
        <ele>27.5</ele>
        <time>2018-11-10T12:07:55Z</time>
      </trkpt>
      <trkpt lat="59.301798" lon="17.936768">
        <ele>27.4</ele>
        <time>2018-11-10T12:07:56Z</time>
      </trkpt>
      <trkpt lat="59.301786" lon="17.93666">
        <ele>27.5</ele>
        <time>2018-11-10T12:07:57Z</time>
      </trkpt>
      <trkpt lat="59.301777" lon="17.93656">
        <ele>27.6</ele>
        <time>2018-11-10T12:07:58Z</time>
      </trkpt>
      <trkpt lat="59.30176" lon="17.936461">
        <ele>27.7</ele>
        <time>2018-11-10T12:07:59Z</time>
      </trkpt>
      <trkpt lat="59.301731" lon="17.936361">
        <ele>27.8</ele>
        <time>2018-11-10T12:08:00Z</time>
      </trkpt>
      <trkpt lat="59.301716" lon="17.936285">
        <ele>28</ele>
        <time>2018-11-10T12:08:01Z</time>
      </trkpt>
      <trkpt lat="59.301701" lon="17.936207">
        <ele>28.1</ele>
        <time>2018-11-10T12:08:02Z</time>
      </trkpt>
      <trkpt lat="59.301684" lon="17.936139">
        <ele>28.3</ele>
        <time>2018-11-10T12:08:03Z</time>
      </trkpt>
      <trkpt lat="59.301685" lon="17.93606">
        <ele>27.8</ele>
        <time>2018-11-10T12:08:04Z</time>
      </trkpt>
      <trkpt lat="59.301693" lon="17.93597">
        <ele>27.3</ele>
        <time>2018-11-10T12:08:05Z</time>
      </trkpt>
      <trkpt lat="59.301701" lon="17.935873">
        <ele>26.8</ele>
        <time>2018-11-10T12:08:06Z</time>
      </trkpt>
      <trkpt lat="59.301713" lon="17.93579">
        <ele>26.3</ele>
        <time>2018-11-10T12:08:07Z</time>
      </trkpt>
      <trkpt lat="59.301723" lon="17.93569">
        <ele>25.7</ele>
        <time>2018-11-10T12:08:08Z</time>
      </trkpt>
      <trkpt lat="59.301725" lon="17.935587">
        <ele>25.1</ele>
        <time>2018-11-10T12:08:09Z</time>
      </trkpt>
      <trkpt lat="59.30173" lon="17.935501">
        <ele>24.6</ele>
        <time>2018-11-10T12:08:10Z</time>
      </trkpt>
      <trkpt lat="59.301735" lon="17.935425">
        <ele>24.1</ele>
        <time>2018-11-10T12:08:11Z</time>
      </trkpt>
      <trkpt lat="59.301758" lon="17.935364">
        <ele>23.6</ele>
        <time>2018-11-10T12:08:12Z</time>
      </trkpt>
      <trkpt lat="59.301789" lon="17.935325">
        <ele>22.4</ele>
        <time>2018-11-10T12:08:13Z</time>
      </trkpt>
      <trkpt lat="59.301819" lon="17.935305">
        <ele>21.4</ele>
        <time>2018-11-10T12:08:14Z</time>
      </trkpt>
      <trkpt lat="59.301843" lon="17.935267">
        <ele>20.5</ele>
        <time>2018-11-10T12:08:15Z</time>
      </trkpt>
      <trkpt lat="59.30187" lon="17.935212">
        <ele>19.3</ele>
        <time>2018-11-10T12:08:16Z</time>
      </trkpt>
      <trkpt lat="59.301891" lon="17.935168">
        <ele>18.3</ele>
        <time>2018-11-10T12:08:17Z</time>
      </trkpt>
      <trkpt lat="59.30192" lon="17.935143">
        <ele>17.1</ele>
        <time>2018-11-10T12:08:18Z</time>
      </trkpt>
      <trkpt lat="59.301954" lon="17.935119">
        <ele>16.9</ele>
        <time>2018-11-10T12:08:19Z</time>
      </trkpt>
      <trkpt lat="59.301977" lon="17.935081">
        <ele>16.7</ele>
        <time>2018-11-10T12:08:20Z</time>
      </trkpt>
      <trkpt lat="59.301987" lon="17.934982">
        <ele>16.4</ele>
        <time>2018-11-10T12:08:22Z</time>
      </trkpt>
      <trkpt lat="59.301977" lon="17.934927">
        <ele>16.2</ele>
        <time>2018-11-10T12:08:23Z</time>
      </trkpt>
      <trkpt lat="59.301955" lon="17.934879">
        <ele>16</ele>
        <time>2018-11-10T12:08:24Z</time>
      </trkpt>
      <trkpt lat="59.301929" lon="17.934838">
        <ele>15.8</ele>
        <time>2018-11-10T12:08:25Z</time>
      </trkpt>
      <trkpt lat="59.3019" lon="17.934795">
        <ele>15.9</ele>
        <time>2018-11-10T12:08:26Z</time>
      </trkpt>
      <trkpt lat="59.301879" lon="17.934758">
        <ele>15.9</ele>
        <time>2018-11-10T12:08:27Z</time>
      </trkpt>
      <trkpt lat="59.30185" lon="17.934672">
        <ele>16.1</ele>
        <time>2018-11-10T12:08:29Z</time>
      </trkpt>
      <trkpt lat="59.301839" lon="17.934622">
        <ele>16.1</ele>
        <time>2018-11-10T12:08:30Z</time>
      </trkpt>
      <trkpt lat="59.301827" lon="17.934568">
        <ele>16.2</ele>
        <time>2018-11-10T12:08:31Z</time>
      </trkpt>
      <trkpt lat="59.301816" lon="17.934512">
        <ele>16.3</ele>
        <time>2018-11-10T12:08:32Z</time>
      </trkpt>
      <trkpt lat="59.301805" lon="17.934451">
        <ele>16.4</ele>
        <time>2018-11-10T12:08:33Z</time>
      </trkpt>
      <trkpt lat="59.301793" lon="17.934379">
        <ele>16.5</ele>
        <time>2018-11-10T12:08:34Z</time>
      </trkpt>
      <trkpt lat="59.301784" lon="17.934305">
        <ele>16.6</ele>
        <time>2018-11-10T12:08:35Z</time>
      </trkpt>
      <trkpt lat="59.30178" lon="17.934234">
        <ele>16.6</ele>
        <time>2018-11-10T12:08:36Z</time>
      </trkpt>
      <trkpt lat="59.301783" lon="17.934158">
        <ele>16.7</ele>
        <time>2018-11-10T12:08:37Z</time>
      </trkpt>
      <trkpt lat="59.301798" lon="17.934057">
        <ele>16.7</ele>
        <time>2018-11-10T12:08:38Z</time>
      </trkpt>
      <trkpt lat="59.301793" lon="17.933964">
        <ele>16.7</ele>
        <time>2018-11-10T12:08:39Z</time>
      </trkpt>
      <trkpt lat="59.301781" lon="17.93388">
        <ele>16.8</ele>
        <time>2018-11-10T12:08:40Z</time>
      </trkpt>
      <trkpt lat="59.301774" lon="17.933791">
        <ele>16.8</ele>
        <time>2018-11-10T12:08:41Z</time>
      </trkpt>
      <trkpt lat="59.301779" lon="17.933677">
        <ele>16.7</ele>
        <time>2018-11-10T12:08:42Z</time>
      </trkpt>
      <trkpt lat="59.301779" lon="17.933588">
        <ele>16.7</ele>
        <time>2018-11-10T12:08:43Z</time>
      </trkpt>
      <trkpt lat="59.30177" lon="17.933527">
        <ele>16.7</ele>
        <time>2018-11-10T12:08:44Z</time>
      </trkpt>
      <trkpt lat="59.30175" lon="17.933443">
        <ele>16.7</ele>
        <time>2018-11-10T12:08:45Z</time>
      </trkpt>
      <trkpt lat="59.301728" lon="17.933381">
        <ele>16.6</ele>
        <time>2018-11-10T12:08:46Z</time>
      </trkpt>
      <trkpt lat="59.301704" lon="17.9333">
        <ele>16.6</ele>
        <time>2018-11-10T12:08:47Z</time>
      </trkpt>
      <trkpt lat="59.301681" lon="17.933208">
        <ele>16.5</ele>
        <time>2018-11-10T12:08:48Z</time>
      </trkpt>
      <trkpt lat="59.301666" lon="17.933112">
        <ele>16.5</ele>
        <time>2018-11-10T12:08:49Z</time>
      </trkpt>
      <trkpt lat="59.301654" lon="17.933036">
        <ele>16.4</ele>
        <time>2018-11-10T12:08:50Z</time>
      </trkpt>
      <trkpt lat="59.301645" lon="17.932969">
        <ele>16.4</ele>
        <time>2018-11-10T12:08:51Z</time>
      </trkpt>
      <trkpt lat="59.301623" lon="17.932888">
        <ele>16.3</ele>
        <time>2018-11-10T12:08:52Z</time>
      </trkpt>
      <trkpt lat="59.301599" lon="17.932822">
        <ele>16.3</ele>
        <time>2018-11-10T12:08:53Z</time>
      </trkpt>
      <trkpt lat="59.301566" lon="17.932783">
        <ele>16.3</ele>
        <time>2018-11-10T12:08:54Z</time>
      </trkpt>
      <trkpt lat="59.301536" lon="17.932697">
        <ele>16.2</ele>
        <time>2018-11-10T12:08:55Z</time>
      </trkpt>
      <trkpt lat="59.301515" lon="17.932614">
        <ele>16.1</ele>
        <time>2018-11-10T12:08:56Z</time>
      </trkpt>
      <trkpt lat="59.301494" lon="17.932513">
        <ele>16</ele>
        <time>2018-11-10T12:08:57Z</time>
      </trkpt>
      <trkpt lat="59.301483" lon="17.932399">
        <ele>16</ele>
        <time>2018-11-10T12:08:58Z</time>
      </trkpt>
      <trkpt lat="59.301479" lon="17.932294">
        <ele>15.9</ele>
        <time>2018-11-10T12:08:59Z</time>
      </trkpt>
      <trkpt lat="59.30147" lon="17.932183">
        <ele>15.8</ele>
        <time>2018-11-10T12:09:00Z</time>
      </trkpt>
      <trkpt lat="59.301457" lon="17.932079">
        <ele>15.7</ele>
        <time>2018-11-10T12:09:01Z</time>
      </trkpt>
      <trkpt lat="59.301432" lon="17.931973">
        <ele>15.6</ele>
        <time>2018-11-10T12:09:02Z</time>
      </trkpt>
      <trkpt lat="59.301414" lon="17.931874">
        <ele>15.5</ele>
        <time>2018-11-10T12:09:03Z</time>
      </trkpt>
      <trkpt lat="59.301399" lon="17.931788">
        <ele>15.4</ele>
        <time>2018-11-10T12:09:04Z</time>
      </trkpt>
      <trkpt lat="59.301387" lon="17.931667">
        <ele>15.3</ele>
        <time>2018-11-10T12:09:05Z</time>
      </trkpt>
      <trkpt lat="59.301341" lon="17.931494">
        <ele>15.1</ele>
        <time>2018-11-10T12:09:06Z</time>
      </trkpt>
      <trkpt lat="59.30133" lon="17.931385">
        <ele>14.9</ele>
        <time>2018-11-10T12:09:07Z</time>
      </trkpt>
      <trkpt lat="59.301324" lon="17.931273">
        <ele>14.7</ele>
        <time>2018-11-10T12:09:08Z</time>
      </trkpt>
      <trkpt lat="59.301319" lon="17.931158">
        <ele>14.5</ele>
        <time>2018-11-10T12:09:09Z</time>
      </trkpt>
      <trkpt lat="59.301336" lon="17.931044">
        <ele>14.3</ele>
        <time>2018-11-10T12:09:10Z</time>
      </trkpt>
      <trkpt lat="59.301302" lon="17.930894">
        <ele>14</ele>
        <time>2018-11-10T12:09:11Z</time>
      </trkpt>
      <trkpt lat="59.30129" lon="17.930781">
        <ele>13.8</ele>
        <time>2018-11-10T12:09:12Z</time>
      </trkpt>
      <trkpt lat="59.301278" lon="17.930607">
        <ele>13.6</ele>
        <time>2018-11-10T12:09:13Z</time>
      </trkpt>
      <trkpt lat="59.301269" lon="17.930481">
        <ele>13.5</ele>
        <time>2018-11-10T12:09:14Z</time>
      </trkpt>
      <trkpt lat="59.301264" lon="17.930355">
        <ele>13.3</ele>
        <time>2018-11-10T12:09:15Z</time>
      </trkpt>
      <trkpt lat="59.301254" lon="17.930236">
        <ele>13.2</ele>
        <time>2018-11-10T12:09:16Z</time>
      </trkpt>
      <trkpt lat="59.301252" lon="17.930124">
        <ele>13.1</ele>
        <time>2018-11-10T12:09:17Z</time>
      </trkpt>
      <trkpt lat="59.30124" lon="17.930024">
        <ele>13.1</ele>
        <time>2018-11-10T12:09:18Z</time>
      </trkpt>
      <trkpt lat="59.301223" lon="17.929937">
        <ele>13</ele>
        <time>2018-11-10T12:09:19Z</time>
      </trkpt>
      <trkpt lat="59.30119" lon="17.929859">
        <ele>12.9</ele>
        <time>2018-11-10T12:09:20Z</time>
      </trkpt>
      <trkpt lat="59.30117" lon="17.929764">
        <ele>12.9</ele>
        <time>2018-11-10T12:09:21Z</time>
      </trkpt>
      <trkpt lat="59.301171" lon="17.929655">
        <ele>12.8</ele>
        <time>2018-11-10T12:09:22Z</time>
      </trkpt>
      <trkpt lat="59.301173" lon="17.929551">
        <ele>12.8</ele>
        <time>2018-11-10T12:09:23Z</time>
      </trkpt>
      <trkpt lat="59.301197" lon="17.929473">
        <ele>12.8</ele>
        <time>2018-11-10T12:09:24Z</time>
      </trkpt>
      <trkpt lat="59.301213" lon="17.929365">
        <ele>12.8</ele>
        <time>2018-11-10T12:09:25Z</time>
      </trkpt>
      <trkpt lat="59.301233" lon="17.929279">
        <ele>12.7</ele>
        <time>2018-11-10T12:09:26Z</time>
      </trkpt>
      <trkpt lat="59.301241" lon="17.929158">
        <ele>12.7</ele>
        <time>2018-11-10T12:09:27Z</time>
      </trkpt>
      <trkpt lat="59.301234" lon="17.929076">
        <ele>12.7</ele>
        <time>2018-11-10T12:09:28Z</time>
      </trkpt>
      <trkpt lat="59.301222" lon="17.928986">
        <ele>12.7</ele>
        <time>2018-11-10T12:09:29Z</time>
      </trkpt>
      <trkpt lat="59.301199" lon="17.92887">
        <ele>12.7</ele>
        <time>2018-11-10T12:09:30Z</time>
      </trkpt>
      <trkpt lat="59.301174" lon="17.928763">
        <ele>12.7</ele>
        <time>2018-11-10T12:09:31Z</time>
      </trkpt>
      <trkpt lat="59.30114" lon="17.928676">
        <ele>12.7</ele>
        <time>2018-11-10T12:09:32Z</time>
      </trkpt>
      <trkpt lat="59.3011" lon="17.928597">
        <ele>12.7</ele>
        <time>2018-11-10T12:09:33Z</time>
      </trkpt>
      <trkpt lat="59.301069" lon="17.928542">
        <ele>12.7</ele>
        <time>2018-11-10T12:09:34Z</time>
      </trkpt>
      <trkpt lat="59.301029" lon="17.928468">
        <ele>12.7</ele>
        <time>2018-11-10T12:09:35Z</time>
      </trkpt>
      <trkpt lat="59.300989" lon="17.928404">
        <ele>12.7</ele>
        <time>2018-11-10T12:09:36Z</time>
      </trkpt>
      <trkpt lat="59.300923" lon="17.928345">
        <ele>12.8</ele>
        <time>2018-11-10T12:09:37Z</time>
      </trkpt>
      <trkpt lat="59.300879" lon="17.928272">
        <ele>12.9</ele>
        <time>2018-11-10T12:09:38Z</time>
      </trkpt>
      <trkpt lat="59.300842" lon="17.928203">
        <ele>13</ele>
        <time>2018-11-10T12:09:39Z</time>
      </trkpt>
      <trkpt lat="59.300811" lon="17.928167">
        <ele>13.1</ele>
        <time>2018-11-10T12:09:40Z</time>
      </trkpt>
      <trkpt lat="59.300776" lon="17.928111">
        <ele>13.3</ele>
        <time>2018-11-10T12:09:41Z</time>
      </trkpt>
      <trkpt lat="59.30074" lon="17.928028">
        <ele>13.4</ele>
        <time>2018-11-10T12:09:42Z</time>
      </trkpt>
      <trkpt lat="59.300704" lon="17.927974">
        <ele>13.7</ele>
        <time>2018-11-10T12:09:43Z</time>
      </trkpt>
      <trkpt lat="59.300679" lon="17.927919">
        <ele>13.9</ele>
        <time>2018-11-10T12:09:44Z</time>
      </trkpt>
      <trkpt lat="59.300638" lon="17.927848">
        <ele>16.3</ele>
        <time>2018-11-10T12:09:45Z</time>
      </trkpt>
      <trkpt lat="59.300594" lon="17.927793">
        <ele>19.1</ele>
        <time>2018-11-10T12:09:46Z</time>
      </trkpt>
      <trkpt lat="59.300572" lon="17.927752">
        <ele>20.2</ele>
        <time>2018-11-10T12:09:47Z</time>
      </trkpt>
      <trkpt lat="59.300543" lon="17.927724">
        <ele>20.2</ele>
        <time>2018-11-10T12:09:48Z</time>
      </trkpt>
      <trkpt lat="59.300507" lon="17.927686">
        <ele>20.2</ele>
        <time>2018-11-10T12:09:49Z</time>
      </trkpt>
      <trkpt lat="59.300479" lon="17.92766">
        <ele>20.3</ele>
        <time>2018-11-10T12:09:50Z</time>
      </trkpt>
      <trkpt lat="59.300455" lon="17.927623">
        <ele>20.3</ele>
        <time>2018-11-10T12:09:51Z</time>
      </trkpt>
      <trkpt lat="59.300428" lon="17.927586">
        <ele>20.4</ele>
        <time>2018-11-10T12:09:52Z</time>
      </trkpt>
      <trkpt lat="59.300395" lon="17.927544">
        <ele>20.4</ele>
        <time>2018-11-10T12:09:53Z</time>
      </trkpt>
      <trkpt lat="59.30036" lon="17.927499">
        <ele>20.5</ele>
        <time>2018-11-10T12:09:54Z</time>
      </trkpt>
      <trkpt lat="59.300327" lon="17.92745">
        <ele>20.6</ele>
        <time>2018-11-10T12:09:55Z</time>
      </trkpt>
      <trkpt lat="59.300292" lon="17.927399">
        <ele>20.6</ele>
        <time>2018-11-10T12:09:56Z</time>
      </trkpt>
      <trkpt lat="59.300254" lon="17.927349">
        <ele>20.7</ele>
        <time>2018-11-10T12:09:57Z</time>
      </trkpt>
      <trkpt lat="59.300218" lon="17.927298">
        <ele>20.7</ele>
        <time>2018-11-10T12:09:58Z</time>
      </trkpt>
      <trkpt lat="59.30018" lon="17.927249">
        <ele>20.7</ele>
        <time>2018-11-10T12:09:59Z</time>
      </trkpt>
      <trkpt lat="59.300144" lon="17.927206">
        <ele>20.7</ele>
        <time>2018-11-10T12:10:00Z</time>
      </trkpt>
      <trkpt lat="59.300107" lon="17.927162">
        <ele>20.6</ele>
        <time>2018-11-10T12:10:01Z</time>
      </trkpt>
      <trkpt lat="59.300068" lon="17.927114">
        <ele>20.4</ele>
        <time>2018-11-10T12:10:02Z</time>
      </trkpt>
      <trkpt lat="59.300032" lon="17.927064">
        <ele>20.3</ele>
        <time>2018-11-10T12:10:03Z</time>
      </trkpt>
      <trkpt lat="59.299998" lon="17.927007">
        <ele>20</ele>
        <time>2018-11-10T12:10:04Z</time>
      </trkpt>
      <trkpt lat="59.299965" lon="17.92694">
        <ele>19.8</ele>
        <time>2018-11-10T12:10:05Z</time>
      </trkpt>
      <trkpt lat="59.299931" lon="17.926819">
        <ele>19.5</ele>
        <time>2018-11-10T12:10:06Z</time>
      </trkpt>
      <trkpt lat="59.299909" lon="17.92672">
        <ele>19.3</ele>
        <time>2018-11-10T12:10:07Z</time>
      </trkpt>
      <trkpt lat="59.299885" lon="17.926648">
        <ele>19.1</ele>
        <time>2018-11-10T12:10:08Z</time>
      </trkpt>
      <trkpt lat="59.299842" lon="17.926541">
        <ele>18.8</ele>
        <time>2018-11-10T12:10:09Z</time>
      </trkpt>
      <trkpt lat="59.299819" lon="17.926453">
        <ele>18.6</ele>
        <time>2018-11-10T12:10:10Z</time>
      </trkpt>
      <trkpt lat="59.299793" lon="17.926348">
        <ele>18.3</ele>
        <time>2018-11-10T12:10:11Z</time>
      </trkpt>
      <trkpt lat="59.299779" lon="17.92623">
        <ele>18.2</ele>
        <time>2018-11-10T12:10:12Z</time>
      </trkpt>
      <trkpt lat="59.299757" lon="17.926115">
        <ele>17.9</ele>
        <time>2018-11-10T12:10:13Z</time>
      </trkpt>
      <trkpt lat="59.299735" lon="17.925996">
        <ele>17.6</ele>
        <time>2018-11-10T12:10:14Z</time>
      </trkpt>
      <trkpt lat="59.299714" lon="17.925893">
        <ele>17.4</ele>
        <time>2018-11-10T12:10:15Z</time>
      </trkpt>
      <trkpt lat="59.299694" lon="17.925793">
        <ele>17.1</ele>
        <time>2018-11-10T12:10:16Z</time>
      </trkpt>
      <trkpt lat="59.299672" lon="17.925672">
        <ele>16.6</ele>
        <time>2018-11-10T12:10:17Z</time>
      </trkpt>
      <trkpt lat="59.299656" lon="17.925525">
        <ele>15.8</ele>
        <time>2018-11-10T12:10:18Z</time>
      </trkpt>
      <trkpt lat="59.299644" lon="17.925397">
        <ele>15.4</ele>
        <time>2018-11-10T12:10:19Z</time>
      </trkpt>
      <trkpt lat="59.299634" lon="17.925263">
        <ele>15.1</ele>
        <time>2018-11-10T12:10:20Z</time>
      </trkpt>
      <trkpt lat="59.299647" lon="17.925145">
        <ele>14.8</ele>
        <time>2018-11-10T12:10:21Z</time>
      </trkpt>
      <trkpt lat="59.299649" lon="17.925042">
        <ele>14.5</ele>
        <time>2018-11-10T12:10:22Z</time>
      </trkpt>
      <trkpt lat="59.299634" lon="17.92495">
        <ele>14.2</ele>
        <time>2018-11-10T12:10:23Z</time>
      </trkpt>
      <trkpt lat="59.299636" lon="17.924821">
        <ele>13.7</ele>
        <time>2018-11-10T12:10:24Z</time>
      </trkpt>
      <trkpt lat="59.299632" lon="17.924708">
        <ele>13.4</ele>
        <time>2018-11-10T12:10:25Z</time>
      </trkpt>
      <trkpt lat="59.299628" lon="17.924595">
        <ele>13.2</ele>
        <time>2018-11-10T12:10:26Z</time>
      </trkpt>
      <trkpt lat="59.299626" lon="17.924471">
        <ele>12.9</ele>
        <time>2018-11-10T12:10:27Z</time>
      </trkpt>
      <trkpt lat="59.299624" lon="17.924332">
        <ele>12.9</ele>
        <time>2018-11-10T12:10:28Z</time>
      </trkpt>
      <trkpt lat="59.299615" lon="17.924198">
        <ele>12.8</ele>
        <time>2018-11-10T12:10:29Z</time>
      </trkpt>
      <trkpt lat="59.29961" lon="17.924078">
        <ele>12.6</ele>
        <time>2018-11-10T12:10:30Z</time>
      </trkpt>
      <trkpt lat="59.299612" lon="17.923957">
        <ele>12.4</ele>
        <time>2018-11-10T12:10:31Z</time>
      </trkpt>
      <trkpt lat="59.299595" lon="17.923836">
        <ele>12.2</ele>
        <time>2018-11-10T12:10:32Z</time>
      </trkpt>
      <trkpt lat="59.299574" lon="17.92372">
        <ele>11.9</ele>
        <time>2018-11-10T12:10:33Z</time>
      </trkpt>
      <trkpt lat="59.299553" lon="17.923594">
        <ele>11.6</ele>
        <time>2018-11-10T12:10:34Z</time>
      </trkpt>
      <trkpt lat="59.299539" lon="17.923469">
        <ele>11.3</ele>
        <time>2018-11-10T12:10:35Z</time>
      </trkpt>
      <trkpt lat="59.299525" lon="17.923339">
        <ele>11.1</ele>
        <time>2018-11-10T12:10:36Z</time>
      </trkpt>
      <trkpt lat="59.299513" lon="17.92319">
        <ele>10.8</ele>
        <time>2018-11-10T12:10:37Z</time>
      </trkpt>
      <trkpt lat="59.299496" lon="17.923033">
        <ele>10.5</ele>
        <time>2018-11-10T12:10:38Z</time>
      </trkpt>
      <trkpt lat="59.299483" lon="17.922894">
        <ele>10.3</ele>
        <time>2018-11-10T12:10:39Z</time>
      </trkpt>
      <trkpt lat="59.299473" lon="17.922783">
        <ele>10</ele>
        <time>2018-11-10T12:10:40Z</time>
      </trkpt>
      <trkpt lat="59.299462" lon="17.922688">
        <ele>9.8</ele>
        <time>2018-11-10T12:10:41Z</time>
      </trkpt>
      <trkpt lat="59.299452" lon="17.922585">
        <ele>9.6</ele>
        <time>2018-11-10T12:10:42Z</time>
      </trkpt>
      <trkpt lat="59.299434" lon="17.922491">
        <ele>9.4</ele>
        <time>2018-11-10T12:10:43Z</time>
      </trkpt>
      <trkpt lat="59.299403" lon="17.922416">
        <ele>9.3</ele>
        <time>2018-11-10T12:10:44Z</time>
      </trkpt>
      <trkpt lat="59.299376" lon="17.922323">
        <ele>9.2</ele>
        <time>2018-11-10T12:10:45Z</time>
      </trkpt>
      <trkpt lat="59.299347" lon="17.922228">
        <ele>9.1</ele>
        <time>2018-11-10T12:10:46Z</time>
      </trkpt>
      <trkpt lat="59.299321" lon="17.92214">
        <ele>9.1</ele>
        <time>2018-11-10T12:10:47Z</time>
      </trkpt>
      <trkpt lat="59.299291" lon="17.922056">
        <ele>9.2</ele>
        <time>2018-11-10T12:10:48Z</time>
      </trkpt>
      <trkpt lat="59.299256" lon="17.921948">
        <ele>9.3</ele>
        <time>2018-11-10T12:10:49Z</time>
      </trkpt>
      <trkpt lat="59.299218" lon="17.921842">
        <ele>9.4</ele>
        <time>2018-11-10T12:10:50Z</time>
      </trkpt>
      <trkpt lat="59.299181" lon="17.921741">
        <ele>9.5</ele>
        <time>2018-11-10T12:10:51Z</time>
      </trkpt>
      <trkpt lat="59.299151" lon="17.921628">
        <ele>9.5</ele>
        <time>2018-11-10T12:10:52Z</time>
      </trkpt>
      <trkpt lat="59.299124" lon="17.921501">
        <ele>9.6</ele>
        <time>2018-11-10T12:10:53Z</time>
      </trkpt>
      <trkpt lat="59.299098" lon="17.921357">
        <ele>9.6</ele>
        <time>2018-11-10T12:10:54Z</time>
      </trkpt>
      <trkpt lat="59.29909" lon="17.921248">
        <ele>9.6</ele>
        <time>2018-11-10T12:10:55Z</time>
      </trkpt>
      <trkpt lat="59.299073" lon="17.921128">
        <ele>9.6</ele>
        <time>2018-11-10T12:10:56Z</time>
      </trkpt>
      <trkpt lat="59.299055" lon="17.92102">
        <ele>9.6</ele>
        <time>2018-11-10T12:10:57Z</time>
      </trkpt>
      <trkpt lat="59.29903" lon="17.920916">
        <ele>9.5</ele>
        <time>2018-11-10T12:10:58Z</time>
      </trkpt>
      <trkpt lat="59.299005" lon="17.920817">
        <ele>9.5</ele>
        <time>2018-11-10T12:10:59Z</time>
      </trkpt>
      <trkpt lat="59.298985" lon="17.920721">
        <ele>9.5</ele>
        <time>2018-11-10T12:11:00Z</time>
      </trkpt>
      <trkpt lat="59.298958" lon="17.920612">
        <ele>9.6</ele>
        <time>2018-11-10T12:11:01Z</time>
      </trkpt>
      <trkpt lat="59.298931" lon="17.920514">
        <ele>9.6</ele>
        <time>2018-11-10T12:11:02Z</time>
      </trkpt>
      <trkpt lat="59.298905" lon="17.920408">
        <ele>9.7</ele>
        <time>2018-11-10T12:11:03Z</time>
      </trkpt>
      <trkpt lat="59.29888" lon="17.920288">
        <ele>9.8</ele>
        <time>2018-11-10T12:11:04Z</time>
      </trkpt>
      <trkpt lat="59.298852" lon="17.920169">
        <ele>9.9</ele>
        <time>2018-11-10T12:11:05Z</time>
      </trkpt>
      <trkpt lat="59.298824" lon="17.920054">
        <ele>10</ele>
        <time>2018-11-10T12:11:06Z</time>
      </trkpt>
      <trkpt lat="59.298807" lon="17.919937">
        <ele>10.1</ele>
        <time>2018-11-10T12:11:07Z</time>
      </trkpt>
      <trkpt lat="59.29879" lon="17.919814">
        <ele>10.2</ele>
        <time>2018-11-10T12:11:08Z</time>
      </trkpt>
      <trkpt lat="59.298777" lon="17.91972">
        <ele>10.3</ele>
        <time>2018-11-10T12:11:09Z</time>
      </trkpt>
      <trkpt lat="59.298746" lon="17.919584">
        <ele>10.5</ele>
        <time>2018-11-10T12:11:10Z</time>
      </trkpt>
      <trkpt lat="59.29873" lon="17.919484">
        <ele>10.6</ele>
        <time>2018-11-10T12:11:11Z</time>
      </trkpt>
      <trkpt lat="59.298706" lon="17.919395">
        <ele>10.7</ele>
        <time>2018-11-10T12:11:12Z</time>
      </trkpt>
      <trkpt lat="59.298681" lon="17.919301">
        <ele>10.8</ele>
        <time>2018-11-10T12:11:13Z</time>
      </trkpt>
      <trkpt lat="59.298665" lon="17.919197">
        <ele>11</ele>
        <time>2018-11-10T12:11:14Z</time>
      </trkpt>
      <trkpt lat="59.298654" lon="17.919107">
        <ele>11.1</ele>
        <time>2018-11-10T12:11:15Z</time>
      </trkpt>
      <trkpt lat="59.298638" lon="17.919036">
        <ele>11.3</ele>
        <time>2018-11-10T12:11:16Z</time>
      </trkpt>
      <trkpt lat="59.29862" lon="17.918972">
        <ele>11.4</ele>
        <time>2018-11-10T12:11:17Z</time>
      </trkpt>
      <trkpt lat="59.298599" lon="17.918892">
        <ele>11.6</ele>
        <time>2018-11-10T12:11:18Z</time>
      </trkpt>
      <trkpt lat="59.29858" lon="17.918818">
        <ele>11.8</ele>
        <time>2018-11-10T12:11:19Z</time>
      </trkpt>
      <trkpt lat="59.298555" lon="17.918754">
        <ele>12</ele>
        <time>2018-11-10T12:11:20Z</time>
      </trkpt>
      <trkpt lat="59.298526" lon="17.918675">
        <ele>12.3</ele>
        <time>2018-11-10T12:11:21Z</time>
      </trkpt>
      <trkpt lat="59.2985" lon="17.918584">
        <ele>12.6</ele>
        <time>2018-11-10T12:11:22Z</time>
      </trkpt>
      <trkpt lat="59.298469" lon="17.918491">
        <ele>12.9</ele>
        <time>2018-11-10T12:11:23Z</time>
      </trkpt>
      <trkpt lat="59.29841" lon="17.918357">
        <ele>13.3</ele>
        <time>2018-11-10T12:11:24Z</time>
      </trkpt>
      <trkpt lat="59.298369" lon="17.91827">
        <ele>13.5</ele>
        <time>2018-11-10T12:11:25Z</time>
      </trkpt>
      <trkpt lat="59.298335" lon="17.918171">
        <ele>13.7</ele>
        <time>2018-11-10T12:11:26Z</time>
      </trkpt>
      <trkpt lat="59.298298" lon="17.918086">
        <ele>13.8</ele>
        <time>2018-11-10T12:11:27Z</time>
      </trkpt>
      <trkpt lat="59.298261" lon="17.917995">
        <ele>13.9</ele>
        <time>2018-11-10T12:11:28Z</time>
      </trkpt>
      <trkpt lat="59.298217" lon="17.917883">
        <ele>14</ele>
        <time>2018-11-10T12:11:29Z</time>
      </trkpt>
      <trkpt lat="59.298184" lon="17.917755">
        <ele>13.9</ele>
        <time>2018-11-10T12:11:30Z</time>
      </trkpt>
      <trkpt lat="59.298133" lon="17.917607">
        <ele>13.6</ele>
        <time>2018-11-10T12:11:31Z</time>
      </trkpt>
      <trkpt lat="59.298088" lon="17.917467">
        <ele>13.4</ele>
        <time>2018-11-10T12:11:32Z</time>
      </trkpt>
      <trkpt lat="59.298041" lon="17.917356">
        <ele>13.2</ele>
        <time>2018-11-10T12:11:33Z</time>
      </trkpt>
      <trkpt lat="59.298007" lon="17.917253">
        <ele>13</ele>
        <time>2018-11-10T12:11:34Z</time>
      </trkpt>
      <trkpt lat="59.297977" lon="17.917136">
        <ele>12.8</ele>
        <time>2018-11-10T12:11:35Z</time>
      </trkpt>
      <trkpt lat="59.297956" lon="17.917029">
        <ele>12.7</ele>
        <time>2018-11-10T12:11:36Z</time>
      </trkpt>
      <trkpt lat="59.297938" lon="17.916919">
        <ele>12.6</ele>
        <time>2018-11-10T12:11:37Z</time>
      </trkpt>
      <trkpt lat="59.297932" lon="17.916823">
        <ele>12.6</ele>
        <time>2018-11-10T12:11:38Z</time>
      </trkpt>
      <trkpt lat="59.297926" lon="17.916728">
        <ele>12.6</ele>
        <time>2018-11-10T12:11:39Z</time>
      </trkpt>
      <trkpt lat="59.297926" lon="17.916649">
        <ele>12.6</ele>
        <time>2018-11-10T12:11:40Z</time>
      </trkpt>
      <trkpt lat="59.297916" lon="17.916577">
        <ele>12.6</ele>
        <time>2018-11-10T12:11:41Z</time>
      </trkpt>
      <trkpt lat="59.29791" lon="17.916496">
        <ele>12.7</ele>
        <time>2018-11-10T12:11:42Z</time>
      </trkpt>
      <trkpt lat="59.297903" lon="17.916417">
        <ele>12.9</ele>
        <time>2018-11-10T12:11:43Z</time>
      </trkpt>
      <trkpt lat="59.297917" lon="17.916329">
        <ele>13.1</ele>
        <time>2018-11-10T12:11:44Z</time>
      </trkpt>
      <trkpt lat="59.297915" lon="17.916273">
        <ele>13.2</ele>
        <time>2018-11-10T12:11:45Z</time>
      </trkpt>
      <trkpt lat="59.297869" lon="17.91621">
        <ele>13.6</ele>
        <time>2018-11-10T12:11:46Z</time>
      </trkpt>
      <trkpt lat="59.297853" lon="17.916143">
        <ele>13.8</ele>
        <time>2018-11-10T12:11:47Z</time>
      </trkpt>
      <trkpt lat="59.297833" lon="17.916099">
        <ele>13.9</ele>
        <time>2018-11-10T12:11:48Z</time>
      </trkpt>
      <trkpt lat="59.297814" lon="17.916051">
        <ele>14.1</ele>
        <time>2018-11-10T12:11:49Z</time>
      </trkpt>
      <trkpt lat="59.297791" lon="17.916">
        <ele>14.4</ele>
        <time>2018-11-10T12:11:50Z</time>
      </trkpt>
      <trkpt lat="59.297739" lon="17.915889">
        <ele>14.9</ele>
        <time>2018-11-10T12:11:52Z</time>
      </trkpt>
      <trkpt lat="59.297718" lon="17.915841">
        <ele>15.1</ele>
        <time>2018-11-10T12:11:53Z</time>
      </trkpt>
      <trkpt lat="59.297696" lon="17.915791">
        <ele>15.3</ele>
        <time>2018-11-10T12:11:54Z</time>
      </trkpt>
      <trkpt lat="59.297673" lon="17.91574">
        <ele>15.5</ele>
        <time>2018-11-10T12:11:55Z</time>
      </trkpt>
      <trkpt lat="59.297651" lon="17.915689">
        <ele>15.7</ele>
        <time>2018-11-10T12:11:56Z</time>
      </trkpt>
      <trkpt lat="59.297629" lon="17.915642">
        <ele>15.9</ele>
        <time>2018-11-10T12:11:57Z</time>
      </trkpt>
      <trkpt lat="59.297608" lon="17.915593">
        <ele>16.1</ele>
        <time>2018-11-10T12:11:58Z</time>
      </trkpt>
      <trkpt lat="59.29759" lon="17.915551">
        <ele>16.3</ele>
        <time>2018-11-10T12:11:59Z</time>
      </trkpt>
      <trkpt lat="59.297564" lon="17.915465">
        <ele>16.7</ele>
        <time>2018-11-10T12:12:01Z</time>
      </trkpt>
      <trkpt lat="59.297533" lon="17.915388">
        <ele>17.1</ele>
        <time>2018-11-10T12:12:03Z</time>
      </trkpt>
      <trkpt lat="59.2975" lon="17.915317">
        <ele>17.5</ele>
        <time>2018-11-10T12:12:05Z</time>
      </trkpt>
      <trkpt lat="59.297482" lon="17.915274">
        <ele>17.8</ele>
        <time>2018-11-10T12:12:06Z</time>
      </trkpt>
      <trkpt lat="59.297456" lon="17.915186">
        <ele>18.2</ele>
        <time>2018-11-10T12:12:08Z</time>
      </trkpt>
      <trkpt lat="59.29744" lon="17.91514">
        <ele>18.4</ele>
        <time>2018-11-10T12:12:09Z</time>
      </trkpt>
      <trkpt lat="59.297421" lon="17.915097">
        <ele>18.7</ele>
        <time>2018-11-10T12:12:10Z</time>
      </trkpt>
      <trkpt lat="59.297404" lon="17.915051">
        <ele>18.9</ele>
        <time>2018-11-10T12:12:11Z</time>
      </trkpt>
      <trkpt lat="59.297383" lon="17.915006">
        <ele>19.1</ele>
        <time>2018-11-10T12:12:12Z</time>
      </trkpt>
      <trkpt lat="59.297359" lon="17.914965">
        <ele>19.3</ele>
        <time>2018-11-10T12:12:13Z</time>
      </trkpt>
      <trkpt lat="59.297333" lon="17.914926">
        <ele>19.5</ele>
        <time>2018-11-10T12:12:14Z</time>
      </trkpt>
      <trkpt lat="59.297305" lon="17.914888">
        <ele>19.7</ele>
        <time>2018-11-10T12:12:15Z</time>
      </trkpt>
      <trkpt lat="59.297278" lon="17.914854">
        <ele>19.9</ele>
        <time>2018-11-10T12:12:16Z</time>
      </trkpt>
      <trkpt lat="59.29725" lon="17.914819">
        <ele>20.1</ele>
        <time>2018-11-10T12:12:17Z</time>
      </trkpt>
      <trkpt lat="59.29722" lon="17.914778">
        <ele>20.2</ele>
        <time>2018-11-10T12:12:18Z</time>
      </trkpt>
      <trkpt lat="59.297175" lon="17.914724">
        <ele>20.4</ele>
        <time>2018-11-10T12:12:19Z</time>
      </trkpt>
      <trkpt lat="59.297134" lon="17.91466">
        <ele>20.5</ele>
        <time>2018-11-10T12:12:20Z</time>
      </trkpt>
      <trkpt lat="59.297103" lon="17.914574">
        <ele>20.6</ele>
        <time>2018-11-10T12:12:21Z</time>
      </trkpt>
      <trkpt lat="59.297079" lon="17.914489">
        <ele>20.7</ele>
        <time>2018-11-10T12:12:22Z</time>
      </trkpt>
      <trkpt lat="59.297058" lon="17.914387">
        <ele>20.8</ele>
        <time>2018-11-10T12:12:23Z</time>
      </trkpt>
      <trkpt lat="59.297039" lon="17.914291">
        <ele>20.9</ele>
        <time>2018-11-10T12:12:24Z</time>
      </trkpt>
      <trkpt lat="59.297027" lon="17.914203">
        <ele>21</ele>
        <time>2018-11-10T12:12:25Z</time>
      </trkpt>
      <trkpt lat="59.297011" lon="17.9141">
        <ele>20.4</ele>
        <time>2018-11-10T12:12:26Z</time>
      </trkpt>
      <trkpt lat="59.297017" lon="17.913985">
        <ele>19.9</ele>
        <time>2018-11-10T12:12:27Z</time>
      </trkpt>
      <trkpt lat="59.297018" lon="17.913877">
        <ele>19.4</ele>
        <time>2018-11-10T12:12:28Z</time>
      </trkpt>
      <trkpt lat="59.297046" lon="17.91374">
        <ele>18.9</ele>
        <time>2018-11-10T12:12:29Z</time>
      </trkpt>
      <trkpt lat="59.297059" lon="17.913619">
        <ele>18.4</ele>
        <time>2018-11-10T12:12:30Z</time>
      </trkpt>
      <trkpt lat="59.297102" lon="17.913486">
        <ele>18</ele>
        <time>2018-11-10T12:12:31Z</time>
      </trkpt>
      <trkpt lat="59.29712" lon="17.913411">
        <ele>17.9</ele>
        <time>2018-11-10T12:12:32Z</time>
      </trkpt>
      <trkpt lat="59.297128" lon="17.913272">
        <ele>17.6</ele>
        <time>2018-11-10T12:12:33Z</time>
      </trkpt>
      <trkpt lat="59.297134" lon="17.913152">
        <ele>17.4</ele>
        <time>2018-11-10T12:12:34Z</time>
      </trkpt>
      <trkpt lat="59.297138" lon="17.913028">
        <ele>17.1</ele>
        <time>2018-11-10T12:12:35Z</time>
      </trkpt>
      <trkpt lat="59.297143" lon="17.912916">
        <ele>17</ele>
        <time>2018-11-10T12:12:36Z</time>
      </trkpt>
      <trkpt lat="59.297139" lon="17.912837">
        <ele>16.8</ele>
        <time>2018-11-10T12:12:37Z</time>
      </trkpt>
      <trkpt lat="59.297153" lon="17.912743">
        <ele>16.7</ele>
        <time>2018-11-10T12:12:38Z</time>
      </trkpt>
      <trkpt lat="59.297163" lon="17.91265">
        <ele>16.6</ele>
        <time>2018-11-10T12:12:39Z</time>
      </trkpt>
      <trkpt lat="59.297166" lon="17.912573">
        <ele>16.5</ele>
        <time>2018-11-10T12:12:40Z</time>
      </trkpt>
      <trkpt lat="59.297179" lon="17.912491">
        <ele>16.4</ele>
        <time>2018-11-10T12:12:41Z</time>
      </trkpt>
      <trkpt lat="59.297177" lon="17.912429">
        <ele>16.3</ele>
        <time>2018-11-10T12:12:42Z</time>
      </trkpt>
      <trkpt lat="59.29718" lon="17.912344">
        <ele>16.2</ele>
        <time>2018-11-10T12:12:44Z</time>
      </trkpt>
      <trkpt lat="59.297169" lon="17.912295">
        <ele>16.2</ele>
        <time>2018-11-10T12:12:45Z</time>
      </trkpt>
      <trkpt lat="59.297154" lon="17.912233">
        <ele>16.1</ele>
        <time>2018-11-10T12:12:46Z</time>
      </trkpt>
      <trkpt lat="59.297144" lon="17.91216">
        <ele>16.1</ele>
        <time>2018-11-10T12:12:47Z</time>
      </trkpt>
      <trkpt lat="59.297136" lon="17.912092">
        <ele>16</ele>
        <time>2018-11-10T12:12:48Z</time>
      </trkpt>
      <trkpt lat="59.297135" lon="17.911976">
        <ele>15.9</ele>
        <time>2018-11-10T12:12:49Z</time>
      </trkpt>
      <trkpt lat="59.297126" lon="17.91191">
        <ele>15.8</ele>
        <time>2018-11-10T12:12:50Z</time>
      </trkpt>
      <trkpt lat="59.297112" lon="17.911842">
        <ele>15.7</ele>
        <time>2018-11-10T12:12:51Z</time>
      </trkpt>
      <trkpt lat="59.297095" lon="17.911779">
        <ele>15.6</ele>
        <time>2018-11-10T12:12:52Z</time>
      </trkpt>
      <trkpt lat="59.297076" lon="17.911713">
        <ele>15.5</ele>
        <time>2018-11-10T12:12:53Z</time>
      </trkpt>
      <trkpt lat="59.297052" lon="17.911647">
        <ele>15.3</ele>
        <time>2018-11-10T12:12:54Z</time>
      </trkpt>
      <trkpt lat="59.297029" lon="17.911581">
        <ele>15.2</ele>
        <time>2018-11-10T12:12:55Z</time>
      </trkpt>
      <trkpt lat="59.297005" lon="17.911512">
        <ele>15.1</ele>
        <time>2018-11-10T12:12:56Z</time>
      </trkpt>
      <trkpt lat="59.296981" lon="17.911439">
        <ele>15</ele>
        <time>2018-11-10T12:12:57Z</time>
      </trkpt>
      <trkpt lat="59.29696" lon="17.911369">
        <ele>14.9</ele>
        <time>2018-11-10T12:12:58Z</time>
      </trkpt>
      <trkpt lat="59.296945" lon="17.911299">
        <ele>14.8</ele>
        <time>2018-11-10T12:12:59Z</time>
      </trkpt>
      <trkpt lat="59.296941" lon="17.911222">
        <ele>14.7</ele>
        <time>2018-11-10T12:13:00Z</time>
      </trkpt>
      <trkpt lat="59.296996" lon="17.91112">
        <ele>14.6</ele>
        <time>2018-11-10T12:13:01Z</time>
      </trkpt>
      <trkpt lat="59.297016" lon="17.911055">
        <ele>14.6</ele>
        <time>2018-11-10T12:13:02Z</time>
      </trkpt>
      <trkpt lat="59.297007" lon="17.910962">
        <ele>14.5</ele>
        <time>2018-11-10T12:13:03Z</time>
      </trkpt>
      <trkpt lat="59.296999" lon="17.910874">
        <ele>14.4</ele>
        <time>2018-11-10T12:13:04Z</time>
      </trkpt>
      <trkpt lat="59.297" lon="17.910769">
        <ele>14.3</ele>
        <time>2018-11-10T12:13:05Z</time>
      </trkpt>
      <trkpt lat="59.296992" lon="17.91069">
        <ele>14.3</ele>
        <time>2018-11-10T12:13:06Z</time>
      </trkpt>
      <trkpt lat="59.296969" lon="17.910575">
        <ele>14.2</ele>
        <time>2018-11-10T12:13:07Z</time>
      </trkpt>
      <trkpt lat="59.296946" lon="17.910439">
        <ele>14</ele>
        <time>2018-11-10T12:13:08Z</time>
      </trkpt>
      <trkpt lat="59.29692" lon="17.910346">
        <ele>13.9</ele>
        <time>2018-11-10T12:13:09Z</time>
      </trkpt>
      <trkpt lat="59.296887" lon="17.910277">
        <ele>13.8</ele>
        <time>2018-11-10T12:13:10Z</time>
      </trkpt>
      <trkpt lat="59.296854" lon="17.91021">
        <ele>13.7</ele>
        <time>2018-11-10T12:13:11Z</time>
      </trkpt>
      <trkpt lat="59.29682" lon="17.910128">
        <ele>13.7</ele>
        <time>2018-11-10T12:13:12Z</time>
      </trkpt>
      <trkpt lat="59.296799" lon="17.910046">
        <ele>13.6</ele>
        <time>2018-11-10T12:13:13Z</time>
      </trkpt>
      <trkpt lat="59.296764" lon="17.90998">
        <ele>13.5</ele>
        <time>2018-11-10T12:13:14Z</time>
      </trkpt>
      <trkpt lat="59.29674" lon="17.909906">
        <ele>13.4</ele>
        <time>2018-11-10T12:13:15Z</time>
      </trkpt>
      <trkpt lat="59.29671" lon="17.909833">
        <ele>13.4</ele>
        <time>2018-11-10T12:13:16Z</time>
      </trkpt>
      <trkpt lat="59.296678" lon="17.909751">
        <ele>13.3</ele>
        <time>2018-11-10T12:13:17Z</time>
      </trkpt>
      <trkpt lat="59.296672" lon="17.909641">
        <ele>13.2</ele>
        <time>2018-11-10T12:13:18Z</time>
      </trkpt>
      <trkpt lat="59.296652" lon="17.909553">
        <ele>13.1</ele>
        <time>2018-11-10T12:13:19Z</time>
      </trkpt>
      <trkpt lat="59.296628" lon="17.909457">
        <ele>13</ele>
        <time>2018-11-10T12:13:20Z</time>
      </trkpt>
      <trkpt lat="59.296585" lon="17.909333">
        <ele>12.9</ele>
        <time>2018-11-10T12:13:21Z</time>
      </trkpt>
      <trkpt lat="59.296543" lon="17.909218">
        <ele>12.7</ele>
        <time>2018-11-10T12:13:22Z</time>
      </trkpt>
      <trkpt lat="59.296508" lon="17.909104">
        <ele>12.6</ele>
        <time>2018-11-10T12:13:23Z</time>
      </trkpt>
      <trkpt lat="59.296452" lon="17.909019">
        <ele>12.5</ele>
        <time>2018-11-10T12:13:24Z</time>
      </trkpt>
      <trkpt lat="59.296397" lon="17.90893">
        <ele>12.4</ele>
        <time>2018-11-10T12:13:25Z</time>
      </trkpt>
      <trkpt lat="59.296341" lon="17.908841">
        <ele>12.3</ele>
        <time>2018-11-10T12:13:26Z</time>
      </trkpt>
      <trkpt lat="59.296278" lon="17.908753">
        <ele>12.1</ele>
        <time>2018-11-10T12:13:27Z</time>
      </trkpt>
      <trkpt lat="59.296225" lon="17.90867">
        <ele>12</ele>
        <time>2018-11-10T12:13:28Z</time>
      </trkpt>
      <trkpt lat="59.29618" lon="17.908583">
        <ele>11.9</ele>
        <time>2018-11-10T12:13:29Z</time>
      </trkpt>
      <trkpt lat="59.296136" lon="17.908491">
        <ele>11.8</ele>
        <time>2018-11-10T12:13:30Z</time>
      </trkpt>
      <trkpt lat="59.296101" lon="17.908412">
        <ele>11.7</ele>
        <time>2018-11-10T12:13:31Z</time>
      </trkpt>
      <trkpt lat="59.296057" lon="17.908352">
        <ele>11.7</ele>
        <time>2018-11-10T12:13:32Z</time>
      </trkpt>
      <trkpt lat="59.296019" lon="17.908275">
        <ele>11.6</ele>
        <time>2018-11-10T12:13:33Z</time>
      </trkpt>
      <trkpt lat="59.295975" lon="17.908205">
        <ele>11.6</ele>
        <time>2018-11-10T12:13:34Z</time>
      </trkpt>
      <trkpt lat="59.295933" lon="17.908142">
        <ele>11.5</ele>
        <time>2018-11-10T12:13:35Z</time>
      </trkpt>
      <trkpt lat="59.295885" lon="17.90808">
        <ele>11.5</ele>
        <time>2018-11-10T12:13:36Z</time>
      </trkpt>
      <trkpt lat="59.29584" lon="17.908029">
        <ele>11.4</ele>
        <time>2018-11-10T12:13:37Z</time>
      </trkpt>
      <trkpt lat="59.295786" lon="17.908006">
        <ele>11.4</ele>
        <time>2018-11-10T12:13:38Z</time>
      </trkpt>
      <trkpt lat="59.295726" lon="17.907999">
        <ele>11.3</ele>
        <time>2018-11-10T12:13:39Z</time>
      </trkpt>
      <trkpt lat="59.295668" lon="17.907991">
        <ele>11.3</ele>
        <time>2018-11-10T12:13:40Z</time>
      </trkpt>
      <trkpt lat="59.295613" lon="17.90796">
        <ele>11.2</ele>
        <time>2018-11-10T12:13:41Z</time>
      </trkpt>
      <trkpt lat="59.295561" lon="17.907909">
        <ele>11.1</ele>
        <time>2018-11-10T12:13:42Z</time>
      </trkpt>
      <trkpt lat="59.295516" lon="17.907825">
        <ele>11</ele>
        <time>2018-11-10T12:13:43Z</time>
      </trkpt>
      <trkpt lat="59.295468" lon="17.907769">
        <ele>10.9</ele>
        <time>2018-11-10T12:13:44Z</time>
      </trkpt>
      <trkpt lat="59.295416" lon="17.907702">
        <ele>10.8</ele>
        <time>2018-11-10T12:13:45Z</time>
      </trkpt>
      <trkpt lat="59.295373" lon="17.907649">
        <ele>10.7</ele>
        <time>2018-11-10T12:13:46Z</time>
      </trkpt>
      <trkpt lat="59.295335" lon="17.907593">
        <ele>10.7</ele>
        <time>2018-11-10T12:13:47Z</time>
      </trkpt>
      <trkpt lat="59.295292" lon="17.907523">
        <ele>10.6</ele>
        <time>2018-11-10T12:13:48Z</time>
      </trkpt>
      <trkpt lat="59.29526" lon="17.907474">
        <ele>10.5</ele>
        <time>2018-11-10T12:13:49Z</time>
      </trkpt>
      <trkpt lat="59.29522" lon="17.907389">
        <ele>10.4</ele>
        <time>2018-11-10T12:13:50Z</time>
      </trkpt>
      <trkpt lat="59.295165" lon="17.907326">
        <ele>10.3</ele>
        <time>2018-11-10T12:13:51Z</time>
      </trkpt>
      <trkpt lat="59.295113" lon="17.90731">
        <ele>10.2</ele>
        <time>2018-11-10T12:13:52Z</time>
      </trkpt>
      <trkpt lat="59.295061" lon="17.9073">
        <ele>10.1</ele>
        <time>2018-11-10T12:13:53Z</time>
      </trkpt>
      <trkpt lat="59.294998" lon="17.907304">
        <ele>10</ele>
        <time>2018-11-10T12:13:54Z</time>
      </trkpt>
      <trkpt lat="59.294936" lon="17.907327">
        <ele>9.9</ele>
        <time>2018-11-10T12:13:55Z</time>
      </trkpt>
      <trkpt lat="59.294873" lon="17.907338">
        <ele>9.8</ele>
        <time>2018-11-10T12:13:56Z</time>
      </trkpt>
      <trkpt lat="59.294827" lon="17.907342">
        <ele>9.7</ele>
        <time>2018-11-10T12:13:57Z</time>
      </trkpt>
      <trkpt lat="59.294771" lon="17.907331">
        <ele>9.7</ele>
        <time>2018-11-10T12:13:58Z</time>
      </trkpt>
      <trkpt lat="59.294724" lon="17.907328">
        <ele>9.6</ele>
        <time>2018-11-10T12:13:59Z</time>
      </trkpt>
      <trkpt lat="59.29467" lon="17.907304">
        <ele>9.5</ele>
        <time>2018-11-10T12:14:00Z</time>
      </trkpt>
      <trkpt lat="59.294617" lon="17.907297">
        <ele>9.4</ele>
        <time>2018-11-10T12:14:01Z</time>
      </trkpt>
      <trkpt lat="59.294564" lon="17.907278">
        <ele>9.3</ele>
        <time>2018-11-10T12:14:02Z</time>
      </trkpt>
      <trkpt lat="59.29452" lon="17.907251">
        <ele>7.4</ele>
        <time>2018-11-10T12:14:03Z</time>
      </trkpt>
      <trkpt lat="59.294471" lon="17.907263">
        <ele>7.6</ele>
        <time>2018-11-10T12:14:04Z</time>
      </trkpt>
      <trkpt lat="59.294424" lon="17.907291">
        <ele>7.8</ele>
        <time>2018-11-10T12:14:05Z</time>
      </trkpt>
      <trkpt lat="59.294378" lon="17.90733">
        <ele>8.1</ele>
        <time>2018-11-10T12:14:06Z</time>
      </trkpt>
      <trkpt lat="59.294334" lon="17.907369">
        <ele>8.3</ele>
        <time>2018-11-10T12:14:07Z</time>
      </trkpt>
      <trkpt lat="59.294299" lon="17.907402">
        <ele>8.5</ele>
        <time>2018-11-10T12:14:08Z</time>
      </trkpt>
      <trkpt lat="59.294261" lon="17.907441">
        <ele>8.7</ele>
        <time>2018-11-10T12:14:09Z</time>
      </trkpt>
      <trkpt lat="59.294218" lon="17.907476">
        <ele>9</ele>
        <time>2018-11-10T12:14:10Z</time>
      </trkpt>
      <trkpt lat="59.294176" lon="17.907516">
        <ele>9.2</ele>
        <time>2018-11-10T12:14:11Z</time>
      </trkpt>
      <trkpt lat="59.294142" lon="17.907547">
        <ele>9.4</ele>
        <time>2018-11-10T12:14:12Z</time>
      </trkpt>
      <trkpt lat="59.294106" lon="17.907585">
        <ele>9.6</ele>
        <time>2018-11-10T12:14:13Z</time>
      </trkpt>
      <trkpt lat="59.294067" lon="17.907615">
        <ele>9.9</ele>
        <time>2018-11-10T12:14:14Z</time>
      </trkpt>
      <trkpt lat="59.294036" lon="17.907649">
        <ele>10.1</ele>
        <time>2018-11-10T12:14:15Z</time>
      </trkpt>
      <trkpt lat="59.29401" lon="17.907691">
        <ele>10.3</ele>
        <time>2018-11-10T12:14:16Z</time>
      </trkpt>
      <trkpt lat="59.293984" lon="17.907721">
        <ele>10.5</ele>
        <time>2018-11-10T12:14:17Z</time>
      </trkpt>
      <trkpt lat="59.293957" lon="17.907741">
        <ele>10.7</ele>
        <time>2018-11-10T12:14:18Z</time>
      </trkpt>
      <trkpt lat="59.29393" lon="17.907758">
        <ele>11</ele>
        <time>2018-11-10T12:14:19Z</time>
      </trkpt>
      <trkpt lat="59.293903" lon="17.90777">
        <ele>11.2</ele>
        <time>2018-11-10T12:14:20Z</time>
      </trkpt>
      <trkpt lat="59.293875" lon="17.907781">
        <ele>11.4</ele>
        <time>2018-11-10T12:14:21Z</time>
      </trkpt>
      <trkpt lat="59.293846" lon="17.907791">
        <ele>11.7</ele>
        <time>2018-11-10T12:14:22Z</time>
      </trkpt>
      <trkpt lat="59.293818" lon="17.907802">
        <ele>11.9</ele>
        <time>2018-11-10T12:14:23Z</time>
      </trkpt>
      <trkpt lat="59.293792" lon="17.907812">
        <ele>12.1</ele>
        <time>2018-11-10T12:14:24Z</time>
      </trkpt>
      <trkpt lat="59.293763" lon="17.907819">
        <ele>12.4</ele>
        <time>2018-11-10T12:14:25Z</time>
      </trkpt>
      <trkpt lat="59.293732" lon="17.907826">
        <ele>12.7</ele>
        <time>2018-11-10T12:14:26Z</time>
      </trkpt>
      <trkpt lat="59.2937" lon="17.907834">
        <ele>13.1</ele>
        <time>2018-11-10T12:14:27Z</time>
      </trkpt>
      <trkpt lat="59.293672" lon="17.907831">
        <ele>13.4</ele>
        <time>2018-11-10T12:14:28Z</time>
      </trkpt>
      <trkpt lat="59.293646" lon="17.907815">
        <ele>13.7</ele>
        <time>2018-11-10T12:14:29Z</time>
      </trkpt>
      <trkpt lat="59.29362" lon="17.907783">
        <ele>13.5</ele>
        <time>2018-11-10T12:14:30Z</time>
      </trkpt>
      <trkpt lat="59.293598" lon="17.907741">
        <ele>13.4</ele>
        <time>2018-11-10T12:14:31Z</time>
      </trkpt>
      <trkpt lat="59.293579" lon="17.907688">
        <ele>13.3</ele>
        <time>2018-11-10T12:14:32Z</time>
      </trkpt>
      <trkpt lat="59.293566" lon="17.907625">
        <ele>13.2</ele>
        <time>2018-11-10T12:14:33Z</time>
      </trkpt>
      <trkpt lat="59.293555" lon="17.907552">
        <ele>13</ele>
        <time>2018-11-10T12:14:34Z</time>
      </trkpt>
      <trkpt lat="59.293545" lon="17.907477">
        <ele>13.1</ele>
        <time>2018-11-10T12:14:35Z</time>
      </trkpt>
      <trkpt lat="59.293532" lon="17.907404">
        <ele>13.1</ele>
        <time>2018-11-10T12:14:36Z</time>
      </trkpt>
      <trkpt lat="59.293519" lon="17.907331">
        <ele>13.2</ele>
        <time>2018-11-10T12:14:37Z</time>
      </trkpt>
      <trkpt lat="59.293506" lon="17.907259">
        <ele>13.2</ele>
        <time>2018-11-10T12:14:38Z</time>
      </trkpt>
      <trkpt lat="59.293494" lon="17.907186">
        <ele>13.3</ele>
        <time>2018-11-10T12:14:39Z</time>
      </trkpt>
      <trkpt lat="59.293483" lon="17.907109">
        <ele>13.3</ele>
        <time>2018-11-10T12:14:40Z</time>
      </trkpt>
      <trkpt lat="59.293472" lon="17.907028">
        <ele>13.4</ele>
        <time>2018-11-10T12:14:41Z</time>
      </trkpt>
      <trkpt lat="59.293466" lon="17.906945">
        <ele>13.5</ele>
        <time>2018-11-10T12:14:42Z</time>
      </trkpt>
      <trkpt lat="59.293463" lon="17.90686">
        <ele>13.5</ele>
        <time>2018-11-10T12:14:43Z</time>
      </trkpt>
      <trkpt lat="59.293465" lon="17.906772">
        <ele>13.6</ele>
        <time>2018-11-10T12:14:44Z</time>
      </trkpt>
      <trkpt lat="59.293467" lon="17.906686">
        <ele>13.6</ele>
        <time>2018-11-10T12:14:45Z</time>
      </trkpt>
      <trkpt lat="59.293468" lon="17.906603">
        <ele>14.8</ele>
        <time>2018-11-10T12:14:46Z</time>
      </trkpt>
      <trkpt lat="59.293465" lon="17.906519">
        <ele>15.2</ele>
        <time>2018-11-10T12:14:47Z</time>
      </trkpt>
      <trkpt lat="59.293459" lon="17.906439">
        <ele>15.6</ele>
        <time>2018-11-10T12:14:48Z</time>
      </trkpt>
      <trkpt lat="59.293451" lon="17.906362">
        <ele>17</ele>
        <time>2018-11-10T12:14:49Z</time>
      </trkpt>
      <trkpt lat="59.293441" lon="17.906288">
        <ele>17.4</ele>
        <time>2018-11-10T12:14:50Z</time>
      </trkpt>
      <trkpt lat="59.293429" lon="17.906219">
        <ele>17.9</ele>
        <time>2018-11-10T12:14:51Z</time>
      </trkpt>
      <trkpt lat="59.293417" lon="17.906157">
        <ele>18.2</ele>
        <time>2018-11-10T12:14:52Z</time>
      </trkpt>
      <trkpt lat="59.293404" lon="17.9061">
        <ele>18.6</ele>
        <time>2018-11-10T12:14:53Z</time>
      </trkpt>
      <trkpt lat="59.293389" lon="17.906046">
        <ele>19</ele>
        <time>2018-11-10T12:14:54Z</time>
      </trkpt>
      <trkpt lat="59.293374" lon="17.906002">
        <ele>19.8</ele>
        <time>2018-11-10T12:14:55Z</time>
      </trkpt>
      <trkpt lat="59.293344" lon="17.905937">
        <ele>20.4</ele>
        <time>2018-11-10T12:14:57Z</time>
      </trkpt>
      <trkpt lat="59.293307" lon="17.905878">
        <ele>21</ele>
        <time>2018-11-10T12:14:59Z</time>
      </trkpt>
      <trkpt lat="59.293266" lon="17.905823">
        <ele>21.7</ele>
        <time>2018-11-10T12:15:01Z</time>
      </trkpt>
      <trkpt lat="59.29313" lon="17.90567">
        <ele>23.8</ele>
        <time>2018-11-10T12:15:07Z</time>
      </trkpt>
      <trkpt lat="59.293086" lon="17.905636">
        <ele>24.4</ele>
        <time>2018-11-10T12:15:09Z</time>
      </trkpt>
      <trkpt lat="59.293043" lon="17.905597">
        <ele>25.1</ele>
        <time>2018-11-10T12:15:11Z</time>
      </trkpt>
      <trkpt lat="59.293021" lon="17.905519">
        <ele>25.7</ele>
        <time>2018-11-10T12:15:13Z</time>
      </trkpt>
      <trkpt lat="59.293049" lon="17.90545">
        <ele>26.3</ele>
        <time>2018-11-10T12:15:15Z</time>
      </trkpt>
      <trkpt lat="59.293075" lon="17.905436">
        <ele>25.8</ele>
        <time>2018-11-10T12:15:16Z</time>
      </trkpt>
      <trkpt lat="59.293105" lon="17.905435">
        <ele>25.6</ele>
        <time>2018-11-10T12:15:17Z</time>
      </trkpt>
      <trkpt lat="59.293135" lon="17.905434">
        <ele>25.4</ele>
        <time>2018-11-10T12:15:18Z</time>
      </trkpt>
      <trkpt lat="59.293187" lon="17.905412">
        <ele>25</ele>
        <time>2018-11-10T12:15:20Z</time>
      </trkpt>
      <trkpt lat="59.29321" lon="17.905383">
        <ele>24.9</ele>
        <time>2018-11-10T12:15:21Z</time>
      </trkpt>
      <trkpt lat="59.293232" lon="17.905344">
        <ele>24.6</ele>
        <time>2018-11-10T12:15:22Z</time>
      </trkpt>
      <trkpt lat="59.293253" lon="17.905296">
        <ele>24.4</ele>
        <time>2018-11-10T12:15:23Z</time>
      </trkpt>
      <trkpt lat="59.293278" lon="17.905249">
        <ele>24.2</ele>
        <time>2018-11-10T12:15:24Z</time>
      </trkpt>
      <trkpt lat="59.293309" lon="17.905201">
        <ele>23.9</ele>
        <time>2018-11-10T12:15:25Z</time>
      </trkpt>
      <trkpt lat="59.293381" lon="17.90511">
        <ele>22.3</ele>
        <time>2018-11-10T12:15:27Z</time>
      </trkpt>
      <trkpt lat="59.29342" lon="17.905066">
        <ele>21.4</ele>
        <time>2018-11-10T12:15:28Z</time>
      </trkpt>
      <trkpt lat="59.293461" lon="17.905023">
        <ele>20.5</ele>
        <time>2018-11-10T12:15:29Z</time>
      </trkpt>
      <trkpt lat="59.293504" lon="17.904985">
        <ele>19.6</ele>
        <time>2018-11-10T12:15:30Z</time>
      </trkpt>
      <trkpt lat="59.293547" lon="17.90495">
        <ele>18.7</ele>
        <time>2018-11-10T12:15:31Z</time>
      </trkpt>
      <trkpt lat="59.293586" lon="17.90492">
        <ele>17.9</ele>
        <time>2018-11-10T12:15:32Z</time>
      </trkpt>
      <trkpt lat="59.293644" lon="17.904869">
        <ele>16.8</ele>
        <time>2018-11-10T12:15:33Z</time>
      </trkpt>
      <trkpt lat="59.293686" lon="17.904829">
        <ele>16</ele>
        <time>2018-11-10T12:15:34Z</time>
      </trkpt>
      <trkpt lat="59.293755" lon="17.904787">
        <ele>14.9</ele>
        <time>2018-11-10T12:15:35Z</time>
      </trkpt>
      <trkpt lat="59.293804" lon="17.904672">
        <ele>13.6</ele>
        <time>2018-11-10T12:15:36Z</time>
      </trkpt>
      <trkpt lat="59.293836" lon="17.904564">
        <ele>12.7</ele>
        <time>2018-11-10T12:15:37Z</time>
      </trkpt>
      <trkpt lat="59.293867" lon="17.904446">
        <ele>11.7</ele>
        <time>2018-11-10T12:15:38Z</time>
      </trkpt>
      <trkpt lat="59.293879" lon="17.904334">
        <ele>11.1</ele>
        <time>2018-11-10T12:15:39Z</time>
      </trkpt>
      <trkpt lat="59.293899" lon="17.904226">
        <ele>10.5</ele>
        <time>2018-11-10T12:15:40Z</time>
      </trkpt>
      <trkpt lat="59.293933" lon="17.904116">
        <ele>9.9</ele>
        <time>2018-11-10T12:15:41Z</time>
      </trkpt>
      <trkpt lat="59.293973" lon="17.904">
        <ele>9.3</ele>
        <time>2018-11-10T12:15:42Z</time>
      </trkpt>
      <trkpt lat="59.294002" lon="17.903886">
        <ele>8.9</ele>
        <time>2018-11-10T12:15:43Z</time>
      </trkpt>
      <trkpt lat="59.294015" lon="17.903771">
        <ele>8.6</ele>
        <time>2018-11-10T12:15:44Z</time>
      </trkpt>
      <trkpt lat="59.294023" lon="17.903688">
        <ele>8.6</ele>
        <time>2018-11-10T12:15:45Z</time>
      </trkpt>
      <trkpt lat="59.294018" lon="17.903586">
        <ele>8.7</ele>
        <time>2018-11-10T12:15:46Z</time>
      </trkpt>
      <trkpt lat="59.294002" lon="17.903462">
        <ele>9.1</ele>
        <time>2018-11-10T12:15:47Z</time>
      </trkpt>
      <trkpt lat="59.293994" lon="17.903347">
        <ele>9.5</ele>
        <time>2018-11-10T12:15:48Z</time>
      </trkpt>
      <trkpt lat="59.293967" lon="17.903231">
        <ele>12.5</ele>
        <time>2018-11-10T12:15:49Z</time>
      </trkpt>
      <trkpt lat="59.293957" lon="17.903115">
        <ele>19.4</ele>
        <time>2018-11-10T12:15:50Z</time>
      </trkpt>
      <trkpt lat="59.293942" lon="17.903006">
        <ele>19.2</ele>
        <time>2018-11-10T12:15:51Z</time>
      </trkpt>
      <trkpt lat="59.29393" lon="17.902923">
        <ele>19.1</ele>
        <time>2018-11-10T12:15:52Z</time>
      </trkpt>
      <trkpt lat="59.293911" lon="17.902825">
        <ele>18.9</ele>
        <time>2018-11-10T12:15:53Z</time>
      </trkpt>
      <trkpt lat="59.293891" lon="17.902735">
        <ele>18.7</ele>
        <time>2018-11-10T12:15:54Z</time>
      </trkpt>
      <trkpt lat="59.293872" lon="17.902642">
        <ele>18.6</ele>
        <time>2018-11-10T12:15:55Z</time>
      </trkpt>
      <trkpt lat="59.293848" lon="17.902543">
        <ele>18.4</ele>
        <time>2018-11-10T12:15:56Z</time>
      </trkpt>
      <trkpt lat="59.293832" lon="17.902418">
        <ele>18.2</ele>
        <time>2018-11-10T12:15:57Z</time>
      </trkpt>
      <trkpt lat="59.29382" lon="17.902305">
        <ele>18</ele>
        <time>2018-11-10T12:15:58Z</time>
      </trkpt>
      <trkpt lat="59.293818" lon="17.902179">
        <ele>17.8</ele>
        <time>2018-11-10T12:15:59Z</time>
      </trkpt>
      <trkpt lat="59.293819" lon="17.902064">
        <ele>17.6</ele>
        <time>2018-11-10T12:16:00Z</time>
      </trkpt>
      <trkpt lat="59.293841" lon="17.901929">
        <ele>17.3</ele>
        <time>2018-11-10T12:16:01Z</time>
      </trkpt>
      <trkpt lat="59.293859" lon="17.901765">
        <ele>16.5</ele>
        <time>2018-11-10T12:16:02Z</time>
      </trkpt>
      <trkpt lat="59.293871" lon="17.901624">
        <ele>15.6</ele>
        <time>2018-11-10T12:16:03Z</time>
      </trkpt>
      <trkpt lat="59.293872" lon="17.901469">
        <ele>14.4</ele>
        <time>2018-11-10T12:16:04Z</time>
      </trkpt>
      <trkpt lat="59.293863" lon="17.901302">
        <ele>13.2</ele>
        <time>2018-11-10T12:16:05Z</time>
      </trkpt>
      <trkpt lat="59.293845" lon="17.901146">
        <ele>12</ele>
        <time>2018-11-10T12:16:06Z</time>
      </trkpt>
      <trkpt lat="59.293825" lon="17.901006">
        <ele>11</ele>
        <time>2018-11-10T12:16:07Z</time>
      </trkpt>
      <trkpt lat="59.293787" lon="17.900896">
        <ele>10.2</ele>
        <time>2018-11-10T12:16:08Z</time>
      </trkpt>
      <trkpt lat="59.293749" lon="17.900801">
        <ele>9.7</ele>
        <time>2018-11-10T12:16:09Z</time>
      </trkpt>
      <trkpt lat="59.29371" lon="17.900734">
        <ele>9.3</ele>
        <time>2018-11-10T12:16:10Z</time>
      </trkpt>
      <trkpt lat="59.293669" lon="17.900661">
        <ele>9.1</ele>
        <time>2018-11-10T12:16:11Z</time>
      </trkpt>
      <trkpt lat="59.293631" lon="17.900598">
        <ele>9</ele>
        <time>2018-11-10T12:16:12Z</time>
      </trkpt>
      <trkpt lat="59.293589" lon="17.900523">
        <ele>8.9</ele>
        <time>2018-11-10T12:16:13Z</time>
      </trkpt>
      <trkpt lat="59.293541" lon="17.900453">
        <ele>8.9</ele>
        <time>2018-11-10T12:16:14Z</time>
      </trkpt>
      <trkpt lat="59.293493" lon="17.900394">
        <ele>8.9</ele>
        <time>2018-11-10T12:16:15Z</time>
      </trkpt>
      <trkpt lat="59.293445" lon="17.900327">
        <ele>8.9</ele>
        <time>2018-11-10T12:16:16Z</time>
      </trkpt>
      <trkpt lat="59.293402" lon="17.900274">
        <ele>8.8</ele>
        <time>2018-11-10T12:16:17Z</time>
      </trkpt>
      <trkpt lat="59.293357" lon="17.900254">
        <ele>8.8</ele>
        <time>2018-11-10T12:16:18Z</time>
      </trkpt>
      <trkpt lat="59.293317" lon="17.900227">
        <ele>8.7</ele>
        <time>2018-11-10T12:16:19Z</time>
      </trkpt>
      <trkpt lat="59.29327" lon="17.900187">
        <ele>8.6</ele>
        <time>2018-11-10T12:16:20Z</time>
      </trkpt>
      <trkpt lat="59.293233" lon="17.900168">
        <ele>8.6</ele>
        <time>2018-11-10T12:16:21Z</time>
      </trkpt>
      <trkpt lat="59.29319" lon="17.900136">
        <ele>8.5</ele>
        <time>2018-11-10T12:16:22Z</time>
      </trkpt>
      <trkpt lat="59.29316" lon="17.900097">
        <ele>8.5</ele>
        <time>2018-11-10T12:16:23Z</time>
      </trkpt>
      <trkpt lat="59.293131" lon="17.900043">
        <ele>8.5</ele>
        <time>2018-11-10T12:16:24Z</time>
      </trkpt>
      <trkpt lat="59.293103" lon="17.899974">
        <ele>8.5</ele>
        <time>2018-11-10T12:16:25Z</time>
      </trkpt>
      <trkpt lat="59.293085" lon="17.899896">
        <ele>8.5</ele>
        <time>2018-11-10T12:16:26Z</time>
      </trkpt>
      <trkpt lat="59.29307" lon="17.899813">
        <ele>8.5</ele>
        <time>2018-11-10T12:16:27Z</time>
      </trkpt>
      <trkpt lat="59.293056" lon="17.899723">
        <ele>8.4</ele>
        <time>2018-11-10T12:16:28Z</time>
      </trkpt>
      <trkpt lat="59.293043" lon="17.899615">
        <ele>8.4</ele>
        <time>2018-11-10T12:16:29Z</time>
      </trkpt>
      <trkpt lat="59.293013" lon="17.899513">
        <ele>8.3</ele>
        <time>2018-11-10T12:16:30Z</time>
      </trkpt>
      <trkpt lat="59.292977" lon="17.899399">
        <ele>8.1</ele>
        <time>2018-11-10T12:16:31Z</time>
      </trkpt>
      <trkpt lat="59.292955" lon="17.899294">
        <ele>7.9</ele>
        <time>2018-11-10T12:16:32Z</time>
      </trkpt>
      <trkpt lat="59.292926" lon="17.899168">
        <ele>7.6</ele>
        <time>2018-11-10T12:16:33Z</time>
      </trkpt>
      <trkpt lat="59.292901" lon="17.899046">
        <ele>7.4</ele>
        <time>2018-11-10T12:16:34Z</time>
      </trkpt>
      <trkpt lat="59.292889" lon="17.898904">
        <ele>7.2</ele>
        <time>2018-11-10T12:16:35Z</time>
      </trkpt>
      <trkpt lat="59.292861" lon="17.898757">
        <ele>6.9</ele>
        <time>2018-11-10T12:16:36Z</time>
      </trkpt>
      <trkpt lat="59.292827" lon="17.898621">
        <ele>6.6</ele>
        <time>2018-11-10T12:16:37Z</time>
      </trkpt>
      <trkpt lat="59.292793" lon="17.898488">
        <ele>6.5</ele>
        <time>2018-11-10T12:16:38Z</time>
      </trkpt>
      <trkpt lat="59.292765" lon="17.898341">
        <ele>6.4</ele>
        <time>2018-11-10T12:16:39Z</time>
      </trkpt>
      <trkpt lat="59.292716" lon="17.898206">
        <ele>6.4</ele>
        <time>2018-11-10T12:16:40Z</time>
      </trkpt>
      <trkpt lat="59.292694" lon="17.898076">
        <ele>6.5</ele>
        <time>2018-11-10T12:16:41Z</time>
      </trkpt>
      <trkpt lat="59.292667" lon="17.897954">
        <ele>6.6</ele>
        <time>2018-11-10T12:16:42Z</time>
      </trkpt>
      <trkpt lat="59.292632" lon="17.897851">
        <ele>6.8</ele>
        <time>2018-11-10T12:16:43Z</time>
      </trkpt>
      <trkpt lat="59.292602" lon="17.89775">
        <ele>6.9</ele>
        <time>2018-11-10T12:16:44Z</time>
      </trkpt>
      <trkpt lat="59.292569" lon="17.897667">
        <ele>7</ele>
        <time>2018-11-10T12:16:45Z</time>
      </trkpt>
      <trkpt lat="59.292544" lon="17.89758">
        <ele>7.1</ele>
        <time>2018-11-10T12:16:46Z</time>
      </trkpt>
      <trkpt lat="59.292522" lon="17.897488">
        <ele>7.2</ele>
        <time>2018-11-10T12:16:47Z</time>
      </trkpt>
      <trkpt lat="59.292502" lon="17.897375">
        <ele>7.3</ele>
        <time>2018-11-10T12:16:48Z</time>
      </trkpt>
      <trkpt lat="59.292467" lon="17.897267">
        <ele>7.3</ele>
        <time>2018-11-10T12:16:49Z</time>
      </trkpt>
      <trkpt lat="59.292434" lon="17.897156">
        <ele>7.3</ele>
        <time>2018-11-10T12:16:50Z</time>
      </trkpt>
      <trkpt lat="59.292381" lon="17.897049">
        <ele>7.2</ele>
        <time>2018-11-10T12:16:51Z</time>
      </trkpt>
      <trkpt lat="59.292333" lon="17.896954">
        <ele>7.2</ele>
        <time>2018-11-10T12:16:52Z</time>
      </trkpt>
      <trkpt lat="59.292288" lon="17.896862">
        <ele>7.1</ele>
        <time>2018-11-10T12:16:53Z</time>
      </trkpt>
      <trkpt lat="59.292244" lon="17.896763">
        <ele>7</ele>
        <time>2018-11-10T12:16:54Z</time>
      </trkpt>
      <trkpt lat="59.292209" lon="17.896681">
        <ele>6.9</ele>
        <time>2018-11-10T12:16:55Z</time>
      </trkpt>
      <trkpt lat="59.292169" lon="17.896584">
        <ele>6.8</ele>
        <time>2018-11-10T12:16:56Z</time>
      </trkpt>
      <trkpt lat="59.292135" lon="17.89649">
        <ele>6.8</ele>
        <time>2018-11-10T12:16:57Z</time>
      </trkpt>
      <trkpt lat="59.292107" lon="17.896373">
        <ele>6.7</ele>
        <time>2018-11-10T12:16:58Z</time>
      </trkpt>
      <trkpt lat="59.29206" lon="17.89625">
        <ele>6.6</ele>
        <time>2018-11-10T12:16:59Z</time>
      </trkpt>
      <trkpt lat="59.292015" lon="17.896141">
        <ele>6.5</ele>
        <time>2018-11-10T12:17:00Z</time>
      </trkpt>
      <trkpt lat="59.291971" lon="17.896044">
        <ele>6.5</ele>
        <time>2018-11-10T12:17:01Z</time>
      </trkpt>
      <trkpt lat="59.291927" lon="17.895934">
        <ele>6.5</ele>
        <time>2018-11-10T12:17:02Z</time>
      </trkpt>
      <trkpt lat="59.291887" lon="17.895835">
        <ele>6.5</ele>
        <time>2018-11-10T12:17:03Z</time>
      </trkpt>
      <trkpt lat="59.291842" lon="17.895715">
        <ele>6.6</ele>
        <time>2018-11-10T12:17:04Z</time>
      </trkpt>
      <trkpt lat="59.291801" lon="17.895625">
        <ele>6.6</ele>
        <time>2018-11-10T12:17:05Z</time>
      </trkpt>
      <trkpt lat="59.291766" lon="17.895533">
        <ele>6.7</ele>
        <time>2018-11-10T12:17:06Z</time>
      </trkpt>
      <trkpt lat="59.291731" lon="17.895441">
        <ele>6.7</ele>
        <time>2018-11-10T12:17:07Z</time>
      </trkpt>
      <trkpt lat="59.291696" lon="17.895355">
        <ele>6.6</ele>
        <time>2018-11-10T12:17:08Z</time>
      </trkpt>
      <trkpt lat="59.291667" lon="17.895245">
        <ele>6.6</ele>
        <time>2018-11-10T12:17:09Z</time>
      </trkpt>
      <trkpt lat="59.29164" lon="17.89513">
        <ele>6.6</ele>
        <time>2018-11-10T12:17:10Z</time>
      </trkpt>
      <trkpt lat="59.291613" lon="17.895011">
        <ele>6.5</ele>
        <time>2018-11-10T12:17:11Z</time>
      </trkpt>
      <trkpt lat="59.291585" lon="17.894889">
        <ele>6.5</ele>
        <time>2018-11-10T12:17:12Z</time>
      </trkpt>
      <trkpt lat="59.291532" lon="17.894755">
        <ele>6.5</ele>
        <time>2018-11-10T12:17:13Z</time>
      </trkpt>
      <trkpt lat="59.291496" lon="17.894638">
        <ele>6.5</ele>
        <time>2018-11-10T12:17:14Z</time>
      </trkpt>
      <trkpt lat="59.291458" lon="17.894532">
        <ele>6.6</ele>
        <time>2018-11-10T12:17:15Z</time>
      </trkpt>
      <trkpt lat="59.291433" lon="17.894413">
        <ele>6.7</ele>
        <time>2018-11-10T12:17:16Z</time>
      </trkpt>
      <trkpt lat="59.2914" lon="17.894297">
        <ele>6.9</ele>
        <time>2018-11-10T12:17:17Z</time>
      </trkpt>
      <trkpt lat="59.291367" lon="17.894184">
        <ele>7.1</ele>
        <time>2018-11-10T12:17:18Z</time>
      </trkpt>
      <trkpt lat="59.291332" lon="17.894066">
        <ele>7.3</ele>
        <time>2018-11-10T12:17:19Z</time>
      </trkpt>
      <trkpt lat="59.291305" lon="17.893964">
        <ele>7.5</ele>
        <time>2018-11-10T12:17:20Z</time>
      </trkpt>
      <trkpt lat="59.291271" lon="17.893869">
        <ele>7.7</ele>
        <time>2018-11-10T12:17:21Z</time>
      </trkpt>
      <trkpt lat="59.291238" lon="17.89377">
        <ele>8</ele>
        <time>2018-11-10T12:17:22Z</time>
      </trkpt>
      <trkpt lat="59.291205" lon="17.893685">
        <ele>8.3</ele>
        <time>2018-11-10T12:17:23Z</time>
      </trkpt>
      <trkpt lat="59.291168" lon="17.893583">
        <ele>8.5</ele>
        <time>2018-11-10T12:17:24Z</time>
      </trkpt>
      <trkpt lat="59.291125" lon="17.893484">
        <ele>8.8</ele>
        <time>2018-11-10T12:17:25Z</time>
      </trkpt>
      <trkpt lat="59.291089" lon="17.893431">
        <ele>9</ele>
        <time>2018-11-10T12:17:26Z</time>
      </trkpt>
      <trkpt lat="59.291057" lon="17.893368">
        <ele>9.2</ele>
        <time>2018-11-10T12:17:27Z</time>
      </trkpt>
      <trkpt lat="59.291028" lon="17.893298">
        <ele>9.4</ele>
        <time>2018-11-10T12:17:28Z</time>
      </trkpt>
      <trkpt lat="59.290991" lon="17.893212">
        <ele>9.5</ele>
        <time>2018-11-10T12:17:29Z</time>
      </trkpt>
      <trkpt lat="59.290963" lon="17.893138">
        <ele>9.6</ele>
        <time>2018-11-10T12:17:30Z</time>
      </trkpt>
      <trkpt lat="59.290926" lon="17.893068">
        <ele>9.6</ele>
        <time>2018-11-10T12:17:31Z</time>
      </trkpt>
      <trkpt lat="59.290882" lon="17.893015">
        <ele>9.7</ele>
        <time>2018-11-10T12:17:32Z</time>
      </trkpt>
      <trkpt lat="59.290831" lon="17.892947">
        <ele>9.6</ele>
        <time>2018-11-10T12:17:33Z</time>
      </trkpt>
      <trkpt lat="59.290781" lon="17.89288">
        <ele>9.5</ele>
        <time>2018-11-10T12:17:34Z</time>
      </trkpt>
      <trkpt lat="59.290718" lon="17.892819">
        <ele>9.2</ele>
        <time>2018-11-10T12:17:35Z</time>
      </trkpt>
      <trkpt lat="59.290666" lon="17.892772">
        <ele>9</ele>
        <time>2018-11-10T12:17:36Z</time>
      </trkpt>
      <trkpt lat="59.290614" lon="17.892725">
        <ele>8.8</ele>
        <time>2018-11-10T12:17:37Z</time>
      </trkpt>
      <trkpt lat="59.29056" lon="17.892672">
        <ele>8.7</ele>
        <time>2018-11-10T12:17:38Z</time>
      </trkpt>
      <trkpt lat="59.290501" lon="17.892618">
        <ele>8.5</ele>
        <time>2018-11-10T12:17:39Z</time>
      </trkpt>
      <trkpt lat="59.290437" lon="17.892576">
        <ele>8.4</ele>
        <time>2018-11-10T12:17:40Z</time>
      </trkpt>
      <trkpt lat="59.290368" lon="17.892519">
        <ele>8.2</ele>
        <time>2018-11-10T12:17:41Z</time>
      </trkpt>
      <trkpt lat="59.290307" lon="17.892462">
        <ele>8.2</ele>
        <time>2018-11-10T12:17:42Z</time>
      </trkpt>
      <trkpt lat="59.290242" lon="17.892395">
        <ele>8.2</ele>
        <time>2018-11-10T12:17:43Z</time>
      </trkpt>
      <trkpt lat="59.290168" lon="17.892352">
        <ele>8.2</ele>
        <time>2018-11-10T12:17:44Z</time>
      </trkpt>
      <trkpt lat="59.290105" lon="17.892325">
        <ele>8.2</ele>
        <time>2018-11-10T12:17:45Z</time>
      </trkpt>
      <trkpt lat="59.290042" lon="17.892307">
        <ele>8.3</ele>
        <time>2018-11-10T12:17:46Z</time>
      </trkpt>
      <trkpt lat="59.289982" lon="17.89229">
        <ele>8.3</ele>
        <time>2018-11-10T12:17:47Z</time>
      </trkpt>
      <trkpt lat="59.289922" lon="17.89226">
        <ele>8.4</ele>
        <time>2018-11-10T12:17:48Z</time>
      </trkpt>
      <trkpt lat="59.289862" lon="17.892261">
        <ele>8.5</ele>
        <time>2018-11-10T12:17:49Z</time>
      </trkpt>
      <trkpt lat="59.2898" lon="17.892277">
        <ele>8.6</ele>
        <time>2018-11-10T12:17:50Z</time>
      </trkpt>
      <trkpt lat="59.289744" lon="17.892309">
        <ele>8.8</ele>
        <time>2018-11-10T12:17:51Z</time>
      </trkpt>
      <trkpt lat="59.289684" lon="17.892344">
        <ele>9.1</ele>
        <time>2018-11-10T12:17:52Z</time>
      </trkpt>
      <trkpt lat="59.289631" lon="17.892382">
        <ele>9.3</ele>
        <time>2018-11-10T12:17:53Z</time>
      </trkpt>
      <trkpt lat="59.289575" lon="17.892419">
        <ele>9.7</ele>
        <time>2018-11-10T12:17:54Z</time>
      </trkpt>
      <trkpt lat="59.289526" lon="17.892459">
        <ele>10</ele>
        <time>2018-11-10T12:17:55Z</time>
      </trkpt>
      <trkpt lat="59.289472" lon="17.892487">
        <ele>10.4</ele>
        <time>2018-11-10T12:17:56Z</time>
      </trkpt>
      <trkpt lat="59.289418" lon="17.892509">
        <ele>10.8</ele>
        <time>2018-11-10T12:17:57Z</time>
      </trkpt>
      <trkpt lat="59.289364" lon="17.892521">
        <ele>11.3</ele>
        <time>2018-11-10T12:17:58Z</time>
      </trkpt>
      <trkpt lat="59.289315" lon="17.892506">
        <ele>11.9</ele>
        <time>2018-11-10T12:17:59Z</time>
      </trkpt>
      <trkpt lat="59.289257" lon="17.89251">
        <ele>12.5</ele>
        <time>2018-11-10T12:18:00Z</time>
      </trkpt>
      <trkpt lat="59.289214" lon="17.892526">
        <ele>12.9</ele>
        <time>2018-11-10T12:18:01Z</time>
      </trkpt>
      <trkpt lat="59.289176" lon="17.892517">
        <ele>13.2</ele>
        <time>2018-11-10T12:18:03Z</time>
      </trkpt>
      <trkpt lat="59.289153" lon="17.892553">
        <ele>13.4</ele>
        <time>2018-11-10T12:18:04Z</time>
      </trkpt>
      <trkpt lat="59.289125" lon="17.892584">
        <ele>13.6</ele>
        <time>2018-11-10T12:18:05Z</time>
      </trkpt>
      <trkpt lat="59.28911" lon="17.892628">
        <ele>13.8</ele>
        <time>2018-11-10T12:18:06Z</time>
      </trkpt>
      <trkpt lat="59.289085" lon="17.892679">
        <ele>14.1</ele>
        <time>2018-11-10T12:18:07Z</time>
      </trkpt>
      <trkpt lat="59.28903" lon="17.892739">
        <ele>14.6</ele>
        <time>2018-11-10T12:18:09Z</time>
      </trkpt>
      <trkpt lat="59.288998" lon="17.892763">
        <ele>14.7</ele>
        <time>2018-11-10T12:18:10Z</time>
      </trkpt>
      <trkpt lat="59.28897" lon="17.892781">
        <ele>14.9</ele>
        <time>2018-11-10T12:18:11Z</time>
      </trkpt>
      <trkpt lat="59.288915" lon="17.892792">
        <ele>15.1</ele>
        <time>2018-11-10T12:18:13Z</time>
      </trkpt>
      <trkpt lat="59.288883" lon="17.892798">
        <ele>15.2</ele>
        <time>2018-11-10T12:18:14Z</time>
      </trkpt>
      <trkpt lat="59.28885" lon="17.892802">
        <ele>15.2</ele>
        <time>2018-11-10T12:18:15Z</time>
      </trkpt>
      <trkpt lat="59.288814" lon="17.892806">
        <ele>15.3</ele>
        <time>2018-11-10T12:18:16Z</time>
      </trkpt>
      <trkpt lat="59.288773" lon="17.89281">
        <ele>15.4</ele>
        <time>2018-11-10T12:18:17Z</time>
      </trkpt>
      <trkpt lat="59.288724" lon="17.892822">
        <ele>15.4</ele>
        <time>2018-11-10T12:18:18Z</time>
      </trkpt>
      <trkpt lat="59.288666" lon="17.892851">
        <ele>15.3</ele>
        <time>2018-11-10T12:18:19Z</time>
      </trkpt>
      <trkpt lat="59.288613" lon="17.892881">
        <ele>15.3</ele>
        <time>2018-11-10T12:18:20Z</time>
      </trkpt>
      <trkpt lat="59.288552" lon="17.892918">
        <ele>15</ele>
        <time>2018-11-10T12:18:21Z</time>
      </trkpt>
      <trkpt lat="59.288482" lon="17.892949">
        <ele>14.4</ele>
        <time>2018-11-10T12:18:22Z</time>
      </trkpt>
      <trkpt lat="59.288406" lon="17.892975">
        <ele>13.6</ele>
        <time>2018-11-10T12:18:23Z</time>
      </trkpt>
      <trkpt lat="59.288315" lon="17.892991">
        <ele>12.7</ele>
        <time>2018-11-10T12:18:24Z</time>
      </trkpt>
      <trkpt lat="59.288233" lon="17.893017">
        <ele>12</ele>
        <time>2018-11-10T12:18:25Z</time>
      </trkpt>
      <trkpt lat="59.288154" lon="17.893048">
        <ele>11.3</ele>
        <time>2018-11-10T12:18:26Z</time>
      </trkpt>
      <trkpt lat="59.288073" lon="17.893088">
        <ele>10.7</ele>
        <time>2018-11-10T12:18:27Z</time>
      </trkpt>
      <trkpt lat="59.288005" lon="17.893136">
        <ele>10.3</ele>
        <time>2018-11-10T12:18:28Z</time>
      </trkpt>
      <trkpt lat="59.287944" lon="17.893197">
        <ele>10</ele>
        <time>2018-11-10T12:18:29Z</time>
      </trkpt>
      <trkpt lat="59.287885" lon="17.89328">
        <ele>9.8</ele>
        <time>2018-11-10T12:18:30Z</time>
      </trkpt>
      <trkpt lat="59.28783" lon="17.893376">
        <ele>9.6</ele>
        <time>2018-11-10T12:18:31Z</time>
      </trkpt>
      <trkpt lat="59.287788" lon="17.893479">
        <ele>9.6</ele>
        <time>2018-11-10T12:18:32Z</time>
      </trkpt>
      <trkpt lat="59.287745" lon="17.893585">
        <ele>9.6</ele>
        <time>2018-11-10T12:18:33Z</time>
      </trkpt>
      <trkpt lat="59.287698" lon="17.89367">
        <ele>9.6</ele>
        <time>2018-11-10T12:18:34Z</time>
      </trkpt>
      <trkpt lat="59.287641" lon="17.893729">
        <ele>9.6</ele>
        <time>2018-11-10T12:18:35Z</time>
      </trkpt>
      <trkpt lat="59.287585" lon="17.893766">
        <ele>9.7</ele>
        <time>2018-11-10T12:18:36Z</time>
      </trkpt>
      <trkpt lat="59.287514" lon="17.89379">
        <ele>9.8</ele>
        <time>2018-11-10T12:18:37Z</time>
      </trkpt>
      <trkpt lat="59.287457" lon="17.893779">
        <ele>9.9</ele>
        <time>2018-11-10T12:18:38Z</time>
      </trkpt>
      <trkpt lat="59.28738" lon="17.893785">
        <ele>10</ele>
        <time>2018-11-10T12:18:39Z</time>
      </trkpt>
      <trkpt lat="59.2873" lon="17.893778">
        <ele>9.8</ele>
        <time>2018-11-10T12:18:40Z</time>
      </trkpt>
      <trkpt lat="59.287227" lon="17.89378">
        <ele>9.8</ele>
        <time>2018-11-10T12:18:41Z</time>
      </trkpt>
      <trkpt lat="59.287148" lon="17.893794">
        <ele>9.9</ele>
        <time>2018-11-10T12:18:42Z</time>
      </trkpt>
      <trkpt lat="59.287061" lon="17.893792">
        <ele>10</ele>
        <time>2018-11-10T12:18:43Z</time>
      </trkpt>
      <trkpt lat="59.286979" lon="17.893778">
        <ele>10.2</ele>
        <time>2018-11-10T12:18:44Z</time>
      </trkpt>
      <trkpt lat="59.286902" lon="17.893778">
        <ele>10.4</ele>
        <time>2018-11-10T12:18:45Z</time>
      </trkpt>
      <trkpt lat="59.286826" lon="17.893766">
        <ele>10.6</ele>
        <time>2018-11-10T12:18:46Z</time>
      </trkpt>
      <trkpt lat="59.286753" lon="17.893759">
        <ele>10.8</ele>
        <time>2018-11-10T12:18:47Z</time>
      </trkpt>
      <trkpt lat="59.286686" lon="17.893736">
        <ele>11</ele>
        <time>2018-11-10T12:18:48Z</time>
      </trkpt>
      <trkpt lat="59.286614" lon="17.893718">
        <ele>11.2</ele>
        <time>2018-11-10T12:18:49Z</time>
      </trkpt>
      <trkpt lat="59.286548" lon="17.893684">
        <ele>11.3</ele>
        <time>2018-11-10T12:18:50Z</time>
      </trkpt>
      <trkpt lat="59.286481" lon="17.89365">
        <ele>11.5</ele>
        <time>2018-11-10T12:18:51Z</time>
      </trkpt>
      <trkpt lat="59.286413" lon="17.89363">
        <ele>11.7</ele>
        <time>2018-11-10T12:18:52Z</time>
      </trkpt>
      <trkpt lat="59.286348" lon="17.893598">
        <ele>11.9</ele>
        <time>2018-11-10T12:18:53Z</time>
      </trkpt>
      <trkpt lat="59.286286" lon="17.893577">
        <ele>12</ele>
        <time>2018-11-10T12:18:54Z</time>
      </trkpt>
      <trkpt lat="59.286223" lon="17.893556">
        <ele>12.2</ele>
        <time>2018-11-10T12:18:55Z</time>
      </trkpt>
      <trkpt lat="59.286165" lon="17.893537">
        <ele>12.3</ele>
        <time>2018-11-10T12:18:56Z</time>
      </trkpt>
      <trkpt lat="59.286105" lon="17.893514">
        <ele>12.5</ele>
        <time>2018-11-10T12:18:57Z</time>
      </trkpt>
      <trkpt lat="59.286044" lon="17.893501">
        <ele>12.7</ele>
        <time>2018-11-10T12:18:58Z</time>
      </trkpt>
      <trkpt lat="59.28599" lon="17.893481">
        <ele>13</ele>
        <time>2018-11-10T12:18:59Z</time>
      </trkpt>
      <trkpt lat="59.285927" lon="17.893468">
        <ele>13.3</ele>
        <time>2018-11-10T12:19:00Z</time>
      </trkpt>
      <trkpt lat="59.285877" lon="17.893449">
        <ele>13.6</ele>
        <time>2018-11-10T12:19:01Z</time>
      </trkpt>
      <trkpt lat="59.285827" lon="17.893432">
        <ele>14</ele>
        <time>2018-11-10T12:19:02Z</time>
      </trkpt>
      <trkpt lat="59.285776" lon="17.893406">
        <ele>14.3</ele>
        <time>2018-11-10T12:19:03Z</time>
      </trkpt>
      <trkpt lat="59.285732" lon="17.893377">
        <ele>14.5</ele>
        <time>2018-11-10T12:19:04Z</time>
      </trkpt>
      <trkpt lat="59.285688" lon="17.893347">
        <ele>14.8</ele>
        <time>2018-11-10T12:19:05Z</time>
      </trkpt>
      <trkpt lat="59.285648" lon="17.893307">
        <ele>15</ele>
        <time>2018-11-10T12:19:06Z</time>
      </trkpt>
      <trkpt lat="59.285608" lon="17.893281">
        <ele>15.5</ele>
        <time>2018-11-10T12:19:07Z</time>
      </trkpt>
      <trkpt lat="59.285574" lon="17.893257">
        <ele>15.4</ele>
        <time>2018-11-10T12:19:08Z</time>
      </trkpt>
      <trkpt lat="59.28555" lon="17.893206">
        <ele>15.4</ele>
        <time>2018-11-10T12:19:09Z</time>
      </trkpt>
      <trkpt lat="59.285542" lon="17.89314">
        <ele>15.3</ele>
        <time>2018-11-10T12:19:10Z</time>
      </trkpt>
      <trkpt lat="59.285529" lon="17.893059">
        <ele>15.1</ele>
        <time>2018-11-10T12:19:11Z</time>
      </trkpt>
      <trkpt lat="59.28553" lon="17.892964">
        <ele>14.9</ele>
        <time>2018-11-10T12:19:12Z</time>
      </trkpt>
      <trkpt lat="59.285549" lon="17.892872">
        <ele>14.7</ele>
        <time>2018-11-10T12:19:13Z</time>
      </trkpt>
      <trkpt lat="59.285577" lon="17.892781">
        <ele>14.6</ele>
        <time>2018-11-10T12:19:14Z</time>
      </trkpt>
      <trkpt lat="59.285608" lon="17.892672">
        <ele>14.3</ele>
        <time>2018-11-10T12:19:15Z</time>
      </trkpt>
      <trkpt lat="59.285634" lon="17.892581">
        <ele>14.1</ele>
        <time>2018-11-10T12:19:16Z</time>
      </trkpt>
      <trkpt lat="59.28566" lon="17.892477">
        <ele>13.9</ele>
        <time>2018-11-10T12:19:17Z</time>
      </trkpt>
      <trkpt lat="59.285685" lon="17.892352">
        <ele>13.7</ele>
        <time>2018-11-10T12:19:18Z</time>
      </trkpt>
      <trkpt lat="59.285709" lon="17.892233">
        <ele>13.5</ele>
        <time>2018-11-10T12:19:19Z</time>
      </trkpt>
      <trkpt lat="59.285733" lon="17.892111">
        <ele>13.3</ele>
        <time>2018-11-10T12:19:20Z</time>
      </trkpt>
      <trkpt lat="59.285765" lon="17.891985">
        <ele>13.2</ele>
        <time>2018-11-10T12:19:21Z</time>
      </trkpt>
      <trkpt lat="59.285801" lon="17.891881">
        <ele>13</ele>
        <time>2018-11-10T12:19:22Z</time>
      </trkpt>
      <trkpt lat="59.285826" lon="17.891788">
        <ele>12.9</ele>
        <time>2018-11-10T12:19:23Z</time>
      </trkpt>
      <trkpt lat="59.285831" lon="17.891694">
        <ele>12.7</ele>
        <time>2018-11-10T12:19:24Z</time>
      </trkpt>
      <trkpt lat="59.285835" lon="17.891625">
        <ele>12.3</ele>
        <time>2018-11-10T12:19:25Z</time>
      </trkpt>
      <trkpt lat="59.285837" lon="17.891553">
        <ele>12.3</ele>
        <time>2018-11-10T12:19:26Z</time>
      </trkpt>
      <trkpt lat="59.285812" lon="17.891494">
        <ele>12.3</ele>
        <time>2018-11-10T12:19:27Z</time>
      </trkpt>
      <trkpt lat="59.28578" lon="17.891414">
        <ele>12.3</ele>
        <time>2018-11-10T12:19:28Z</time>
      </trkpt>
      <trkpt lat="59.285753" lon="17.891379">
        <ele>12.3</ele>
        <time>2018-11-10T12:19:29Z</time>
      </trkpt>
      <trkpt lat="59.285698" lon="17.891317">
        <ele>12.3</ele>
        <time>2018-11-10T12:19:30Z</time>
      </trkpt>
      <trkpt lat="59.285664" lon="17.891291">
        <ele>12.3</ele>
        <time>2018-11-10T12:19:31Z</time>
      </trkpt>
      <trkpt lat="59.28566" lon="17.89123">
        <ele>12.3</ele>
        <time>2018-11-10T12:19:32Z</time>
      </trkpt>
      <trkpt lat="59.285643" lon="17.891173">
        <ele>12.3</ele>
        <time>2018-11-10T12:19:33Z</time>
      </trkpt>
      <trkpt lat="59.285613" lon="17.891105">
        <ele>12.3</ele>
        <time>2018-11-10T12:19:34Z</time>
      </trkpt>
      <trkpt lat="59.285568" lon="17.891052">
        <ele>12.3</ele>
        <time>2018-11-10T12:19:35Z</time>
      </trkpt>
      <trkpt lat="59.285521" lon="17.890983">
        <ele>12.3</ele>
        <time>2018-11-10T12:19:36Z</time>
      </trkpt>
      <trkpt lat="59.285489" lon="17.890948">
        <ele>12.4</ele>
        <time>2018-11-10T12:19:37Z</time>
      </trkpt>
      <trkpt lat="59.285451" lon="17.890893">
        <ele>12.4</ele>
        <time>2018-11-10T12:19:38Z</time>
      </trkpt>
      <trkpt lat="59.285396" lon="17.89083">
        <ele>12.5</ele>
        <time>2018-11-10T12:19:39Z</time>
      </trkpt>
      <trkpt lat="59.285355" lon="17.890812">
        <ele>12.6</ele>
        <time>2018-11-10T12:19:40Z</time>
      </trkpt>
      <trkpt lat="59.285317" lon="17.890753">
        <ele>12.7</ele>
        <time>2018-11-10T12:19:41Z</time>
      </trkpt>
      <trkpt lat="59.28529" lon="17.890713">
        <ele>12.7</ele>
        <time>2018-11-10T12:19:42Z</time>
      </trkpt>
      <trkpt lat="59.285255" lon="17.890685">
        <ele>12.7</ele>
        <time>2018-11-10T12:19:43Z</time>
      </trkpt>
      <trkpt lat="59.285224" lon="17.890654">
        <ele>12.8</ele>
        <time>2018-11-10T12:19:44Z</time>
      </trkpt>
      <trkpt lat="59.285189" lon="17.890637">
        <ele>12.8</ele>
        <time>2018-11-10T12:19:45Z</time>
      </trkpt>
      <trkpt lat="59.285151" lon="17.890632">
        <ele>12.8</ele>
        <time>2018-11-10T12:19:46Z</time>
      </trkpt>
      <trkpt lat="59.285108" lon="17.890634">
        <ele>12.8</ele>
        <time>2018-11-10T12:19:47Z</time>
      </trkpt>
      <trkpt lat="59.284902" lon="17.890439">
        <ele>13</ele>
        <time>2018-11-10T12:19:53Z</time>
      </trkpt>
      <trkpt lat="59.284863" lon="17.890421">
        <ele>13</ele>
        <time>2018-11-10T12:19:54Z</time>
      </trkpt>
      <trkpt lat="59.284836" lon="17.890408">
        <ele>13</ele>
        <time>2018-11-10T12:19:55Z</time>
      </trkpt>
      <trkpt lat="59.284811" lon="17.890371">
        <ele>13</ele>
        <time>2018-11-10T12:19:56Z</time>
      </trkpt>
      <trkpt lat="59.284772" lon="17.89035">
        <ele>13.1</ele>
        <time>2018-11-10T12:19:57Z</time>
      </trkpt>
      <trkpt lat="59.284734" lon="17.89033">
        <ele>13.1</ele>
        <time>2018-11-10T12:19:58Z</time>
      </trkpt>
      <trkpt lat="59.284691" lon="17.8903">
        <ele>13.1</ele>
        <time>2018-11-10T12:19:59Z</time>
      </trkpt>
      <trkpt lat="59.284649" lon="17.890275">
        <ele>13.1</ele>
        <time>2018-11-10T12:20:00Z</time>
      </trkpt>
      <trkpt lat="59.284597" lon="17.890249">
        <ele>13.2</ele>
        <time>2018-11-10T12:20:01Z</time>
      </trkpt>
      <trkpt lat="59.284534" lon="17.890203">
        <ele>13.2</ele>
        <time>2018-11-10T12:20:02Z</time>
      </trkpt>
      <trkpt lat="59.284488" lon="17.89014">
        <ele>13.2</ele>
        <time>2018-11-10T12:20:03Z</time>
      </trkpt>
      <trkpt lat="59.284449" lon="17.890116">
        <ele>13.2</ele>
        <time>2018-11-10T12:20:04Z</time>
      </trkpt>
      <trkpt lat="59.284407" lon="17.890088">
        <ele>13.3</ele>
        <time>2018-11-10T12:20:05Z</time>
      </trkpt>
      <trkpt lat="59.284368" lon="17.890043">
        <ele>13.3</ele>
        <time>2018-11-10T12:20:06Z</time>
      </trkpt>
      <trkpt lat="59.284327" lon="17.88997">
        <ele>13.3</ele>
        <time>2018-11-10T12:20:07Z</time>
      </trkpt>
      <trkpt lat="59.2843" lon="17.889942">
        <ele>13.3</ele>
        <time>2018-11-10T12:20:08Z</time>
      </trkpt>
      <trkpt lat="59.284272" lon="17.889895">
        <ele>13.3</ele>
        <time>2018-11-10T12:20:09Z</time>
      </trkpt>
      <trkpt lat="59.284242" lon="17.889831">
        <ele>13.3</ele>
        <time>2018-11-10T12:20:10Z</time>
      </trkpt>
      <trkpt lat="59.284225" lon="17.889771">
        <ele>13.5</ele>
        <time>2018-11-10T12:20:11Z</time>
      </trkpt>
      <trkpt lat="59.284208" lon="17.889713">
        <ele>13.6</ele>
        <time>2018-11-10T12:20:12Z</time>
      </trkpt>
      <trkpt lat="59.284173" lon="17.889631">
        <ele>13.6</ele>
        <time>2018-11-10T12:20:13Z</time>
      </trkpt>
      <trkpt lat="59.284144" lon="17.88955">
        <ele>13.4</ele>
        <time>2018-11-10T12:20:14Z</time>
      </trkpt>
      <trkpt lat="59.284131" lon="17.889447">
        <ele>13.3</ele>
        <time>2018-11-10T12:20:15Z</time>
      </trkpt>
      <trkpt lat="59.284123" lon="17.889362">
        <ele>13.2</ele>
        <time>2018-11-10T12:20:16Z</time>
      </trkpt>
      <trkpt lat="59.284099" lon="17.889283">
        <ele>13.2</ele>
        <time>2018-11-10T12:20:17Z</time>
      </trkpt>
      <trkpt lat="59.284077" lon="17.889203">
        <ele>13.2</ele>
        <time>2018-11-10T12:20:18Z</time>
      </trkpt>
      <trkpt lat="59.284029" lon="17.889054">
        <ele>13.3</ele>
        <time>2018-11-10T12:20:20Z</time>
      </trkpt>
      <trkpt lat="59.28401" lon="17.888985">
        <ele>13.4</ele>
        <time>2018-11-10T12:20:21Z</time>
      </trkpt>
      <trkpt lat="59.283986" lon="17.888879">
        <ele>13.6</ele>
        <time>2018-11-10T12:20:22Z</time>
      </trkpt>
      <trkpt lat="59.283998" lon="17.888762">
        <ele>13.9</ele>
        <time>2018-11-10T12:20:23Z</time>
      </trkpt>
      <trkpt lat="59.28399" lon="17.888656">
        <ele>14.1</ele>
        <time>2018-11-10T12:20:24Z</time>
      </trkpt>
      <trkpt lat="59.283996" lon="17.888563">
        <ele>14.2</ele>
        <time>2018-11-10T12:20:25Z</time>
      </trkpt>
      <trkpt lat="59.284015" lon="17.888487">
        <ele>14.3</ele>
        <time>2018-11-10T12:20:26Z</time>
      </trkpt>
      <trkpt lat="59.284058" lon="17.888413">
        <ele>14.5</ele>
        <time>2018-11-10T12:20:27Z</time>
      </trkpt>
      <trkpt lat="59.284096" lon="17.888363">
        <ele>14.7</ele>
        <time>2018-11-10T12:20:28Z</time>
      </trkpt>
      <trkpt lat="59.284143" lon="17.88829">
        <ele>15</ele>
        <time>2018-11-10T12:20:29Z</time>
      </trkpt>
      <trkpt lat="59.284182" lon="17.88821">
        <ele>15.2</ele>
        <time>2018-11-10T12:20:30Z</time>
      </trkpt>
      <trkpt lat="59.284214" lon="17.888118">
        <ele>15.4</ele>
        <time>2018-11-10T12:20:31Z</time>
      </trkpt>
      <trkpt lat="59.284212" lon="17.888023">
        <ele>15.6</ele>
        <time>2018-11-10T12:20:32Z</time>
      </trkpt>
      <trkpt lat="59.284204" lon="17.887941">
        <ele>15.8</ele>
        <time>2018-11-10T12:20:33Z</time>
      </trkpt>
      <trkpt lat="59.284179" lon="17.887849">
        <ele>15.8</ele>
        <time>2018-11-10T12:20:34Z</time>
      </trkpt>
      <trkpt lat="59.284137" lon="17.887772">
        <ele>15.9</ele>
        <time>2018-11-10T12:20:35Z</time>
      </trkpt>
      <trkpt lat="59.284107" lon="17.887694">
        <ele>16</ele>
        <time>2018-11-10T12:20:36Z</time>
      </trkpt>
      <trkpt lat="59.284077" lon="17.887611">
        <ele>16.1</ele>
        <time>2018-11-10T12:20:37Z</time>
      </trkpt>
      <trkpt lat="59.284054" lon="17.887505">
        <ele>15</ele>
        <time>2018-11-10T12:20:38Z</time>
      </trkpt>
      <trkpt lat="59.284025" lon="17.88741">
        <ele>14.8</ele>
        <time>2018-11-10T12:20:39Z</time>
      </trkpt>
      <trkpt lat="59.283997" lon="17.887329">
        <ele>14.7</ele>
        <time>2018-11-10T12:20:40Z</time>
      </trkpt>
      <trkpt lat="59.283976" lon="17.887243">
        <ele>14.6</ele>
        <time>2018-11-10T12:20:41Z</time>
      </trkpt>
      <trkpt lat="59.283946" lon="17.887158">
        <ele>14.5</ele>
        <time>2018-11-10T12:20:42Z</time>
      </trkpt>
      <trkpt lat="59.283915" lon="17.887075">
        <ele>14.4</ele>
        <time>2018-11-10T12:20:43Z</time>
      </trkpt>
      <trkpt lat="59.283886" lon="17.886983">
        <ele>14.3</ele>
        <time>2018-11-10T12:20:44Z</time>
      </trkpt>
      <trkpt lat="59.28386" lon="17.886893">
        <ele>14.2</ele>
        <time>2018-11-10T12:20:45Z</time>
      </trkpt>
      <trkpt lat="59.283834" lon="17.886795">
        <ele>14.1</ele>
        <time>2018-11-10T12:20:46Z</time>
      </trkpt>
      <trkpt lat="59.283805" lon="17.88669">
        <ele>14</ele>
        <time>2018-11-10T12:20:47Z</time>
      </trkpt>
      <trkpt lat="59.283777" lon="17.886604">
        <ele>13.9</ele>
        <time>2018-11-10T12:20:48Z</time>
      </trkpt>
      <trkpt lat="59.283753" lon="17.886521">
        <ele>13.8</ele>
        <time>2018-11-10T12:20:49Z</time>
      </trkpt>
      <trkpt lat="59.283727" lon="17.886441">
        <ele>13.8</ele>
        <time>2018-11-10T12:20:50Z</time>
      </trkpt>
      <trkpt lat="59.283702" lon="17.886354">
        <ele>13.7</ele>
        <time>2018-11-10T12:20:51Z</time>
      </trkpt>
      <trkpt lat="59.283693" lon="17.886266">
        <ele>13.6</ele>
        <time>2018-11-10T12:20:52Z</time>
      </trkpt>
      <trkpt lat="59.28368" lon="17.886176">
        <ele>13.5</ele>
        <time>2018-11-10T12:20:53Z</time>
      </trkpt>
      <trkpt lat="59.283655" lon="17.886094">
        <ele>13.5</ele>
        <time>2018-11-10T12:20:54Z</time>
      </trkpt>
      <trkpt lat="59.283628" lon="17.886">
        <ele>13.4</ele>
        <time>2018-11-10T12:20:55Z</time>
      </trkpt>
      <trkpt lat="59.283597" lon="17.885914">
        <ele>13.4</ele>
        <time>2018-11-10T12:20:56Z</time>
      </trkpt>
      <trkpt lat="59.283557" lon="17.885805">
        <ele>13.3</ele>
        <time>2018-11-10T12:20:57Z</time>
      </trkpt>
      <trkpt lat="59.28353" lon="17.885722">
        <ele>13.3</ele>
        <time>2018-11-10T12:20:58Z</time>
      </trkpt>
      <trkpt lat="59.283499" lon="17.885663">
        <ele>13.3</ele>
        <time>2018-11-10T12:20:59Z</time>
      </trkpt>
      <trkpt lat="59.283492" lon="17.885593">
        <ele>13.2</ele>
        <time>2018-11-10T12:21:00Z</time>
      </trkpt>
      <trkpt lat="59.283501" lon="17.885478">
        <ele>13.2</ele>
        <time>2018-11-10T12:21:02Z</time>
      </trkpt>
      <trkpt lat="59.283498" lon="17.885407">
        <ele>13.2</ele>
        <time>2018-11-10T12:21:03Z</time>
      </trkpt>
      <trkpt lat="59.283509" lon="17.885321">
        <ele>13.2</ele>
        <time>2018-11-10T12:21:04Z</time>
      </trkpt>
      <trkpt lat="59.283513" lon="17.885235">
        <ele>13.3</ele>
        <time>2018-11-10T12:21:05Z</time>
      </trkpt>
      <trkpt lat="59.283523" lon="17.885151">
        <ele>13.4</ele>
        <time>2018-11-10T12:21:06Z</time>
      </trkpt>
      <trkpt lat="59.283533" lon="17.885097">
        <ele>13.5</ele>
        <time>2018-11-10T12:21:07Z</time>
      </trkpt>
      <trkpt lat="59.283545" lon="17.885009">
        <ele>13.7</ele>
        <time>2018-11-10T12:21:08Z</time>
      </trkpt>
      <trkpt lat="59.283562" lon="17.884908">
        <ele>13.9</ele>
        <time>2018-11-10T12:21:09Z</time>
      </trkpt>
      <trkpt lat="59.283582" lon="17.884794">
        <ele>14.1</ele>
        <time>2018-11-10T12:21:10Z</time>
      </trkpt>
      <trkpt lat="59.283604" lon="17.884721">
        <ele>14.3</ele>
        <time>2018-11-10T12:21:11Z</time>
      </trkpt>
      <trkpt lat="59.28363" lon="17.884634">
        <ele>14.5</ele>
        <time>2018-11-10T12:21:12Z</time>
      </trkpt>
      <trkpt lat="59.283653" lon="17.884556">
        <ele>14.7</ele>
        <time>2018-11-10T12:21:13Z</time>
      </trkpt>
      <trkpt lat="59.283674" lon="17.884481">
        <ele>14.8</ele>
        <time>2018-11-10T12:21:14Z</time>
      </trkpt>
      <trkpt lat="59.283683" lon="17.884399">
        <ele>14.8</ele>
        <time>2018-11-10T12:21:15Z</time>
      </trkpt>
      <trkpt lat="59.283698" lon="17.884336">
        <ele>14.8</ele>
        <time>2018-11-10T12:21:16Z</time>
      </trkpt>
      <trkpt lat="59.283722" lon="17.884262">
        <ele>14.7</ele>
        <time>2018-11-10T12:21:17Z</time>
      </trkpt>
      <trkpt lat="59.283729" lon="17.884188">
        <ele>14.6</ele>
        <time>2018-11-10T12:21:18Z</time>
      </trkpt>
      <trkpt lat="59.28375" lon="17.884078">
        <ele>14.3</ele>
        <time>2018-11-10T12:21:19Z</time>
      </trkpt>
      <trkpt lat="59.283748" lon="17.884011">
        <ele>14</ele>
        <time>2018-11-10T12:21:20Z</time>
      </trkpt>
      <trkpt lat="59.283755" lon="17.883941">
        <ele>13.7</ele>
        <time>2018-11-10T12:21:21Z</time>
      </trkpt>
      <trkpt lat="59.283762" lon="17.88382">
        <ele>13.1</ele>
        <time>2018-11-10T12:21:22Z</time>
      </trkpt>
      <trkpt lat="59.283764" lon="17.88369">
        <ele>12.4</ele>
        <time>2018-11-10T12:21:23Z</time>
      </trkpt>
      <trkpt lat="59.283763" lon="17.8836">
        <ele>12</ele>
        <time>2018-11-10T12:21:24Z</time>
      </trkpt>
      <trkpt lat="59.283769" lon="17.883485">
        <ele>11.6</ele>
        <time>2018-11-10T12:21:25Z</time>
      </trkpt>
      <trkpt lat="59.283771" lon="17.883381">
        <ele>11.3</ele>
        <time>2018-11-10T12:21:26Z</time>
      </trkpt>
      <trkpt lat="59.283856" lon="17.883264">
        <ele>10.9</ele>
        <time>2018-11-10T12:21:27Z</time>
      </trkpt>
      <trkpt lat="59.283891" lon="17.883157">
        <ele>10.7</ele>
        <time>2018-11-10T12:21:28Z</time>
      </trkpt>
      <trkpt lat="59.283927" lon="17.883065">
        <ele>10.6</ele>
        <time>2018-11-10T12:21:29Z</time>
      </trkpt>
      <trkpt lat="59.283943" lon="17.882954">
        <ele>10.4</ele>
        <time>2018-11-10T12:21:30Z</time>
      </trkpt>
      <trkpt lat="59.283948" lon="17.882861">
        <ele>10.4</ele>
        <time>2018-11-10T12:21:31Z</time>
      </trkpt>
      <trkpt lat="59.283946" lon="17.882753">
        <ele>10.3</ele>
        <time>2018-11-10T12:21:32Z</time>
      </trkpt>
      <trkpt lat="59.283928" lon="17.882682">
        <ele>10.2</ele>
        <time>2018-11-10T12:21:33Z</time>
      </trkpt>
      <trkpt lat="59.283876" lon="17.882644">
        <ele>10.1</ele>
        <time>2018-11-10T12:21:34Z</time>
      </trkpt>
      <trkpt lat="59.283827" lon="17.882547">
        <ele>10</ele>
        <time>2018-11-10T12:21:35Z</time>
      </trkpt>
      <trkpt lat="59.283792" lon="17.882499">
        <ele>9.9</ele>
        <time>2018-11-10T12:21:36Z</time>
      </trkpt>
      <trkpt lat="59.283749" lon="17.882471">
        <ele>9.8</ele>
        <time>2018-11-10T12:21:37Z</time>
      </trkpt>
      <trkpt lat="59.283699" lon="17.882442">
        <ele>9.8</ele>
        <time>2018-11-10T12:21:38Z</time>
      </trkpt>
      <trkpt lat="59.283638" lon="17.882414">
        <ele>9.5</ele>
        <time>2018-11-10T12:21:39Z</time>
      </trkpt>
      <trkpt lat="59.283586" lon="17.882371">
        <ele>9.7</ele>
        <time>2018-11-10T12:21:40Z</time>
      </trkpt>
      <trkpt lat="59.28354" lon="17.8823">
        <ele>9.9</ele>
        <time>2018-11-10T12:21:41Z</time>
      </trkpt>
      <trkpt lat="59.283507" lon="17.882226">
        <ele>10</ele>
        <time>2018-11-10T12:21:42Z</time>
      </trkpt>
      <trkpt lat="59.283477" lon="17.882124">
        <ele>10.2</ele>
        <time>2018-11-10T12:21:43Z</time>
      </trkpt>
      <trkpt lat="59.283444" lon="17.882031">
        <ele>10.3</ele>
        <time>2018-11-10T12:21:44Z</time>
      </trkpt>
      <trkpt lat="59.283443" lon="17.881946">
        <ele>10.4</ele>
        <time>2018-11-10T12:21:45Z</time>
      </trkpt>
      <trkpt lat="59.283452" lon="17.881852">
        <ele>10.5</ele>
        <time>2018-11-10T12:21:46Z</time>
      </trkpt>
      <trkpt lat="59.283468" lon="17.881779">
        <ele>10.5</ele>
        <time>2018-11-10T12:21:47Z</time>
      </trkpt>
      <trkpt lat="59.283487" lon="17.881704">
        <ele>10.6</ele>
        <time>2018-11-10T12:21:48Z</time>
      </trkpt>
      <trkpt lat="59.283514" lon="17.881615">
        <ele>10.9</ele>
        <time>2018-11-10T12:21:49Z</time>
      </trkpt>
      <trkpt lat="59.283533" lon="17.881526">
        <ele>11</ele>
        <time>2018-11-10T12:21:50Z</time>
      </trkpt>
      <trkpt lat="59.283547" lon="17.881448">
        <ele>11.1</ele>
        <time>2018-11-10T12:21:51Z</time>
      </trkpt>
      <trkpt lat="59.283574" lon="17.881346">
        <ele>11.3</ele>
        <time>2018-11-10T12:21:52Z</time>
      </trkpt>
      <trkpt lat="59.283592" lon="17.881246">
        <ele>11.4</ele>
        <time>2018-11-10T12:21:53Z</time>
      </trkpt>
      <trkpt lat="59.283611" lon="17.881154">
        <ele>11.5</ele>
        <time>2018-11-10T12:21:54Z</time>
      </trkpt>
      <trkpt lat="59.283609" lon="17.881042">
        <ele>11.7</ele>
        <time>2018-11-10T12:21:55Z</time>
      </trkpt>
      <trkpt lat="59.283625" lon="17.880913">
        <ele>12.1</ele>
        <time>2018-11-10T12:21:56Z</time>
      </trkpt>
      <trkpt lat="59.283647" lon="17.880813">
        <ele>12.1</ele>
        <time>2018-11-10T12:21:57Z</time>
      </trkpt>
      <trkpt lat="59.28366" lon="17.880717">
        <ele>12.1</ele>
        <time>2018-11-10T12:21:58Z</time>
      </trkpt>
      <trkpt lat="59.283697" lon="17.880592">
        <ele>12.1</ele>
        <time>2018-11-10T12:21:59Z</time>
      </trkpt>
      <trkpt lat="59.283722" lon="17.880484">
        <ele>12.1</ele>
        <time>2018-11-10T12:22:00Z</time>
      </trkpt>
      <trkpt lat="59.283738" lon="17.880379">
        <ele>12.1</ele>
        <time>2018-11-10T12:22:01Z</time>
      </trkpt>
      <trkpt lat="59.28376" lon="17.880257">
        <ele>12.1</ele>
        <time>2018-11-10T12:22:02Z</time>
      </trkpt>
      <trkpt lat="59.283774" lon="17.880148">
        <ele>12</ele>
        <time>2018-11-10T12:22:03Z</time>
      </trkpt>
      <trkpt lat="59.28379" lon="17.880046">
        <ele>11.9</ele>
        <time>2018-11-10T12:22:04Z</time>
      </trkpt>
      <trkpt lat="59.283801" lon="17.879949">
        <ele>11.9</ele>
        <time>2018-11-10T12:22:05Z</time>
      </trkpt>
      <trkpt lat="59.283804" lon="17.879833">
        <ele>11.8</ele>
        <time>2018-11-10T12:22:06Z</time>
      </trkpt>
      <trkpt lat="59.283806" lon="17.879739">
        <ele>11.7</ele>
        <time>2018-11-10T12:22:07Z</time>
      </trkpt>
      <trkpt lat="59.283782" lon="17.879636">
        <ele>11.6</ele>
        <time>2018-11-10T12:22:08Z</time>
      </trkpt>
      <trkpt lat="59.283783" lon="17.879499">
        <ele>11.6</ele>
        <time>2018-11-10T12:22:09Z</time>
      </trkpt>
      <trkpt lat="59.283787" lon="17.879354">
        <ele>11.6</ele>
        <time>2018-11-10T12:22:10Z</time>
      </trkpt>
      <trkpt lat="59.283767" lon="17.879236">
        <ele>11.7</ele>
        <time>2018-11-10T12:22:11Z</time>
      </trkpt>
      <trkpt lat="59.283726" lon="17.879147">
        <ele>11.8</ele>
        <time>2018-11-10T12:22:12Z</time>
      </trkpt>
      <trkpt lat="59.283687" lon="17.879066">
        <ele>11.9</ele>
        <time>2018-11-10T12:22:13Z</time>
      </trkpt>
      <trkpt lat="59.283643" lon="17.878988">
        <ele>12.1</ele>
        <time>2018-11-10T12:22:14Z</time>
      </trkpt>
      <trkpt lat="59.283614" lon="17.878904">
        <ele>12.3</ele>
        <time>2018-11-10T12:22:15Z</time>
      </trkpt>
      <trkpt lat="59.283591" lon="17.878826">
        <ele>12.5</ele>
        <time>2018-11-10T12:22:16Z</time>
      </trkpt>
      <trkpt lat="59.283565" lon="17.878763">
        <ele>12.7</ele>
        <time>2018-11-10T12:22:17Z</time>
      </trkpt>
      <trkpt lat="59.283549" lon="17.878716">
        <ele>12.9</ele>
        <time>2018-11-10T12:22:18Z</time>
      </trkpt>
      <trkpt lat="59.283545" lon="17.878656">
        <ele>13.1</ele>
        <time>2018-11-10T12:22:19Z</time>
      </trkpt>
      <trkpt lat="59.283495" lon="17.878244">
        <ele>14.4</ele>
        <time>2018-11-10T12:22:26Z</time>
      </trkpt>
      <trkpt lat="59.283481" lon="17.878166">
        <ele>14.5</ele>
        <time>2018-11-10T12:22:27Z</time>
      </trkpt>
      <trkpt lat="59.283469" lon="17.878087">
        <ele>14.6</ele>
        <time>2018-11-10T12:22:28Z</time>
      </trkpt>
      <trkpt lat="59.283459" lon="17.878011">
        <ele>14.7</ele>
        <time>2018-11-10T12:22:29Z</time>
      </trkpt>
      <trkpt lat="59.28345" lon="17.877934">
        <ele>14.7</ele>
        <time>2018-11-10T12:22:30Z</time>
      </trkpt>
      <trkpt lat="59.28344" lon="17.877856">
        <ele>14.8</ele>
        <time>2018-11-10T12:22:31Z</time>
      </trkpt>
      <trkpt lat="59.283428" lon="17.877782">
        <ele>14.8</ele>
        <time>2018-11-10T12:22:32Z</time>
      </trkpt>
      <trkpt lat="59.283414" lon="17.877713">
        <ele>14.8</ele>
        <time>2018-11-10T12:22:33Z</time>
      </trkpt>
      <trkpt lat="59.283393" lon="17.87765">
        <ele>14.8</ele>
        <time>2018-11-10T12:22:34Z</time>
      </trkpt>
      <trkpt lat="59.283381" lon="17.877557">
        <ele>14.8</ele>
        <time>2018-11-10T12:22:35Z</time>
      </trkpt>
      <trkpt lat="59.283369" lon="17.877475">
        <ele>14.9</ele>
        <time>2018-11-10T12:22:36Z</time>
      </trkpt>
      <trkpt lat="59.283344" lon="17.877402">
        <ele>14.9</ele>
        <time>2018-11-10T12:22:37Z</time>
      </trkpt>
      <trkpt lat="59.28332" lon="17.877324">
        <ele>14.9</ele>
        <time>2018-11-10T12:22:38Z</time>
      </trkpt>
      <trkpt lat="59.283282" lon="17.87723">
        <ele>14.9</ele>
        <time>2018-11-10T12:22:39Z</time>
      </trkpt>
      <trkpt lat="59.283261" lon="17.877136">
        <ele>14.9</ele>
        <time>2018-11-10T12:22:40Z</time>
      </trkpt>
      <trkpt lat="59.283214" lon="17.876978">
        <ele>15</ele>
        <time>2018-11-10T12:22:42Z</time>
      </trkpt>
      <trkpt lat="59.283197" lon="17.876898">
        <ele>15</ele>
        <time>2018-11-10T12:22:43Z</time>
      </trkpt>
      <trkpt lat="59.283184" lon="17.876827">
        <ele>15</ele>
        <time>2018-11-10T12:22:44Z</time>
      </trkpt>
      <trkpt lat="59.283161" lon="17.876754">
        <ele>15</ele>
        <time>2018-11-10T12:22:45Z</time>
      </trkpt>
      <trkpt lat="59.283141" lon="17.876681">
        <ele>15</ele>
        <time>2018-11-10T12:22:46Z</time>
      </trkpt>
      <trkpt lat="59.283129" lon="17.876618">
        <ele>14.9</ele>
        <time>2018-11-10T12:22:47Z</time>
      </trkpt>
      <trkpt lat="59.283107" lon="17.876537">
        <ele>14.9</ele>
        <time>2018-11-10T12:22:48Z</time>
      </trkpt>
      <trkpt lat="59.283095" lon="17.876441">
        <ele>14.8</ele>
        <time>2018-11-10T12:22:49Z</time>
      </trkpt>
      <trkpt lat="59.283081" lon="17.876331">
        <ele>14.7</ele>
        <time>2018-11-10T12:22:50Z</time>
      </trkpt>
      <trkpt lat="59.283047" lon="17.876237">
        <ele>14.5</ele>
        <time>2018-11-10T12:22:51Z</time>
      </trkpt>
      <trkpt lat="59.283017" lon="17.87614">
        <ele>14.3</ele>
        <time>2018-11-10T12:22:52Z</time>
      </trkpt>
      <trkpt lat="59.283003" lon="17.876031">
        <ele>14</ele>
        <time>2018-11-10T12:22:53Z</time>
      </trkpt>
      <trkpt lat="59.282997" lon="17.875921">
        <ele>13.8</ele>
        <time>2018-11-10T12:22:54Z</time>
      </trkpt>
      <trkpt lat="59.282992" lon="17.875827">
        <ele>13.5</ele>
        <time>2018-11-10T12:22:55Z</time>
      </trkpt>
      <trkpt lat="59.282973" lon="17.87573">
        <ele>13.3</ele>
        <time>2018-11-10T12:22:56Z</time>
      </trkpt>
      <trkpt lat="59.282931" lon="17.875651">
        <ele>12.9</ele>
        <time>2018-11-10T12:22:57Z</time>
      </trkpt>
      <trkpt lat="59.282875" lon="17.875571">
        <ele>12.5</ele>
        <time>2018-11-10T12:22:58Z</time>
      </trkpt>
      <trkpt lat="59.282823" lon="17.875472">
        <ele>11.9</ele>
        <time>2018-11-10T12:22:59Z</time>
      </trkpt>
      <trkpt lat="59.282785" lon="17.875387">
        <ele>11.4</ele>
        <time>2018-11-10T12:23:00Z</time>
      </trkpt>
      <trkpt lat="59.282747" lon="17.875303">
        <ele>11.1</ele>
        <time>2018-11-10T12:23:01Z</time>
      </trkpt>
      <trkpt lat="59.282705" lon="17.8752">
        <ele>10.8</ele>
        <time>2018-11-10T12:23:02Z</time>
      </trkpt>
      <trkpt lat="59.28266" lon="17.87511">
        <ele>10.6</ele>
        <time>2018-11-10T12:23:03Z</time>
      </trkpt>
      <trkpt lat="59.282615" lon="17.875034">
        <ele>10.5</ele>
        <time>2018-11-10T12:23:04Z</time>
      </trkpt>
      <trkpt lat="59.282567" lon="17.87496">
        <ele>10.5</ele>
        <time>2018-11-10T12:23:05Z</time>
      </trkpt>
      <trkpt lat="59.282518" lon="17.8749">
        <ele>10.5</ele>
        <time>2018-11-10T12:23:06Z</time>
      </trkpt>
      <trkpt lat="59.282471" lon="17.87484">
        <ele>10.5</ele>
        <time>2018-11-10T12:23:07Z</time>
      </trkpt>
      <trkpt lat="59.282432" lon="17.874773">
        <ele>10.5</ele>
        <time>2018-11-10T12:23:08Z</time>
      </trkpt>
      <trkpt lat="59.282379" lon="17.874696">
        <ele>10.6</ele>
        <time>2018-11-10T12:23:09Z</time>
      </trkpt>
      <trkpt lat="59.282339" lon="17.874643">
        <ele>10.6</ele>
        <time>2018-11-10T12:23:10Z</time>
      </trkpt>
      <trkpt lat="59.282295" lon="17.874593">
        <ele>10.6</ele>
        <time>2018-11-10T12:23:11Z</time>
      </trkpt>
      <trkpt lat="59.282247" lon="17.874557">
        <ele>10.6</ele>
        <time>2018-11-10T12:23:12Z</time>
      </trkpt>
      <trkpt lat="59.282203" lon="17.874512">
        <ele>10.7</ele>
        <time>2018-11-10T12:23:13Z</time>
      </trkpt>
      <trkpt lat="59.282152" lon="17.874493">
        <ele>10.7</ele>
        <time>2018-11-10T12:23:14Z</time>
      </trkpt>
      <trkpt lat="59.28211" lon="17.874485">
        <ele>10.7</ele>
        <time>2018-11-10T12:23:15Z</time>
      </trkpt>
      <trkpt lat="59.282075" lon="17.874473">
        <ele>10.7</ele>
        <time>2018-11-10T12:23:16Z</time>
      </trkpt>
      <trkpt lat="59.282033" lon="17.87446">
        <ele>10.7</ele>
        <time>2018-11-10T12:23:17Z</time>
      </trkpt>
      <trkpt lat="59.281994" lon="17.874433">
        <ele>10.7</ele>
        <time>2018-11-10T12:23:18Z</time>
      </trkpt>
      <trkpt lat="59.281968" lon="17.874374">
        <ele>10.8</ele>
        <time>2018-11-10T12:23:19Z</time>
      </trkpt>
      <trkpt lat="59.281943" lon="17.874313">
        <ele>10.8</ele>
        <time>2018-11-10T12:23:20Z</time>
      </trkpt>
      <trkpt lat="59.281899" lon="17.874247">
        <ele>10.8</ele>
        <time>2018-11-10T12:23:21Z</time>
      </trkpt>
      <trkpt lat="59.281849" lon="17.8742">
        <ele>10.8</ele>
        <time>2018-11-10T12:23:22Z</time>
      </trkpt>
      <trkpt lat="59.281808" lon="17.874196">
        <ele>10.7</ele>
        <time>2018-11-10T12:23:23Z</time>
      </trkpt>
      <trkpt lat="59.281771" lon="17.874206">
        <ele>10.7</ele>
        <time>2018-11-10T12:23:24Z</time>
      </trkpt>
      <trkpt lat="59.281738" lon="17.874175">
        <ele>10.7</ele>
        <time>2018-11-10T12:23:25Z</time>
      </trkpt>
      <trkpt lat="59.281709" lon="17.874184">
        <ele>10.7</ele>
        <time>2018-11-10T12:23:26Z</time>
      </trkpt>
      <trkpt lat="59.281682" lon="17.87417">
        <ele>10.7</ele>
        <time>2018-11-10T12:23:27Z</time>
      </trkpt>
      <trkpt lat="59.281653" lon="17.874154">
        <ele>10.7</ele>
        <time>2018-11-10T12:23:28Z</time>
      </trkpt>
      <trkpt lat="59.281609" lon="17.874136">
        <ele>10.7</ele>
        <time>2018-11-10T12:23:30Z</time>
      </trkpt>
      <trkpt lat="59.281577" lon="17.874111">
        <ele>10.8</ele>
        <time>2018-11-10T12:23:31Z</time>
      </trkpt>
      <trkpt lat="59.28154" lon="17.874083">
        <ele>10.8</ele>
        <time>2018-11-10T12:23:32Z</time>
      </trkpt>
      <trkpt lat="59.281496" lon="17.874033">
        <ele>10.8</ele>
        <time>2018-11-10T12:23:33Z</time>
      </trkpt>
      <trkpt lat="59.28144" lon="17.873964">
        <ele>10.9</ele>
        <time>2018-11-10T12:23:34Z</time>
      </trkpt>
      <trkpt lat="59.28139" lon="17.873906">
        <ele>10.9</ele>
        <time>2018-11-10T12:23:35Z</time>
      </trkpt>
      <trkpt lat="59.28134" lon="17.873858">
        <ele>10.9</ele>
        <time>2018-11-10T12:23:36Z</time>
      </trkpt>
      <trkpt lat="59.28129" lon="17.873803">
        <ele>10.8</ele>
        <time>2018-11-10T12:23:37Z</time>
      </trkpt>
      <trkpt lat="59.281242" lon="17.873756">
        <ele>10.7</ele>
        <time>2018-11-10T12:23:38Z</time>
      </trkpt>
      <trkpt lat="59.281202" lon="17.873699">
        <ele>10.6</ele>
        <time>2018-11-10T12:23:39Z</time>
      </trkpt>
      <trkpt lat="59.281158" lon="17.873625">
        <ele>10.5</ele>
        <time>2018-11-10T12:23:40Z</time>
      </trkpt>
      <trkpt lat="59.281122" lon="17.873551">
        <ele>10.3</ele>
        <time>2018-11-10T12:23:41Z</time>
      </trkpt>
      <trkpt lat="59.281096" lon="17.873472">
        <ele>10.2</ele>
        <time>2018-11-10T12:23:42Z</time>
      </trkpt>
      <trkpt lat="59.281077" lon="17.873377">
        <ele>10.1</ele>
        <time>2018-11-10T12:23:43Z</time>
      </trkpt>
      <trkpt lat="59.281045" lon="17.873282">
        <ele>9.9</ele>
        <time>2018-11-10T12:23:44Z</time>
      </trkpt>
      <trkpt lat="59.281027" lon="17.873182">
        <ele>9.8</ele>
        <time>2018-11-10T12:23:45Z</time>
      </trkpt>
      <trkpt lat="59.280994" lon="17.873098">
        <ele>9.6</ele>
        <time>2018-11-10T12:23:46Z</time>
      </trkpt>
      <trkpt lat="59.280957" lon="17.873011">
        <ele>9.5</ele>
        <time>2018-11-10T12:23:47Z</time>
      </trkpt>
      <trkpt lat="59.280919" lon="17.872945">
        <ele>9.4</ele>
        <time>2018-11-10T12:23:48Z</time>
      </trkpt>
      <trkpt lat="59.280875" lon="17.872873">
        <ele>9.4</ele>
        <time>2018-11-10T12:23:49Z</time>
      </trkpt>
      <trkpt lat="59.28084" lon="17.872772">
        <ele>9.4</ele>
        <time>2018-11-10T12:23:50Z</time>
      </trkpt>
      <trkpt lat="59.280788" lon="17.872688">
        <ele>9.4</ele>
        <time>2018-11-10T12:23:51Z</time>
      </trkpt>
      <trkpt lat="59.280763" lon="17.87259">
        <ele>9.4</ele>
        <time>2018-11-10T12:23:52Z</time>
      </trkpt>
      <trkpt lat="59.280708" lon="17.872516">
        <ele>9.4</ele>
        <time>2018-11-10T12:23:53Z</time>
      </trkpt>
      <trkpt lat="59.280655" lon="17.872429">
        <ele>9.4</ele>
        <time>2018-11-10T12:23:54Z</time>
      </trkpt>
      <trkpt lat="59.280609" lon="17.872355">
        <ele>9.4</ele>
        <time>2018-11-10T12:23:55Z</time>
      </trkpt>
      <trkpt lat="59.280559" lon="17.872294">
        <ele>9.4</ele>
        <time>2018-11-10T12:23:56Z</time>
      </trkpt>
      <trkpt lat="59.280517" lon="17.872264">
        <ele>9.3</ele>
        <time>2018-11-10T12:23:57Z</time>
      </trkpt>
      <trkpt lat="59.280459" lon="17.872217">
        <ele>9.3</ele>
        <time>2018-11-10T12:23:58Z</time>
      </trkpt>
      <trkpt lat="59.280403" lon="17.872181">
        <ele>9.1</ele>
        <time>2018-11-10T12:23:59Z</time>
      </trkpt>
      <trkpt lat="59.280363" lon="17.872128">
        <ele>9</ele>
        <time>2018-11-10T12:24:00Z</time>
      </trkpt>
      <trkpt lat="59.280326" lon="17.872062">
        <ele>9</ele>
        <time>2018-11-10T12:24:01Z</time>
      </trkpt>
      <trkpt lat="59.280279" lon="17.871988">
        <ele>8.9</ele>
        <time>2018-11-10T12:24:02Z</time>
      </trkpt>
      <trkpt lat="59.280231" lon="17.871936">
        <ele>8.8</ele>
        <time>2018-11-10T12:24:03Z</time>
      </trkpt>
      <trkpt lat="59.280172" lon="17.871861">
        <ele>8.8</ele>
        <time>2018-11-10T12:24:04Z</time>
      </trkpt>
      <trkpt lat="59.280127" lon="17.871814">
        <ele>8.8</ele>
        <time>2018-11-10T12:24:05Z</time>
      </trkpt>
      <trkpt lat="59.280071" lon="17.871754">
        <ele>8.8</ele>
        <time>2018-11-10T12:24:06Z</time>
      </trkpt>
      <trkpt lat="59.280019" lon="17.871728">
        <ele>8.8</ele>
        <time>2018-11-10T12:24:07Z</time>
      </trkpt>
      <trkpt lat="59.279965" lon="17.871751">
        <ele>8.8</ele>
        <time>2018-11-10T12:24:08Z</time>
      </trkpt>
      <trkpt lat="59.279927" lon="17.87179">
        <ele>8.9</ele>
        <time>2018-11-10T12:24:09Z</time>
      </trkpt>
      <trkpt lat="59.279907" lon="17.871838">
        <ele>8.9</ele>
        <time>2018-11-10T12:24:10Z</time>
      </trkpt>
      <trkpt lat="59.279893" lon="17.871888">
        <ele>9</ele>
        <time>2018-11-10T12:24:11Z</time>
      </trkpt>
      <trkpt lat="59.279874" lon="17.871931">
        <ele>9.1</ele>
        <time>2018-11-10T12:24:13Z</time>
      </trkpt>
      <trkpt lat="59.279855" lon="17.871998">
        <ele>9.2</ele>
        <time>2018-11-10T12:24:15Z</time>
      </trkpt>
      <trkpt lat="59.27984" lon="17.872059">
        <ele>9.3</ele>
        <time>2018-11-10T12:24:17Z</time>
      </trkpt>
      <trkpt lat="59.279821" lon="17.872108">
        <ele>9.5</ele>
        <time>2018-11-10T12:24:19Z</time>
      </trkpt>
      <trkpt lat="59.279785" lon="17.872132">
        <ele>9.7</ele>
        <time>2018-11-10T12:24:21Z</time>
      </trkpt>
      <trkpt lat="59.279753" lon="17.872168">
        <ele>10</ele>
        <time>2018-11-10T12:24:23Z</time>
      </trkpt>
      <trkpt lat="59.279711" lon="17.872194">
        <ele>10.3</ele>
        <time>2018-11-10T12:24:25Z</time>
      </trkpt>
      <trkpt lat="59.279681" lon="17.872244">
        <ele>10.6</ele>
        <time>2018-11-10T12:24:27Z</time>
      </trkpt>
      <trkpt lat="59.279675" lon="17.872321">
        <ele>11</ele>
        <time>2018-11-10T12:24:29Z</time>
      </trkpt>
      <trkpt lat="59.279671" lon="17.872391">
        <ele>11.3</ele>
        <time>2018-11-10T12:24:31Z</time>
      </trkpt>
      <trkpt lat="59.27966" lon="17.872459">
        <ele>11.7</ele>
        <time>2018-11-10T12:24:33Z</time>
      </trkpt>
      <trkpt lat="59.279646" lon="17.872519">
        <ele>12.1</ele>
        <time>2018-11-10T12:24:35Z</time>
      </trkpt>
      <trkpt lat="59.279634" lon="17.872575">
        <ele>13.7</ele>
        <time>2018-11-10T12:24:37Z</time>
      </trkpt>
      <trkpt lat="59.279632" lon="17.872634">
        <ele>14</ele>
        <time>2018-11-10T12:24:39Z</time>
      </trkpt>
      <trkpt lat="59.279656" lon="17.872689">
        <ele>14.4</ele>
        <time>2018-11-10T12:24:42Z</time>
      </trkpt>
      <trkpt lat="59.279683" lon="17.872712">
        <ele>14.7</ele>
        <time>2018-11-10T12:24:46Z</time>
      </trkpt>
      <trkpt lat="59.27971" lon="17.872728">
        <ele>15.1</ele>
        <time>2018-11-10T12:24:49Z</time>
      </trkpt>
      <trkpt lat="59.27974" lon="17.872747">
        <ele>15.4</ele>
        <time>2018-11-10T12:24:54Z</time>
      </trkpt>
      <trkpt lat="59.27977" lon="17.872762">
        <ele>15.7</ele>
        <time>2018-11-10T12:25:00Z</time>
      </trkpt>
      <trkpt lat="59.279796" lon="17.872797">
        <ele>15.9</ele>
        <time>2018-11-10T12:25:02Z</time>
      </trkpt>
      <trkpt lat="59.279827" lon="17.872825">
        <ele>16.1</ele>
        <time>2018-11-10T12:25:04Z</time>
      </trkpt>
      <trkpt lat="59.279853" lon="17.872864">
        <ele>16.4</ele>
        <time>2018-11-10T12:25:06Z</time>
      </trkpt>
      <trkpt lat="59.279875" lon="17.872907">
        <ele>16.8</ele>
        <time>2018-11-10T12:25:08Z</time>
      </trkpt>
      <trkpt lat="59.279907" lon="17.872976">
        <ele>17.5</ele>
        <time>2018-11-10T12:25:10Z</time>
      </trkpt>
      <trkpt lat="59.279926" lon="17.87302">
        <ele>18.1</ele>
        <time>2018-11-10T12:25:11Z</time>
      </trkpt>
      <trkpt lat="59.279946" lon="17.87306">
        <ele>18.3</ele>
        <time>2018-11-10T12:25:12Z</time>
      </trkpt>
      <trkpt lat="59.279973" lon="17.873101">
        <ele>18.3</ele>
        <time>2018-11-10T12:25:13Z</time>
      </trkpt>
      <trkpt lat="59.280007" lon="17.873146">
        <ele>18.5</ele>
        <time>2018-11-10T12:25:14Z</time>
      </trkpt>
      <trkpt lat="59.280057" lon="17.873207">
        <ele>18.3</ele>
        <time>2018-11-10T12:25:15Z</time>
      </trkpt>
      <trkpt lat="59.280101" lon="17.873272">
        <ele>18.6</ele>
        <time>2018-11-10T12:25:16Z</time>
      </trkpt>
      <trkpt lat="59.280138" lon="17.873334">
        <ele>18.8</ele>
        <time>2018-11-10T12:25:17Z</time>
      </trkpt>
      <trkpt lat="59.280179" lon="17.873401">
        <ele>19</ele>
        <time>2018-11-10T12:25:18Z</time>
      </trkpt>
      <trkpt lat="59.280231" lon="17.873461">
        <ele>19.2</ele>
        <time>2018-11-10T12:25:19Z</time>
      </trkpt>
      <trkpt lat="59.28027" lon="17.873517">
        <ele>19.2</ele>
        <time>2018-11-10T12:25:20Z</time>
      </trkpt>
      <trkpt lat="59.280306" lon="17.873569">
        <ele>19.3</ele>
        <time>2018-11-10T12:25:21Z</time>
      </trkpt>
      <trkpt lat="59.280346" lon="17.873628">
        <ele>19.4</ele>
        <time>2018-11-10T12:25:22Z</time>
      </trkpt>
      <trkpt lat="59.280376" lon="17.873682">
        <ele>19.5</ele>
        <time>2018-11-10T12:25:23Z</time>
      </trkpt>
      <trkpt lat="59.280405" lon="17.873733">
        <ele>19.6</ele>
        <time>2018-11-10T12:25:24Z</time>
      </trkpt>
      <trkpt lat="59.280437" lon="17.873797">
        <ele>19.8</ele>
        <time>2018-11-10T12:25:25Z</time>
      </trkpt>
      <trkpt lat="59.280468" lon="17.873864">
        <ele>19.9</ele>
        <time>2018-11-10T12:25:26Z</time>
      </trkpt>
      <trkpt lat="59.280502" lon="17.873921">
        <ele>19.9</ele>
        <time>2018-11-10T12:25:27Z</time>
      </trkpt>
      <trkpt lat="59.280536" lon="17.873973">
        <ele>20.1</ele>
        <time>2018-11-10T12:25:28Z</time>
      </trkpt>
      <trkpt lat="59.280578" lon="17.874063">
        <ele>20.4</ele>
        <time>2018-11-10T12:25:29Z</time>
      </trkpt>
      <trkpt lat="59.280619" lon="17.874137">
        <ele>20.6</ele>
        <time>2018-11-10T12:25:30Z</time>
      </trkpt>
      <trkpt lat="59.280651" lon="17.874226">
        <ele>20.8</ele>
        <time>2018-11-10T12:25:31Z</time>
      </trkpt>
      <trkpt lat="59.280689" lon="17.874326">
        <ele>21</ele>
        <time>2018-11-10T12:25:32Z</time>
      </trkpt>
      <trkpt lat="59.280724" lon="17.874401">
        <ele>21.2</ele>
        <time>2018-11-10T12:25:33Z</time>
      </trkpt>
      <trkpt lat="59.280762" lon="17.874498">
        <ele>21.6</ele>
        <time>2018-11-10T12:25:34Z</time>
      </trkpt>
      <trkpt lat="59.280788" lon="17.874577">
        <ele>22</ele>
        <time>2018-11-10T12:25:35Z</time>
      </trkpt>
      <trkpt lat="59.280818" lon="17.874666">
        <ele>22.2</ele>
        <time>2018-11-10T12:25:36Z</time>
      </trkpt>
      <trkpt lat="59.280851" lon="17.874738">
        <ele>22.3</ele>
        <time>2018-11-10T12:25:37Z</time>
      </trkpt>
      <trkpt lat="59.280881" lon="17.874801">
        <ele>22.7</ele>
        <time>2018-11-10T12:25:38Z</time>
      </trkpt>
      <trkpt lat="59.280904" lon="17.874867">
        <ele>23.1</ele>
        <time>2018-11-10T12:25:39Z</time>
      </trkpt>
      <trkpt lat="59.280927" lon="17.874933">
        <ele>23.5</ele>
        <time>2018-11-10T12:25:40Z</time>
      </trkpt>
      <trkpt lat="59.280954" lon="17.875">
        <ele>23.8</ele>
        <time>2018-11-10T12:25:41Z</time>
      </trkpt>
      <trkpt lat="59.280967" lon="17.875063">
        <ele>23.9</ele>
        <time>2018-11-10T12:25:42Z</time>
      </trkpt>
      <trkpt lat="59.28098" lon="17.875119">
        <ele>23.9</ele>
        <time>2018-11-10T12:25:43Z</time>
      </trkpt>
      <trkpt lat="59.280986" lon="17.875176">
        <ele>24.3</ele>
        <time>2018-11-10T12:25:44Z</time>
      </trkpt>
      <trkpt lat="59.280985" lon="17.875236">
        <ele>24.7</ele>
        <time>2018-11-10T12:25:45Z</time>
      </trkpt>
      <trkpt lat="59.280966" lon="17.87529">
        <ele>25.2</ele>
        <time>2018-11-10T12:25:46Z</time>
      </trkpt>
      <trkpt lat="59.28092" lon="17.875354">
        <ele>26</ele>
        <time>2018-11-10T12:25:48Z</time>
      </trkpt>
      <trkpt lat="59.280885" lon="17.875429">
        <ele>26.7</ele>
        <time>2018-11-10T12:25:50Z</time>
      </trkpt>
      <trkpt lat="59.280852" lon="17.875505">
        <ele>27.3</ele>
        <time>2018-11-10T12:25:52Z</time>
      </trkpt>
      <trkpt lat="59.280827" lon="17.875529">
        <ele>27.7</ele>
        <time>2018-11-10T12:25:53Z</time>
      </trkpt>
      <trkpt lat="59.2808" lon="17.875544">
        <ele>28.1</ele>
        <time>2018-11-10T12:25:54Z</time>
      </trkpt>
      <trkpt lat="59.280757" lon="17.875596">
        <ele>28.8</ele>
        <time>2018-11-10T12:25:56Z</time>
      </trkpt>
      <trkpt lat="59.28073" lon="17.875671">
        <ele>29.3</ele>
        <time>2018-11-10T12:25:58Z</time>
      </trkpt>
      <trkpt lat="59.2807" lon="17.875725">
        <ele>29.8</ele>
        <time>2018-11-10T12:26:00Z</time>
      </trkpt>
      <trkpt lat="59.280664" lon="17.875781">
        <ele>30.4</ele>
        <time>2018-11-10T12:26:02Z</time>
      </trkpt>
      <trkpt lat="59.280625" lon="17.875846">
        <ele>31</ele>
        <time>2018-11-10T12:26:04Z</time>
      </trkpt>
      <trkpt lat="59.280587" lon="17.87591">
        <ele>31.6</ele>
        <time>2018-11-10T12:26:06Z</time>
      </trkpt>
      <trkpt lat="59.280556" lon="17.875975">
        <ele>32.1</ele>
        <time>2018-11-10T12:26:08Z</time>
      </trkpt>
      <trkpt lat="59.280521" lon="17.876045">
        <ele>32.7</ele>
        <time>2018-11-10T12:26:10Z</time>
      </trkpt>
      <trkpt lat="59.280504" lon="17.876088">
        <ele>33</ele>
        <time>2018-11-10T12:26:11Z</time>
      </trkpt>
      <trkpt lat="59.280492" lon="17.876135">
        <ele>33.4</ele>
        <time>2018-11-10T12:26:12Z</time>
      </trkpt>
      <trkpt lat="59.280486" lon="17.876191">
        <ele>33.9</ele>
        <time>2018-11-10T12:26:13Z</time>
      </trkpt>
      <trkpt lat="59.280486" lon="17.876249">
        <ele>33.9</ele>
        <time>2018-11-10T12:26:14Z</time>
      </trkpt>
      <trkpt lat="59.280491" lon="17.876308">
        <ele>34</ele>
        <time>2018-11-10T12:26:15Z</time>
      </trkpt>
      <trkpt lat="59.2805" lon="17.876366">
        <ele>34.3</ele>
        <time>2018-11-10T12:26:16Z</time>
      </trkpt>
      <trkpt lat="59.280511" lon="17.876421">
        <ele>34.5</ele>
        <time>2018-11-10T12:26:17Z</time>
      </trkpt>
      <trkpt lat="59.280524" lon="17.876478">
        <ele>34.8</ele>
        <time>2018-11-10T12:26:18Z</time>
      </trkpt>
      <trkpt lat="59.280541" lon="17.876533">
        <ele>35.2</ele>
        <time>2018-11-10T12:26:19Z</time>
      </trkpt>
      <trkpt lat="59.280558" lon="17.876589">
        <ele>35.5</ele>
        <time>2018-11-10T12:26:20Z</time>
      </trkpt>
      <trkpt lat="59.280576" lon="17.876644">
        <ele>35.8</ele>
        <time>2018-11-10T12:26:21Z</time>
      </trkpt>
      <trkpt lat="59.280594" lon="17.876698">
        <ele>36</ele>
        <time>2018-11-10T12:26:22Z</time>
      </trkpt>
      <trkpt lat="59.280612" lon="17.876751">
        <ele>36.3</ele>
        <time>2018-11-10T12:26:23Z</time>
      </trkpt>
      <trkpt lat="59.280629" lon="17.876802">
        <ele>36.5</ele>
        <time>2018-11-10T12:26:24Z</time>
      </trkpt>
      <trkpt lat="59.280644" lon="17.87685">
        <ele>36.7</ele>
        <time>2018-11-10T12:26:25Z</time>
      </trkpt>
      <trkpt lat="59.28067" lon="17.876941">
        <ele>37.1</ele>
        <time>2018-11-10T12:26:27Z</time>
      </trkpt>
      <trkpt lat="59.280683" lon="17.876993">
        <ele>37.3</ele>
        <time>2018-11-10T12:26:28Z</time>
      </trkpt>
      <trkpt lat="59.280695" lon="17.877043">
        <ele>37.6</ele>
        <time>2018-11-10T12:26:29Z</time>
      </trkpt>
      <trkpt lat="59.280707" lon="17.877094">
        <ele>37.8</ele>
        <time>2018-11-10T12:26:30Z</time>
      </trkpt>
      <trkpt lat="59.280721" lon="17.877145">
        <ele>38</ele>
        <time>2018-11-10T12:26:31Z</time>
      </trkpt>
      <trkpt lat="59.280735" lon="17.877194">
        <ele>38.2</ele>
        <time>2018-11-10T12:26:32Z</time>
      </trkpt>
      <trkpt lat="59.280762" lon="17.877283">
        <ele>38.7</ele>
        <time>2018-11-10T12:26:34Z</time>
      </trkpt>
      <trkpt lat="59.280794" lon="17.877363">
        <ele>39.1</ele>
        <time>2018-11-10T12:26:36Z</time>
      </trkpt>
      <trkpt lat="59.280821" lon="17.877443">
        <ele>39.4</ele>
        <time>2018-11-10T12:26:38Z</time>
      </trkpt>
      <trkpt lat="59.280855" lon="17.877522">
        <ele>39.4</ele>
        <time>2018-11-10T12:26:40Z</time>
      </trkpt>
      <trkpt lat="59.280873" lon="17.877563">
        <ele>39.5</ele>
        <time>2018-11-10T12:26:41Z</time>
      </trkpt>
      <trkpt lat="59.280903" lon="17.877641">
        <ele>40</ele>
        <time>2018-11-10T12:26:43Z</time>
      </trkpt>
      <trkpt lat="59.280935" lon="17.877722">
        <ele>40.5</ele>
        <time>2018-11-10T12:26:45Z</time>
      </trkpt>
      <trkpt lat="59.280964" lon="17.877804">
        <ele>41.1</ele>
        <time>2018-11-10T12:26:47Z</time>
      </trkpt>
      <trkpt lat="59.280987" lon="17.87789">
        <ele>41.5</ele>
        <time>2018-11-10T12:26:49Z</time>
      </trkpt>
      <trkpt lat="59.281006" lon="17.877988">
        <ele>42.1</ele>
        <time>2018-11-10T12:26:51Z</time>
      </trkpt>
      <trkpt lat="59.281032" lon="17.87808">
        <ele>42.6</ele>
        <time>2018-11-10T12:26:53Z</time>
      </trkpt>
      <trkpt lat="59.281044" lon="17.878128">
        <ele>42.9</ele>
        <time>2018-11-10T12:26:54Z</time>
      </trkpt>
      <trkpt lat="59.281057" lon="17.87818">
        <ele>43.2</ele>
        <time>2018-11-10T12:26:55Z</time>
      </trkpt>
      <trkpt lat="59.281072" lon="17.878229">
        <ele>43.5</ele>
        <time>2018-11-10T12:26:56Z</time>
      </trkpt>
      <trkpt lat="59.281094" lon="17.878274">
        <ele>43.8</ele>
        <time>2018-11-10T12:26:57Z</time>
      </trkpt>
      <trkpt lat="59.281114" lon="17.878313">
        <ele>44.1</ele>
        <time>2018-11-10T12:26:58Z</time>
      </trkpt>
      <trkpt lat="59.281146" lon="17.878401">
        <ele>44.8</ele>
        <time>2018-11-10T12:27:00Z</time>
      </trkpt>
      <trkpt lat="59.281162" lon="17.878445">
        <ele>45</ele>
        <time>2018-11-10T12:27:01Z</time>
      </trkpt>
      <trkpt lat="59.281183" lon="17.878483">
        <ele>45.3</ele>
        <time>2018-11-10T12:27:02Z</time>
      </trkpt>
      <trkpt lat="59.281206" lon="17.878516">
        <ele>45.5</ele>
        <time>2018-11-10T12:27:03Z</time>
      </trkpt>
      <trkpt lat="59.281228" lon="17.878546">
        <ele>45.7</ele>
        <time>2018-11-10T12:27:04Z</time>
      </trkpt>
      <trkpt lat="59.281252" lon="17.878578">
        <ele>45.9</ele>
        <time>2018-11-10T12:27:05Z</time>
      </trkpt>
      <trkpt lat="59.281277" lon="17.878612">
        <ele>46.1</ele>
        <time>2018-11-10T12:27:06Z</time>
      </trkpt>
      <trkpt lat="59.281304" lon="17.878647">
        <ele>46.3</ele>
        <time>2018-11-10T12:27:07Z</time>
      </trkpt>
      <trkpt lat="59.281331" lon="17.878682">
        <ele>46.6</ele>
        <time>2018-11-10T12:27:08Z</time>
      </trkpt>
      <trkpt lat="59.281356" lon="17.878719">
        <ele>46.7</ele>
        <time>2018-11-10T12:27:09Z</time>
      </trkpt>
      <trkpt lat="59.28138" lon="17.878755">
        <ele>46.8</ele>
        <time>2018-11-10T12:27:10Z</time>
      </trkpt>
      <trkpt lat="59.281406" lon="17.878787">
        <ele>46.9</ele>
        <time>2018-11-10T12:27:11Z</time>
      </trkpt>
      <trkpt lat="59.281435" lon="17.878819">
        <ele>47</ele>
        <time>2018-11-10T12:27:12Z</time>
      </trkpt>
      <trkpt lat="59.281465" lon="17.878849">
        <ele>47.1</ele>
        <time>2018-11-10T12:27:13Z</time>
      </trkpt>
      <trkpt lat="59.281494" lon="17.878882">
        <ele>47.1</ele>
        <time>2018-11-10T12:27:14Z</time>
      </trkpt>
      <trkpt lat="59.28152" lon="17.878924">
        <ele>47.2</ele>
        <time>2018-11-10T12:27:15Z</time>
      </trkpt>
      <trkpt lat="59.281543" lon="17.878975">
        <ele>47.2</ele>
        <time>2018-11-10T12:27:16Z</time>
      </trkpt>
      <trkpt lat="59.281566" lon="17.879027">
        <ele>47.2</ele>
        <time>2018-11-10T12:27:17Z</time>
      </trkpt>
      <trkpt lat="59.281591" lon="17.879079">
        <ele>47.2</ele>
        <time>2018-11-10T12:27:18Z</time>
      </trkpt>
      <trkpt lat="59.281617" lon="17.879132">
        <ele>47.3</ele>
        <time>2018-11-10T12:27:19Z</time>
      </trkpt>
      <trkpt lat="59.281643" lon="17.879188">
        <ele>47.2</ele>
        <time>2018-11-10T12:27:20Z</time>
      </trkpt>
      <trkpt lat="59.281671" lon="17.879251">
        <ele>47.1</ele>
        <time>2018-11-10T12:27:21Z</time>
      </trkpt>
      <trkpt lat="59.281697" lon="17.87932">
        <ele>47</ele>
        <time>2018-11-10T12:27:22Z</time>
      </trkpt>
      <trkpt lat="59.281719" lon="17.879406">
        <ele>46.9</ele>
        <time>2018-11-10T12:27:23Z</time>
      </trkpt>
      <trkpt lat="59.281741" lon="17.879487">
        <ele>46.8</ele>
        <time>2018-11-10T12:27:24Z</time>
      </trkpt>
      <trkpt lat="59.281773" lon="17.879578">
        <ele>46.6</ele>
        <time>2018-11-10T12:27:25Z</time>
      </trkpt>
      <trkpt lat="59.281802" lon="17.879649">
        <ele>46.4</ele>
        <time>2018-11-10T12:27:26Z</time>
      </trkpt>
      <trkpt lat="59.281833" lon="17.879728">
        <ele>46.1</ele>
        <time>2018-11-10T12:27:27Z</time>
      </trkpt>
      <trkpt lat="59.281878" lon="17.879808">
        <ele>45.8</ele>
        <time>2018-11-10T12:27:28Z</time>
      </trkpt>
      <trkpt lat="59.281908" lon="17.879885">
        <ele>45.6</ele>
        <time>2018-11-10T12:27:29Z</time>
      </trkpt>
      <trkpt lat="59.281932" lon="17.879963">
        <ele>45.3</ele>
        <time>2018-11-10T12:27:30Z</time>
      </trkpt>
      <trkpt lat="59.28195" lon="17.880032">
        <ele>45.1</ele>
        <time>2018-11-10T12:27:31Z</time>
      </trkpt>
      <trkpt lat="59.28196" lon="17.880107">
        <ele>44.9</ele>
        <time>2018-11-10T12:27:32Z</time>
      </trkpt>
      <trkpt lat="59.281963" lon="17.880175">
        <ele>44.6</ele>
        <time>2018-11-10T12:27:33Z</time>
      </trkpt>
      <trkpt lat="59.281956" lon="17.880236">
        <ele>44.4</ele>
        <time>2018-11-10T12:27:34Z</time>
      </trkpt>
      <trkpt lat="59.281941" lon="17.880286">
        <ele>44.2</ele>
        <time>2018-11-10T12:27:35Z</time>
      </trkpt>
      <trkpt lat="59.281922" lon="17.880325">
        <ele>44</ele>
        <time>2018-11-10T12:27:36Z</time>
      </trkpt>
      <trkpt lat="59.2819" lon="17.880368">
        <ele>43.8</ele>
        <time>2018-11-10T12:27:37Z</time>
      </trkpt>
      <trkpt lat="59.281883" lon="17.880409">
        <ele>43.7</ele>
        <time>2018-11-10T12:27:38Z</time>
      </trkpt>
    </trkseg>
  </trk>
</gpx>